| time (UTC) | temp F | wind direction | speed knots | gust knots | rain 1hr in | rain 24hr in | rain mn in | humidity % | barometer mb |
| 20260831200718 | 65 | 275 | 3.5 | 7.8 | 0.00 | 0.14 | 0.14 | 60 | 1018.7 |
| 20260831200618 | 65 | 257 | 3.5 | 8.7 | 0.00 | 0.14 | 0.14 | 60 | 1018.7 |
| 20260831200519 | 65 | 286 | 4.3 | 8.7 | 0.00 | 0.14 | 0.14 | 60 | 1018.7 |
| 20260831200418 | 65 | 257 | 3.5 | 8.7 | 0.00 | 0.14 | 0.14 | 60 | 1018.7 |
| 20260831200330 | 65 | 252 | 3.5 | 8.7 | 0.00 | 0.14 | 0.14 | 60 | 1018.7 |
| 20260831200316 | 65 | 250 | 3.5 | 8.7 | 0.00 | 0.14 | 0.14 | 60 | 1018.6 |
| 20260831200216 | 65 | 271 | 4.3 | 8.7 | 0.00 | 0.14 | 0.14 | 60 | 1018.6 |
| 20260831200116 | 65 | 290 | 4.3 | 8.7 | 0.00 | 0.14 | 0.14 | 60 | 1018.7 |
| 20260831200052 | 65 | 269 | 4.3 | 9.6 | 0.00 | 0.14 | 0.14 | 59 | 1018.6 |
| 20260831200044 | 65 | 257 | 4.3 | 9.6 | 0.00 | 0.14 | 0.14 | 60 | 1018.6 |
| 20260831200040 | 65 | 252 | 4.3 | 9.6 | 0.00 | 0.14 | 0.14 | 59 | 1018.6 |
| 20260831195812 | 65 | 269 | 4.3 | 9.6 | 0.00 | 0.14 | 0.14 | 59 | 1018.6 |
| 20260831195712 | 65 | 268 | 4.3 | 9.6 | 0.00 | 0.14 | 0.14 | 59 | 1018.5 |
| 20260831195612 | 65 | 280 | 4.3 | 9.6 | 0.00 | 0.14 | 0.14 | 59 | 1018.5 |
| 20260831195512 | 65 | 250 | 4.3 | 9.6 | 0.00 | 0.14 | 0.14 | 59 | 1018.5 |
| 20260831195438 | 65 | 252 | 4.3 | 9.6 | 0.00 | 0.14 | 0.14 | 59 | 1018.5 |
| 20260831195434 | 65 | 268 | 4.3 | 9.6 | 0.00 | 0.14 | 0.14 | 59 | 1018.5 |
| 20260831195322 | 65 | 271 | 4.3 | 9.6 | 0.00 | 0.14 | 0.14 | 59 | 1018.4 |
| 20260831195208 | 65 | 253 | 4.3 | 9.6 | 0.00 | 0.14 | 0.14 | 59 | 1018.4 |
| 20260831195108 | 65 | 263 | 4.3 | 9.6 | 0.00 | 0.14 | 0.14 | 59 | 1018.4 |
| 20260831195053 | 65 | 261 | 4.3 | 7.8 | 0.00 | 0.14 | 0.14 | 59 | 1018.3 |
| 20260831195044 | 65 | 257 | 4.3 | 7.0 | 0.00 | 0.14 | 0.14 | 59 | 1018.4 |
| 20260831195040 | 65 | 302 | 4.3 | 7.8 | 0.00 | 0.14 | 0.14 | 59 | 1018.3 |
| 20260831194804 | 65 | 251 | 4.3 | 7.8 | 0.00 | 0.14 | 0.14 | 59 | 1018.3 |
| 20260831194704 | 65 | 261 | 4.3 | 7.8 | 0.00 | 0.14 | 0.14 | 60 | 1018.3 |
| 20260831194602 | 65 | 263 | 4.3 | 7.8 | 0.00 | 0.14 | 0.14 | 60 | 1018.3 |
| 20260831194502 | 65 | 251 | 4.3 | 7.8 | 0.00 | 0.14 | 0.14 | 60 | 1018.3 |
| 20260831194403 | 65 | 284 | 4.3 | 7.8 | 0.00 | 0.14 | 0.14 | 60 | 1018.2 |
| 20260831194329 | 65 | 277 | 4.3 | 7.8 | 0.00 | 0.14 | 0.14 | 60 | 1018.2 |
| 20260831194302 | 65 | 246 | 4.3 | 7.8 | 0.00 | 0.14 | 0.14 | 60 | 1018.3 |
| 20260831194202 | 65 | 252 | 4.3 | 7.8 | 0.00 | 0.14 | 0.14 | 60 | 1018.3 |
| 20260831194102 | 65 | 283 | 4.3 | 7.8 | 0.00 | 0.14 | 0.14 | 60 | 1018.3 |
| 20260831194002 | 65 | 259 | 3.5 | 7.8 | 0.00 | 0.14 | 0.14 | 60 | 1018.3 |
| 20260831193901 | 65 | 272 | 3.5 | 7.8 | 0.00 | 0.14 | 0.14 | 60 | 1018.3 |
| 20260831193830 | 65 | 265 | 3.5 | 7.8 | 0.00 | 0.14 | 0.14 | 60 | 1018.3 |
| 20260831193801 | 65 | 248 | 3.5 | 7.8 | 0.00 | 0.14 | 0.14 | 60 | 1018.3 |
| 20260831193701 | 65 | 271 | 3.5 | 7.8 | 0.00 | 0.14 | 0.14 | 61 | 1018.3 |
| 20260831193603 | 65 | 246 | 2.6 | 7.8 | 0.00 | 0.14 | 0.14 | 61 | 1018.3 |
| 20260831193501 | 65 | 263 | 2.6 | 7.8 | 0.00 | 0.14 | 0.14 | 61 | 1018.3 |
| 20260831193401 | 65 | 270 | 2.6 | 6.1 | 0.00 | 0.14 | 0.14 | 61 | 1018.3 |
| 20260831193329 | 65 | 259 | 2.6 | 5.2 | 0.00 | 0.14 | 0.14 | 61 | 1018.3 |
| 20260831193301 | 65 | 258 | 2.6 | 5.2 | 0.00 | 0.14 | 0.14 | 61 | 1018.2 |
| 20260831193203 | 65 | 295 | 2.6 | 5.2 | 0.00 | 0.14 | 0.14 | 62 | 1018.3 |
| 20260831193101 | 65 | 254 | 2.6 | 5.2 | 0.00 | 0.14 | 0.14 | 62 | 1018.2 |
| 20260831193026 | 65 | 291 | 1.7 | 3.5 | 0.00 | 0.14 | 0.14 | 63 | 1018.2 |
| 20260831193022 | 66 | 267 | 1.7 | 2.6 | 0.00 | 0.14 | 0.14 | 61 | 1018.0 |
| 20260831193017 | 65 | 288 | 2.6 | 4.3 | 0.00 | 0.14 | 0.14 | 63 | 1018.2 |
| 20260831193013 | 65 | 269 | 2.6 | 4.3 | 0.00 | 0.14 | 0.14 | 63 | 1018.2 |
| 20260831193009 | 65 | 264 | 2.6 | 4.3 | 0.00 | 0.14 | 0.14 | 63 | 1018.2 |
| 20260831193005 | 65 | 264 | 1.7 | 4.3 | 0.00 | 0.14 | 0.14 | 63 | 1018.2 |
| 20260831192750 | 65 | 273 | 1.7 | 4.3 | 0.00 | 0.14 | 0.14 | 63 | 1018.2 |
| 20260831192746 | 65 | 287 | 1.7 | 4.3 | 0.00 | 0.14 | 0.14 | 63 | 1018.2 |
| 20260831192738 | 65 | 280 | 1.7 | 3.5 | 0.00 | 0.14 | 0.14 | 62 | 1018.1 |
| 20260831192734 | 65 | 280 | 1.7 | 3.5 | 0.00 | 0.14 | 0.14 | 62 | 1018.1 |
| 20260831192305 | 65 | 291 | 1.7 | 3.5 | 0.00 | 0.14 | 0.14 | 63 | 1018.2 |
| 20260831192259 | 66 | 286 | 1.7 | 3.5 | 0.00 | 0.14 | 0.14 | 62 | 1018.1 |
| 20260831192255 | 66 | 286 | 1.7 | 3.5 | 0.00 | 0.14 | 0.14 | 62 | 1018.1 |
| 20260831192247 | 66 | 286 | 1.7 | 2.6 | 0.00 | 0.14 | 0.14 | 62 | 1018.0 |
| 20260831192243 | 66 | 286 | 1.7 | 2.6 | 0.00 | 0.14 | 0.14 | 62 | 1018.0 |
| 20260831191812 | 66 | 286 | 1.7 | 2.6 | 0.00 | 0.14 | 0.14 | 62 | 1018.0 |
| 20260831191808 | 66 | 286 | 1.7 | 2.6 | 0.00 | 0.14 | 0.14 | 61 | 1018.0 |
| 20260831191804 | 66 | 267 | 1.7 | 2.6 | 0.00 | 0.14 | 0.14 | 61 | 1018.0 |
| 20260831191543 | 66 | 267 | 1.7 | 2.6 | 0.00 | 0.14 | 0.14 | 61 | 1018.0 |
| 20260831191539 | 66 | 267 | 1.7 | 2.6 | 0.00 | 0.14 | 0.14 | 61 | 1018.0 |
| 20260831191258 | 66 | 267 | 1.7 | 2.6 | 0.00 | 0.14 | 0.14 | 61 | 1017.9 |
| 20260831191158 | 66 | 267 | 1.7 | 2.6 | 0.00 | 0.14 | 0.14 | 60 | 1017.9 |
| 20260831191056 | 67 | 267 | 1.7 | 2.6 | 0.00 | 0.14 | 0.14 | 60 | 1017.9 |
| 20260831190954 | 67 | 267 | 1.7 | 2.6 | 0.00 | 0.14 | 0.14 | 60 | 1017.9 |
| 20260831190830 | 67 | 267 | 1.7 | 2.6 | 0.00 | 0.14 | 0.14 | 60 | 1017.9 |
| 20260831190748 | 67 | 267 | 1.7 | 2.6 | 0.00 | 0.14 | 0.14 | 60 | 1017.9 |
| 20260831190648 | 67 | 253 | 1.7 | 2.6 | 0.00 | 0.14 | 0.14 | 60 | 1017.8 |
| 20260831190559 | 67 | 253 | 1.7 | 2.6 | 0.00 | 0.14 | 0.14 | 60 | 1017.8 |
| 20260831190545 | 67 | 253 | 1.7 | 4.3 | 0.00 | 0.14 | 0.14 | 60 | 1017.8 |
| 20260831190541 | 67 | 253 | 1.7 | 4.3 | 0.00 | 0.14 | 0.14 | 59 | 1017.6 |
| 20260831190247 | 67 | 253 | 1.7 | 4.3 | 0.00 | 0.14 | 0.14 | 59 | 1017.6 |
| 20260831190146 | 67 | 253 | 1.7 | 5.2 | 0.00 | 0.14 | 0.14 | 60 | 1017.6 |
| 20260831190044 | 67 | 253 | 2.6 | 5.2 | 0.00 | 0.14 | 0.14 | 59 | 1017.6 |
| 20260831185941 | 67 | 253 | 2.6 | 5.2 | 0.00 | 0.14 | 0.14 | 59 | 1017.6 |
| 20260831185830 | 67 | 252 | 2.6 | 5.2 | 0.00 | 0.14 | 0.14 | 58 | 1017.5 |
| 20260831185736 | 67 | 253 | 2.6 | 5.2 | 0.00 | 0.14 | 0.14 | 58 | 1017.5 |
| 20260831185636 | 67 | 253 | 2.6 | 6.1 | 0.00 | 0.14 | 0.14 | 58 | 1017.5 |
| 20260831185536 | 67 | 252 | 2.6 | 6.1 | 0.00 | 0.14 | 0.14 | 58 | 1017.6 |
| 20260831185436 | 67 | 250 | 2.6 | 6.1 | 0.00 | 0.14 | 0.14 | 58 | 1017.5 |
| 20260831185343 | 67 | 248 | 3.5 | 6.1 | 0.00 | 0.14 | 0.14 | 57 | 1017.4 |
| 20260831185328 | 67 | 266 | 3.5 | 6.1 | 0.00 | 0.14 | 0.14 | 57 | 1017.4 |
| 20260831185234 | 67 | 267 | 3.5 | 6.1 | 0.00 | 0.14 | 0.14 | 58 | 1017.5 |
| 20260831185132 | 67 | 266 | 3.5 | 6.1 | 0.00 | 0.14 | 0.14 | 58 | 1017.5 |
| 20260831185052 | 68 | 248 | 3.5 | 6.1 | 0.00 | 0.14 | 0.14 | 58 | 1017.4 |
| 20260831185044 | 68 | 269 | 2.6 | 6.1 | 0.00 | 0.14 | 0.14 | 57 | 1017.4 |
| 20260831185040 | 68 | 273 | 3.5 | 6.1 | 0.00 | 0.14 | 0.14 | 57 | 1017.4 |
| 20260831184732 | 68 | 251 | 3.5 | 6.1 | 0.00 | 0.14 | 0.14 | 57 | 1017.4 |
| 20260831184632 | 68 | 252 | 3.5 | 5.2 | 0.00 | 0.14 | 0.14 | 57 | 1017.3 |
| 20260831184532 | 68 | 250 | 2.6 | 5.2 | 0.00 | 0.14 | 0.14 | 57 | 1017.3 |
| 20260831184432 | 68 | 263 | 2.6 | 6.1 | 0.00 | 0.14 | 0.14 | 57 | 1017.3 |
| 20260831184329 | 68 | 270 | 2.6 | 6.1 | 0.00 | 0.14 | 0.14 | 57 | 1017.2 |
| 20260831184231 | 68 | 273 | 2.6 | 6.1 | 0.00 | 0.14 | 0.14 | 57 | 1017.2 |
| 20260831184130 | 68 | 253 | 2.6 | 6.1 | 0.00 | 0.14 | 0.14 | 56 | 1017.2 |
| 20260831184029 | 68 | 261 | 2.6 | 6.1 | 0.00 | 0.14 | 0.14 | 57 | 1017.2 |
| 20260831183929 | 68 | 271 | 3.5 | 7.0 | 0.00 | 0.14 | 0.14 | 57 | 1017.1 |
| 20260831183830 | 68 | 259 | 3.5 | 7.0 | 0.00 | 0.14 | 0.14 | 56 | 1017.1 |
| 20260831183730 | 68 | 265 | 3.5 | 7.0 | 0.00 | 0.14 | 0.14 | 56 | 1017.0 |
| 20260831183630 | 68 | 246 | 3.5 | 7.0 | 0.00 | 0.14 | 0.14 | 56 | 1017.0 |
| 20260831183529 | 68 | 242 | 3.5 | 7.0 | 0.00 | 0.14 | 0.14 | 56 | 1017.0 |
| 20260831183429 | 68 | 265 | 4.3 | 7.0 | 0.00 | 0.14 | 0.14 | 56 | 1017.0 |
| 20260831183329 | 68 | 274 | 4.3 | 7.0 | 0.00 | 0.14 | 0.14 | 56 | 1017.0 |
| 20260831183229 | 68 | 267 | 4.3 | 7.0 | 0.00 | 0.14 | 0.14 | 56 | 1016.9 |
| 20260831183129 | 68 | 276 | 4.3 | 7.0 | 0.00 | 0.14 | 0.14 | 56 | 1016.9 |
| 20260831183029 | 68 | 246 | 4.3 | 7.8 | 0.00 | 0.14 | 0.14 | 56 | 1016.8 |
| 20260831182929 | 68 | 263 | 4.3 | 7.8 | 0.00 | 0.14 | 0.14 | 56 | 1016.8 |
| 20260831182829 | 68 | 269 | 4.3 | 7.8 | 0.00 | 0.14 | 0.14 | 56 | 1016.8 |
| 20260831182729 | 68 | 260 | 4.3 | 7.8 | 0.00 | 0.14 | 0.14 | 56 | 1016.8 |
| 20260831182630 | 68 | 251 | 4.3 | 7.8 | 0.00 | 0.14 | 0.14 | 56 | 1016.8 |
| 20260831182529 | 68 | 288 | 4.3 | 7.8 | 0.00 | 0.14 | 0.14 | 56 | 1016.7 |
| 20260831182429 | 69 | 250 | 4.3 | 7.8 | 0.00 | 0.14 | 0.14 | 56 | 1016.8 |
| 20260831182330 | 69 | 261 | 4.3 | 7.8 | 0.00 | 0.14 | 0.14 | 55 | 1016.7 |
| 20260831182229 | 69 | 231 | 4.3 | 7.8 | 0.00 | 0.14 | 0.14 | 55 | 1016.7 |
| 20260831182129 | 69 | 246 | 4.3 | 7.8 | 0.00 | 0.14 | 0.14 | 55 | 1016.7 |
| 20260831182029 | 69 | 273 | 4.3 | 7.8 | 0.00 | 0.14 | 0.14 | 55 | 1016.7 |
| 20260831181929 | 69 | 278 | 4.3 | 7.0 | 0.00 | 0.14 | 0.14 | 55 | 1016.7 |
| 20260831181829 | 69 | 250 | 3.5 | 7.0 | 0.00 | 0.14 | 0.14 | 55 | 1016.6 |
| 20260831181729 | 69 | 247 | 3.5 | 7.0 | 0.00 | 0.14 | 0.14 | 55 | 1016.7 |
| 20260831181629 | 69 | 256 | 3.5 | 7.0 | 0.00 | 0.14 | 0.14 | 55 | 1016.6 |
| 20260831181528 | 69 | 254 | 3.5 | 7.0 | 0.00 | 0.14 | 0.14 | 54 | 1016.6 |
| 20260831181425 | 69 | 243 | 3.5 | 7.0 | 0.00 | 0.14 | 0.14 | 54 | 1016.6 |
| 20260831181328 | 69 | 244 | 3.5 | 7.0 | 0.00 | 0.14 | 0.14 | 54 | 1016.6 |
| 20260831181324 | 69 | 248 | 3.5 | 7.0 | 0.00 | 0.14 | 0.14 | 54 | 1016.6 |
| 20260831181224 | 69 | 262 | 3.5 | 7.0 | 0.00 | 0.14 | 0.14 | 54 | 1016.6 |
| 20260831181124 | 69 | 254 | 3.5 | 7.0 | 0.00 | 0.14 | 0.14 | 54 | 1016.6 |
| 20260831181024 | 69 | 264 | 4.3 | 7.0 | 0.00 | 0.14 | 0.14 | 54 | 1016.6 |
| 20260831180920 | 69 | 246 | 4.3 | 6.1 | 0.00 | 0.14 | 0.14 | 54 | 1016.5 |
| 20260831180829 | 69 | 263 | 4.3 | 7.0 | 0.00 | 0.14 | 0.14 | 54 | 1016.5 |
| 20260831180818 | 69 | 264 | 4.3 | 7.0 | 0.00 | 0.14 | 0.14 | 54 | 1016.5 |
| 20260831180718 | 70 | 256 | 4.3 | 7.0 | 0.00 | 0.14 | 0.14 | 54 | 1016.5 |
| 20260831180618 | 70 | 272 | 4.3 | 7.0 | 0.00 | 0.14 | 0.14 | 54 | 1016.5 |
| 20260831180555 | 70 | 259 | 4.3 | 7.8 | 0.00 | 0.14 | 0.14 | 53 | 1016.5 |
| 20260831180550 | 70 | 259 | 4.3 | 7.0 | 0.00 | 0.14 | 0.14 | 54 | 1016.5 |
| 20260831180543 | 70 | 259 | 4.3 | 7.0 | 0.00 | 0.14 | 0.14 | 53 | 1016.5 |
| 20260831180314 | 70 | 256 | 4.3 | 7.8 | 0.00 | 0.14 | 0.14 | 53 | 1016.5 |
| 20260831180213 | 70 | 298 | 5.2 | 7.8 | 0.00 | 0.14 | 0.14 | 53 | 1016.4 |
| 20260831180114 | 70 | 248 | 5.2 | 7.8 | 0.00 | 0.14 | 0.14 | 53 | 1016.5 |
| 20260831180053 | 70 | 244 | 5.2 | 10.4 | 0.00 | 0.14 | 0.14 | 52 | 1016.4 |
| 20260831180048 | 70 | 286 | 5.2 | 7.8 | 0.00 | 0.14 | 0.14 | 52 | 1016.4 |
| 20260831180039 | 70 | 257 | 5.2 | 7.8 | 0.00 | 0.14 | 0.14 | 52 | 1016.4 |
| 20260831175810 | 70 | 270 | 5.2 | 10.4 | 0.00 | 0.14 | 0.14 | 52 | 1016.4 |
| 20260831175710 | 70 | 261 | 6.1 | 10.4 | 0.00 | 0.14 | 0.14 | 52 | 1016.4 |
| 20260831175608 | 70 | 273 | 6.1 | 10.4 | 0.00 | 0.14 | 0.14 | 52 | 1016.4 |
| 20260831175506 | 70 | 268 | 6.1 | 10.4 | 0.00 | 0.14 | 0.14 | 52 | 1016.4 |
| 20260831175402 | 70 | 244 | 6.1 | 10.4 | 0.00 | 0.14 | 0.14 | 52 | 1016.4 |
| 20260831175324 | 70 | 245 | 6.1 | 10.4 | 0.00 | 0.14 | 0.14 | 52 | 1016.4 |
| 20260831175302 | 70 | 273 | 6.1 | 10.4 | 0.00 | 0.14 | 0.14 | 52 | 1016.4 |
| 20260831175201 | 70 | 265 | 6.1 | 10.4 | 0.00 | 0.14 | 0.14 | 52 | 1016.4 |
| 20260831175101 | 70 | 244 | 6.1 | 10.4 | 0.00 | 0.14 | 0.14 | 52 | 1016.3 |
| 20260831175003 | 71 | 274 | 6.1 | 10.4 | 0.00 | 0.14 | 0.14 | 52 | 1016.3 |
| 20260831174902 | 71 | 260 | 6.1 | 10.4 | 0.00 | 0.14 | 0.14 | 51 | 1016.3 |
| 20260831174817 | 71 | 265 | 6.1 | 10.4 | 0.00 | 0.14 | 0.14 | 51 | 1016.3 |
| 20260831174802 | 71 | 261 | 6.1 | 10.4 | 0.00 | 0.14 | 0.14 | 51 | 1016.3 |
| 20260831174702 | 71 | 238 | 6.1 | 10.4 | 0.00 | 0.14 | 0.14 | 51 | 1016.3 |
| 20260831174602 | 71 | 257 | 6.1 | 10.4 | 0.00 | 0.14 | 0.14 | 51 | 1016.2 |
| 20260831174536 | 71 | 267 | 6.1 | 10.4 | 0.00 | 0.14 | 0.14 | 51 | 1016.2 |
| 20260831174530 | 71 | 269 | 6.1 | 10.4 | 0.00 | 0.14 | 0.14 | 51 | 1016.2 |
| 20260831174522 | 71 | 268 | 6.1 | 10.4 | 0.00 | 0.14 | 0.14 | 51 | 1016.1 |
| 20260831174302 | 71 | 288 | 6.1 | 10.4 | 0.00 | 0.14 | 0.14 | 51 | 1016.2 |
| 20260831174202 | 71 | 274 | 6.1 | 10.4 | 0.00 | 0.14 | 0.14 | 51 | 1016.1 |
| 20260831174102 | 71 | 273 | 6.1 | 11.3 | 0.00 | 0.14 | 0.14 | 51 | 1016.1 |
| 20260831174002 | 71 | 232 | 7.0 | 11.3 | 0.00 | 0.14 | 0.14 | 51 | 1016.1 |
| 20260831173902 | 71 | 240 | 7.0 | 11.3 | 0.00 | 0.14 | 0.14 | 50 | 1016.1 |
| 20260831173813 | 71 | 242 | 7.0 | 11.3 | 0.00 | 0.14 | 0.14 | 50 | 1016.0 |
| 20260831173801 | 71 | 254 | 7.0 | 11.3 | 0.00 | 0.14 | 0.14 | 50 | 1016.0 |
| 20260831173700 | 71 | 274 | 7.0 | 11.3 | 0.00 | 0.14 | 0.14 | 51 | 1016.0 |
| 20260831173600 | 71 | 280 | 7.0 | 11.3 | 0.00 | 0.14 | 0.14 | 50 | 1016.1 |
| 20260831173501 | 71 | 252 | 7.0 | 11.3 | 0.00 | 0.14 | 0.14 | 50 | 1016.1 |
| 20260831173400 | 71 | 252 | 7.0 | 11.3 | 0.00 | 0.14 | 0.14 | 49 | 1016.0 |
| 20260831173312 | 71 | 265 | 7.0 | 11.3 | 0.00 | 0.14 | 0.14 | 50 | 1016.0 |
| 20260831173300 | 71 | 258 | 7.0 | 11.3 | 0.00 | 0.14 | 0.14 | 50 | 1016.0 |
| 20260831173155 | 71 | 244 | 7.0 | 11.3 | 0.00 | 0.14 | 0.14 | 50 | 1016.1 |
| 20260831173055 | 71 | 261 | 7.0 | 11.3 | 0.00 | 0.14 | 0.14 | 50 | 1016.0 |
| 20260831173035 | 72 | 242 | 6.1 | 11.3 | 0.00 | 0.14 | 0.14 | 50 | 1016.0 |
| 20260831173031 | 72 | 272 | 7.0 | 11.3 | 0.00 | 0.14 | 0.14 | 50 | 1016.0 |
| 20260831173023 | 72 | 265 | 6.1 | 11.3 | 0.00 | 0.14 | 0.14 | 50 | 1016.0 |
| 20260831172754 | 72 | 291 | 6.1 | 11.3 | 0.00 | 0.14 | 0.14 | 50 | 1016.0 |
| 20260831172649 | 72 | 243 | 6.1 | 11.3 | 0.00 | 0.14 | 0.14 | 50 | 1016.0 |
| 20260831172550 | 72 | 284 | 6.1 | 11.3 | 0.00 | 0.14 | 0.14 | 50 | 1016.0 |
| 20260831172535 | 72 | 256 | 6.1 | 10.4 | 0.00 | 0.14 | 0.14 | 49 | 1015.8 |
| 20260831172530 | 72 | 271 | 6.1 | 10.4 | 0.00 | 0.14 | 0.14 | 50 | 1016.0 |
| 20260831172522 | 72 | 236 | 6.1 | 10.4 | 0.00 | 0.14 | 0.14 | 50 | 1016.0 |
| 20260831172247 | 72 | 262 | 6.1 | 10.4 | 0.00 | 0.14 | 0.14 | 49 | 1015.8 |
| 20260831172146 | 72 | 264 | 6.1 | 10.4 | 0.00 | 0.14 | 0.14 | 48 | 1015.8 |
| 20260831172046 | 72 | 265 | 6.1 | 10.4 | 0.00 | 0.14 | 0.14 | 49 | 1015.8 |
| 20260831171946 | 72 | 264 | 6.1 | 10.4 | 0.00 | 0.14 | 0.14 | 48 | 1015.8 |
| 20260831171844 | 72 | 248 | 7.0 | 10.4 | 0.00 | 0.14 | 0.14 | 48 | 1015.8 |
| 20260831171812 | 72 | 242 | 7.0 | 11.3 | 0.00 | 0.14 | 0.14 | 48 | 1015.8 |
| 20260831171741 | 72 | 255 | 7.0 | 11.3 | 0.00 | 0.14 | 0.14 | 48 | 1015.8 |
| 20260831171636 | 72 | 275 | 7.0 | 11.3 | 0.00 | 0.14 | 0.14 | 48 | 1015.8 |
| 20260831171536 | 72 | 246 | 6.1 | 11.3 | 0.00 | 0.14 | 0.14 | 48 | 1015.8 |
| 20260831171440 | 72 | 275 | 6.1 | 11.3 | 0.00 | 0.14 | 0.14 | 48 | 1015.7 |
| 20260831171336 | 73 | 263 | 6.1 | 11.3 | 0.00 | 0.14 | 0.14 | 48 | 1015.8 |
| 20260831171312 | 73 | 237 | 6.1 | 11.3 | 0.00 | 0.14 | 0.14 | 48 | 1015.8 |
| 20260831171236 | 73 | 246 | 6.1 | 11.3 | 0.00 | 0.14 | 0.14 | 47 | 1015.8 |
| 20260831171130 | 73 | 265 | 6.1 | 11.3 | 0.00 | 0.14 | 0.14 | 47 | 1015.8 |
| 20260831171030 | 73 | 311 | 6.1 | 11.3 | 0.00 | 0.14 | 0.14 | 47 | 1015.7 |
| 20260831170929 | 73 | 283 | 6.1 | 11.3 | 0.00 | 0.14 | 0.14 | 48 | 1015.7 |
| 20260831170830 | 73 | 263 | 5.2 | 11.3 | 0.00 | 0.14 | 0.14 | 47 | 1015.7 |
| 20260831170812 | 73 | 259 | 5.2 | 11.3 | 0.00 | 0.14 | 0.14 | 47 | 1015.7 |
| 20260831170730 | 73 | 260 | 5.2 | 12.2 | 0.00 | 0.14 | 0.14 | 47 | 1015.7 |
| 20260831170623 | 73 | 242 | 6.1 | 12.2 | 0.00 | 0.14 | 0.14 | 47 | 1015.7 |
| 20260831170524 | 73 | 275 | 6.1 | 12.2 | 0.00 | 0.14 | 0.14 | 47 | 1015.7 |
| 20260831170423 | 73 | 265 | 6.1 | 12.2 | 0.00 | 0.14 | 0.14 | 47 | 1015.7 |
| 20260831170324 | 73 | 252 | 7.0 | 12.2 | 0.00 | 0.14 | 0.14 | 47 | 1015.7 |
| 20260831170312 | 73 | 234 | 7.0 | 12.2 | 0.00 | 0.14 | 0.14 | 47 | 1015.7 |
| 20260831170223 | 73 | 271 | 7.0 | 12.2 | 0.00 | 0.14 | 0.14 | 46 | 1015.7 |
| 20260831170120 | 73 | 281 | 7.0 | 12.2 | 0.00 | 0.14 | 0.14 | 46 | 1015.7 |
| 20260831170020 | 73 | 269 | 7.0 | 12.2 | 0.00 | 0.14 | 0.14 | 46 | 1015.6 |
| 20260831165920 | 73 | 273 | 7.0 | 12.2 | 0.00 | 0.14 | 0.14 | 46 | 1015.7 |
| 20260831165820 | 73 | 263 | 7.0 | 12.2 | 0.00 | 0.14 | 0.14 | 46 | 1015.7 |
| 20260831165812 | 73 | 233 | 7.0 | 12.2 | 0.00 | 0.14 | 0.14 | 46 | 1015.7 |
| 20260831165717 | 73 | 267 | 7.0 | 11.3 | 0.00 | 0.14 | 0.14 | 46 | 1015.6 |
| 20260831165613 | 73 | 248 | 7.0 | 11.3 | 0.00 | 0.14 | 0.14 | 45 | 1015.7 |
| 20260831165539 | 73 | 254 | 7.0 | 13.0 | 0.00 | 0.14 | 0.14 | 46 | 1015.6 |
| 20260831165533 | 73 | 255 | 7.0 | 10.4 | 0.00 | 0.14 | 0.14 | 46 | 1015.7 |
| 20260831165526 | 73 | 315 | 7.0 | 13.0 | 0.00 | 0.14 | 0.14 | 46 | 1015.7 |
| 20260831165522 | 73 | 247 | 7.0 | 13.0 | 0.00 | 0.14 | 0.14 | 46 | 1015.6 |
| 20260831165212 | 73 | 269 | 7.0 | 13.0 | 0.00 | 0.14 | 0.14 | 46 | 1015.6 |
| 20260831165107 | 73 | 243 | 7.0 | 13.0 | 0.00 | 0.14 | 0.14 | 46 | 1015.7 |
| 20260831165007 | 73 | 262 | 7.0 | 13.0 | 0.00 | 0.14 | 0.14 | 46 | 1015.6 |
| 20260831164908 | 73 | 281 | 7.8 | 13.0 | 0.00 | 0.14 | 0.14 | 46 | 1015.6 |
| 20260831164807 | 73 | 236 | 7.8 | 13.0 | 0.00 | 0.14 | 0.14 | 45 | 1015.6 |
| 20260831164705 | 73 | 283 | 7.8 | 13.0 | 0.00 | 0.14 | 0.14 | 45 | 1015.5 |
| 20260831164604 | 73 | 268 | 7.8 | 13.0 | 0.00 | 0.14 | 0.14 | 44 | 1015.6 |
| 20260831164504 | 73 | 277 | 7.8 | 13.0 | 0.00 | 0.14 | 0.14 | 44 | 1015.7 |
| 20260831164403 | 74 | 257 | 7.8 | 13.0 | 0.00 | 0.14 | 0.14 | 44 | 1015.6 |
| 20260831164308 | 74 | 253 | 7.8 | 13.0 | 0.00 | 0.14 | 0.14 | 44 | 1015.6 |
| 20260831164302 | 73 | 259 | 7.8 | 13.0 | 0.00 | 0.14 | 0.14 | 44 | 1015.6 |
| 20260831164202 | 74 | 238 | 8.7 | 13.0 | 0.00 | 0.14 | 0.14 | 44 | 1015.6 |
| 20260831164102 | 74 | 265 | 8.7 | 15.6 | 0.00 | 0.14 | 0.14 | 43 | 1015.7 |
| 20260831164002 | 74 | 251 | 8.7 | 15.6 | 0.00 | 0.14 | 0.14 | 43 | 1015.6 |
| 20260831163902 | 74 | 256 | 8.7 | 15.6 | 0.00 | 0.14 | 0.14 | 43 | 1015.6 |
| 20260831163808 | 74 | 250 | 8.7 | 15.6 | 0.00 | 0.14 | 0.14 | 43 | 1015.6 |
| 20260831163800 | 74 | 248 | 8.7 | 15.6 | 0.00 | 0.14 | 0.14 | 43 | 1015.6 |
| 20260831163659 | 74 | 267 | 8.7 | 15.6 | 0.00 | 0.14 | 0.14 | 42 | 1015.6 |
| 20260831163559 | 74 | 278 | 9.6 | 15.6 | 0.00 | 0.14 | 0.14 | 43 | 1015.6 |
| 20260831163459 | 74 | 267 | 9.6 | 15.6 | 0.00 | 0.14 | 0.14 | 42 | 1015.6 |
| 20260831163359 | 74 | 260 | 9.6 | 15.6 | 0.00 | 0.14 | 0.14 | 42 | 1015.6 |
| 20260831163307 | 74 | 263 | 9.6 | 15.6 | 0.00 | 0.14 | 0.14 | 42 | 1015.6 |
| 20260831163258 | 74 | 279 | 9.6 | 15.6 | 0.00 | 0.14 | 0.14 | 42 | 1015.6 |
| 20260831163158 | 74 | 293 | 8.7 | 15.6 | 0.00 | 0.14 | 0.14 | 42 | 1015.7 |
| 20260831163058 | 74 | 285 | 8.7 | 14.8 | 0.00 | 0.14 | 0.14 | 42 | 1015.7 |
| 20260831162958 | 74 | 250 | 7.8 | 14.8 | 0.00 | 0.14 | 0.14 | 42 | 1015.6 |
| 20260831162858 | 74 | 219 | 7.8 | 14.8 | 0.00 | 0.14 | 0.14 | 43 | 1015.6 |
| 20260831162808 | 74 | 298 | 7.8 | 14.8 | 0.00 | 0.14 | 0.14 | 42 | 1015.5 |
| 20260831162758 | 74 | 248 | 7.8 | 14.8 | 0.00 | 0.14 | 0.14 | 42 | 1015.5 |
| 20260831162658 | 74 | 271 | 7.8 | 14.8 | 0.00 | 0.14 | 0.14 | 42 | 1015.6 |
| 20260831162557 | 74 | 247 | 7.0 | 14.8 | 0.00 | 0.14 | 0.14 | 43 | 1015.6 |
| 20260831162457 | 74 | 267 | 7.0 | 13.0 | 0.00 | 0.14 | 0.14 | 44 | 1015.5 |
| 20260831162353 | 74 | 243 | 7.0 | 13.9 | 0.00 | 0.14 | 0.14 | 44 | 1015.5 |
| 20260831162308 | 74 | 253 | 7.0 | 13.9 | 0.00 | 0.14 | 0.14 | 44 | 1015.5 |
| 20260831162251 | 74 | 250 | 7.0 | 13.9 | 0.00 | 0.14 | 0.14 | 44 | 1015.5 |
| 20260831162151 | 74 | 249 | 7.8 | 13.9 | 0.00 | 0.14 | 0.14 | 43 | 1015.5 |
| 20260831162052 | 74 | 270 | 7.8 | 13.9 | 0.00 | 0.14 | 0.14 | 44 | 1015.6 |
| 20260831161952 | 74 | 252 | 7.8 | 13.9 | 0.00 | 0.14 | 0.14 | 43 | 1015.6 |
| 20260831161851 | 74 | 257 | 7.8 | 13.9 | 0.00 | 0.14 | 0.14 | 43 | 1015.6 |
| 20260831161807 | 74 | 281 | 8.7 | 13.9 | 0.00 | 0.14 | 0.14 | 42 | 1015.6 |
| 20260831161750 | 74 | 230 | 8.7 | 13.9 | 0.00 | 0.14 | 0.14 | 42 | 1015.6 |
| 20260831161650 | 74 | 283 | 8.7 | 13.9 | 0.00 | 0.14 | 0.14 | 42 | 1015.6 |
| 20260831161550 | 74 | 284 | 8.7 | 13.9 | 0.00 | 0.14 | 0.14 | 42 | 1015.5 |
| 20260831161450 | 74 | 298 | 8.7 | 13.9 | 0.00 | 0.14 | 0.14 | 42 | 1015.6 |
| 20260831161350 | 74 | 269 | 9.6 | 17.4 | 0.00 | 0.14 | 0.14 | 42 | 1015.6 |
| 20260831161304 | 74 | 274 | 9.6 | 17.4 | 0.00 | 0.14 | 0.14 | 41 | 1015.6 |
| 20260831161249 | 74 | 263 | 9.6 | 17.4 | 0.00 | 0.14 | 0.14 | 41 | 1015.6 |
| 20260831161147 | 74 | 262 | 8.7 | 17.4 | 0.00 | 0.14 | 0.14 | 42 | 1015.6 |
| 20260831161049 | 74 | 273 | 9.6 | 17.4 | 0.00 | 0.14 | 0.14 | 42 | 1015.6 |
| 20260831160948 | 74 | 267 | 9.6 | 17.4 | 0.00 | 0.14 | 0.14 | 42 | 1015.6 |
| 20260831160848 | 74 | 239 | 9.6 | 17.4 | 0.00 | 0.14 | 0.14 | 41 | 1015.6 |
| 20260831160803 | 74 | 254 | 9.6 | 17.4 | 0.00 | 0.14 | 0.14 | 41 | 1015.6 |
| 20260831160748 | 74 | 262 | 9.6 | 17.4 | 0.00 | 0.14 | 0.14 | 41 | 1015.6 |
| 20260831160646 | 74 | 273 | 9.6 | 17.4 | 0.00 | 0.14 | 0.14 | 41 | 1015.6 |
| 20260831160546 | 74 | 262 | 9.6 | 17.4 | 0.00 | 0.14 | 0.14 | 41 | 1015.6 |
| 20260831160447 | 74 | 286 | 9.6 | 17.4 | 0.00 | 0.14 | 0.14 | 41 | 1015.6 |
| 20260831160346 | 74 | 288 | 9.6 | 15.6 | 0.00 | 0.14 | 0.14 | 41 | 1015.6 |
| 20260831160304 | 74 | 258 | 10.4 | 16.5 | 0.00 | 0.14 | 0.14 | 41 | 1015.5 |
| 20260831160245 | 74 | 252 | 10.4 | 16.5 | 0.00 | 0.14 | 0.14 | 41 | 1015.5 |
| 20260831160139 | 74 | 263 | 10.4 | 16.5 | 0.00 | 0.14 | 0.14 | 41 | 1015.5 |
| 20260831160040 | 74 | 277 | 10.4 | 16.5 | 0.00 | 0.14 | 0.14 | 41 | 1015.7 |
| 20260831155940 | 74 | 234 | 10.4 | 16.5 | 0.00 | 0.14 | 0.14 | 41 | 1015.6 |
| 20260831155839 | 74 | 258 | 10.4 | 16.5 | 0.00 | 0.14 | 0.14 | 41 | 1015.5 |
| 20260831155803 | 74 | 296 | 10.4 | 16.5 | 0.00 | 0.14 | 0.14 | 41 | 1015.5 |
| 20260831155740 | 74 | 229 | 10.4 | 16.5 | 0.00 | 0.14 | 0.14 | 41 | 1015.5 |
| 20260831155634 | 74 | 259 | 9.6 | 16.5 | 0.00 | 0.14 | 0.14 | 41 | 1015.5 |
| 20260831155533 | 74 | 271 | 9.6 | 16.5 | 0.00 | 0.14 | 0.14 | 40 | 1015.5 |
| 20260831155433 | 74 | 257 | 9.6 | 16.5 | 0.00 | 0.14 | 0.14 | 39 | 1015.6 |
| 20260831155334 | 74 | 280 | 8.7 | 14.8 | 0.00 | 0.14 | 0.14 | 40 | 1015.4 |
| 20260831155306 | 74 | 261 | 8.7 | 14.8 | 0.00 | 0.14 | 0.14 | 40 | 1015.6 |
| 20260831155233 | 74 | 268 | 8.7 | 14.8 | 0.00 | 0.14 | 0.14 | 41 | 1015.6 |
| 20260831155133 | 75 | 259 | 8.7 | 13.9 | 0.00 | 0.14 | 0.14 | 40 | 1015.5 |
| 20260831155033 | 75 | 248 | 8.7 | 13.9 | 0.00 | 0.14 | 0.14 | 41 | 1015.5 |
| 20260831154932 | 75 | 298 | 8.7 | 13.9 | 0.00 | 0.14 | 0.14 | 40 | 1015.4 |
| 20260831154831 | 75 | 265 | 7.8 | 13.9 | 0.00 | 0.14 | 0.14 | 41 | 1015.5 |
| 20260831154804 | 75 | 257 | 7.8 | 13.9 | 0.00 | 0.14 | 0.14 | 41 | 1015.4 |
| 20260831154732 | 74 | 282 | 7.8 | 13.9 | 0.00 | 0.14 | 0.14 | 41 | 1015.4 |
| 20260831154632 | 75 | 263 | 7.8 | 13.9 | 0.00 | 0.14 | 0.14 | 41 | 1015.3 |
| 20260831154532 | 75 | 270 | 7.8 | 13.0 | 0.00 | 0.14 | 0.14 | 41 | 1015.3 |
| 20260831154430 | 75 | 252 | 7.8 | 13.0 | 0.00 | 0.14 | 0.14 | 41 | 1015.4 |
| 20260831154330 | 75 | 253 | 7.8 | 13.0 | 0.00 | 0.14 | 0.14 | 40 | 1015.4 |
| 20260831154303 | 75 | 265 | 7.8 | 13.0 | 0.00 | 0.14 | 0.14 | 42 | 1015.4 |
| 20260831154230 | 75 | 268 | 7.8 | 13.0 | 0.00 | 0.14 | 0.14 | 42 | 1015.4 |
| 20260831154130 | 75 | 248 | 7.0 | 13.0 | 0.00 | 0.14 | 0.14 | 43 | 1015.4 |
| 20260831154029 | 75 | 276 | 7.0 | 13.0 | 0.00 | 0.14 | 0.14 | 43 | 1015.4 |
| 20260831153925 | 75 | 267 | 7.0 | 13.0 | 0.00 | 0.14 | 0.14 | 44 | 1015.4 |
| 20260831153825 | 75 | 299 | 7.0 | 13.0 | 0.00 | 0.14 | 0.14 | 45 | 1015.4 |
| 20260831153804 | 75 | 250 | 7.0 | 13.0 | 0.00 | 0.14 | 0.14 | 44 | 1015.4 |
| 20260831153725 | 75 | 257 | 7.0 | 13.0 | 0.00 | 0.14 | 0.14 | 44 | 1015.4 |
| 20260831153626 | 75 | 263 | 7.0 | 13.0 | 0.00 | 0.14 | 0.14 | 44 | 1015.4 |
| 20260831153535 | 75 | 282 | 7.0 | 12.2 | 0.00 | 0.14 | 0.14 | 44 | 1015.4 |
| 20260831153529 | 75 | 223 | 7.0 | 12.2 | 0.00 | 0.14 | 0.14 | 45 | 1015.4 |
| 20260831153525 | 75 | 243 | 7.0 | 12.2 | 0.00 | 0.14 | 0.14 | 43 | 1015.4 |
| 20260831153517 | 75 | 254 | 7.0 | 12.2 | 0.00 | 0.14 | 0.14 | 44 | 1015.4 |
| 20260831153223 | 75 | 229 | 7.0 | 12.2 | 0.00 | 0.14 | 0.14 | 44 | 1015.4 |
| 20260831153124 | 75 | 253 | 7.8 | 13.0 | 0.00 | 0.14 | 0.14 | 45 | 1015.4 |
| 20260831153024 | 75 | 230 | 7.8 | 13.0 | 0.00 | 0.14 | 0.14 | 44 | 1015.4 |
| 20260831152924 | 75 | 268 | 7.8 | 13.0 | 0.00 | 0.14 | 0.14 | 44 | 1015.4 |
| 20260831152823 | 75 | 210 | 7.8 | 13.0 | 0.00 | 0.14 | 0.14 | 45 | 1015.4 |
| 20260831152802 | 75 | 275 | 8.7 | 20.9 | 0.00 | 0.14 | 0.14 | 45 | 1015.4 |
| 20260831152724 | 75 | 237 | 8.7 | 20.9 | 0.00 | 0.14 | 0.14 | 44 | 1015.4 |
| 20260831152624 | 75 | 225 | 8.7 | 20.9 | 0.00 | 0.14 | 0.14 | 43 | 1015.5 |
| 20260831152524 | 75 | 254 | 8.7 | 20.9 | 0.00 | 0.14 | 0.14 | 42 | 1015.4 |
| 20260831152424 | 75 | 278 | 8.7 | 20.9 | 0.00 | 0.14 | 0.14 | 42 | 1015.4 |
| 20260831152324 | 75 | 246 | 8.7 | 20.9 | 0.00 | 0.14 | 0.14 | 41 | 1015.5 |
| 20260831152301 | 75 | 254 | 8.7 | 20.9 | 0.00 | 0.14 | 0.14 | 41 | 1015.5 |
| 20260831152220 | 75 | 267 | 9.6 | 20.9 | 0.00 | 0.14 | 0.14 | 41 | 1015.5 |
| 20260831152120 | 75 | 273 | 9.6 | 20.9 | 0.00 | 0.14 | 0.14 | 42 | 1015.5 |
| 20260831152019 | 75 | 281 | 9.6 | 20.9 | 0.00 | 0.14 | 0.14 | 42 | 1015.4 |
| 20260831151919 | 75 | 280 | 9.6 | 20.9 | 0.00 | 0.14 | 0.14 | 42 | 1015.6 |
| 20260831151820 | 75 | 245 | 8.7 | 20.9 | 0.00 | 0.14 | 0.14 | 43 | 1015.5 |
| 20260831151801 | 75 | 211 | 8.7 | 18.2 | 0.00 | 0.14 | 0.14 | 43 | 1015.5 |
| 20260831151719 | 75 | 266 | 9.6 | 18.2 | 0.00 | 0.14 | 0.14 | 42 | 1015.6 |
| 20260831151619 | 75 | 255 | 9.6 | 18.2 | 0.00 | 0.14 | 0.14 | 41 | 1015.5 |
| 20260831151519 | 75 | 259 | 9.6 | 18.2 | 0.00 | 0.14 | 0.14 | 43 | 1015.5 |
| 20260831151419 | 75 | 240 | 9.6 | 18.2 | 0.00 | 0.14 | 0.14 | 42 | 1015.5 |
| 20260831151320 | 75 | 257 | 9.6 | 18.2 | 0.00 | 0.14 | 0.14 | 43 | 1015.6 |
| 20260831151302 | 75 | 265 | 9.6 | 18.2 | 0.00 | 0.14 | 0.14 | 43 | 1015.6 |
| 20260831151218 | 75 | 254 | 8.7 | 15.6 | 0.00 | 0.14 | 0.14 | 43 | 1015.7 |
| 20260831151118 | 75 | 274 | 8.7 | 14.8 | 0.00 | 0.14 | 0.14 | 43 | 1015.7 |
| 20260831151011 | 75 | 299 | 8.7 | 13.9 | 0.00 | 0.14 | 0.14 | 44 | 1015.5 |
| 20260831150911 | 75 | 257 | 8.7 | 13.9 | 0.00 | 0.14 | 0.14 | 43 | 1015.6 |
| 20260831150811 | 75 | 257 | 8.7 | 15.6 | 0.00 | 0.14 | 0.14 | 43 | 1015.6 |
| 20260831150801 | 75 | 273 | 8.7 | 15.6 | 0.00 | 0.14 | 0.14 | 43 | 1015.6 |
| 20260831150712 | 75 | 269 | 8.7 | 15.6 | 0.00 | 0.14 | 0.14 | 43 | 1015.6 |
| 20260831150612 | 75 | 244 | 9.6 | 15.6 | 0.00 | 0.14 | 0.14 | 44 | 1015.5 |
| 20260831150512 | 75 | 244 | 9.6 | 15.6 | 0.00 | 0.14 | 0.14 | 44 | 1015.5 |
| 20260831150412 | 75 | 264 | 9.6 | 15.6 | 0.00 | 0.14 | 0.14 | 42 | 1015.5 |
| 20260831150312 | 75 | 259 | 9.6 | 15.6 | 0.00 | 0.14 | 0.14 | 43 | 1015.5 |
| 20260831150301 | 75 | 276 | 9.6 | 15.6 | 0.00 | 0.14 | 0.14 | 43 | 1015.5 |
| 20260831150212 | 75 | 252 | 8.7 | 15.6 | 0.00 | 0.14 | 0.14 | 42 | 1015.5 |
| 20260831150112 | 75 | 259 | 8.7 | 15.6 | 0.00 | 0.14 | 0.14 | 42 | 1015.5 |
| 20260831150029 | 75 | 252 | 8.7 | 15.6 | 0.00 | 0.14 | 0.14 | 41 | 1015.6 |
| 20260831150025 | 75 | 240 | 8.7 | 15.6 | 0.00 | 0.14 | 0.14 | 42 | 1015.6 |
| 20260831150021 | 75 | 263 | 8.7 | 15.6 | 0.00 | 0.14 | 0.14 | 42 | 1015.6 |
| 20260831150012 | 75 | 261 | 8.7 | 15.6 | 0.00 | 0.14 | 0.14 | 41 | 1015.6 |
| 20260831145708 | 75 | 202 | 8.7 | 15.6 | 0.00 | 0.14 | 0.14 | 41 | 1015.7 |
| 20260831145608 | 75 | 247 | 7.8 | 15.6 | 0.00 | 0.14 | 0.14 | 42 | 1015.8 |
| 20260831145507 | 76 | 248 | 7.8 | 15.6 | 0.00 | 0.14 | 0.14 | 42 | 1015.6 |
| 20260831145407 | 76 | 271 | 7.0 | 15.6 | 0.00 | 0.14 | 0.14 | 43 | 1015.7 |
| 20260831145307 | 76 | 277 | 7.0 | 15.6 | 0.00 | 0.14 | 0.14 | 45 | 1015.6 |
| 20260831145300 | 76 | 236 | 7.0 | 15.6 | 0.00 | 0.14 | 0.14 | 44 | 1015.6 |
| 20260831145207 | 76 | 272 | 7.0 | 15.6 | 0.00 | 0.14 | 0.14 | 44 | 1015.7 |
| 20260831145107 | 76 | 252 | 7.0 | 15.6 | 0.00 | 0.14 | 0.14 | 43 | 1015.7 |
| 20260831145008 | 76 | 274 | 7.8 | 15.6 | 0.00 | 0.14 | 0.14 | 44 | 1015.6 |
| 20260831144908 | 76 | 292 | 7.0 | 15.6 | 0.00 | 0.14 | 0.14 | 44 | 1015.7 |
| 20260831144808 | 76 | 261 | 7.0 | 13.0 | 0.00 | 0.14 | 0.14 | 46 | 1015.7 |
| 20260831144801 | 76 | 280 | 7.0 | 13.0 | 0.00 | 0.14 | 0.14 | 46 | 1015.7 |
| 20260831144708 | 76 | 242 | 7.0 | 13.0 | 0.00 | 0.14 | 0.14 | 45 | 1015.6 |
| 20260831144608 | 76 | 263 | 7.0 | 13.0 | 0.00 | 0.14 | 0.14 | 47 | 1015.6 |
| 20260831144530 | 76 | 273 | 7.8 | 13.0 | 0.00 | 0.14 | 0.14 | 46 | 1015.7 |
| 20260831144525 | 76 | 292 | 7.0 | 13.0 | 0.00 | 0.14 | 0.14 | 47 | 1015.6 |
| 20260831144521 | 76 | 279 | 7.8 | 13.0 | 0.00 | 0.14 | 0.14 | 47 | 1015.6 |
| 20260831144513 | 76 | 242 | 7.8 | 13.0 | 0.00 | 0.14 | 0.14 | 46 | 1015.7 |
| 20260831144207 | 76 | 288 | 7.8 | 13.0 | 0.00 | 0.14 | 0.14 | 46 | 1015.6 |
| 20260831144107 | 76 | 229 | 8.7 | 13.0 | 0.00 | 0.14 | 0.14 | 45 | 1015.6 |
| 20260831144008 | 76 | 248 | 8.7 | 13.0 | 0.00 | 0.14 | 0.14 | 46 | 1015.6 |
| 20260831143904 | 76 | 304 | 7.8 | 13.9 | 0.00 | 0.14 | 0.14 | 45 | 1015.6 |
| 20260831143805 | 76 | 288 | 7.8 | 13.9 | 0.00 | 0.14 | 0.14 | 46 | 1015.6 |
| 20260831143801 | 76 | 281 | 7.8 | 13.9 | 0.00 | 0.14 | 0.14 | 46 | 1015.6 |
| 20260831143704 | 76 | 294 | 8.7 | 13.9 | 0.00 | 0.14 | 0.14 | 46 | 1015.6 |
| 20260831143604 | 76 | 273 | 7.8 | 13.9 | 0.00 | 0.14 | 0.14 | 45 | 1015.7 |
| 20260831143503 | 76 | 227 | 8.7 | 13.9 | 0.00 | 0.14 | 0.14 | 44 | 1015.6 |
| 20260831143403 | 76 | 256 | 8.7 | 13.9 | 0.00 | 0.14 | 0.14 | 43 | 1015.6 |
| 20260831143306 | 76 | 231 | 8.7 | 13.9 | 0.00 | 0.14 | 0.14 | 44 | 1015.6 |
| 20260831143301 | 76 | 266 | 8.7 | 13.9 | 0.00 | 0.14 | 0.14 | 44 | 1015.6 |
| 20260831143203 | 77 | 261 | 8.7 | 13.9 | 0.00 | 0.14 | 0.14 | 44 | 1015.6 |
| 20260831143103 | 77 | 254 | 7.8 | 13.9 | 0.00 | 0.14 | 0.14 | 44 | 1015.7 |
| 20260831143003 | 77 | 254 | 7.8 | 13.9 | 0.00 | 0.14 | 0.14 | 44 | 1015.6 |
| 20260831142903 | 77 | 205 | 8.7 | 13.9 | 0.00 | 0.14 | 0.14 | 45 | 1015.7 |
| 20260831142805 | 77 | 280 | 7.8 | 13.9 | 0.00 | 0.14 | 0.14 | 45 | 1015.7 |
| 20260831142800 | 77 | 261 | 7.8 | 13.9 | 0.00 | 0.14 | 0.14 | 45 | 1015.7 |
| 20260831142703 | 77 | 215 | 7.8 | 13.9 | 0.00 | 0.14 | 0.14 | 45 | 1015.7 |
| 20260831142603 | 77 | 266 | 8.7 | 13.9 | 0.00 | 0.14 | 0.14 | 45 | 1015.7 |
| 20260831142503 | 76 | 261 | 7.8 | 13.9 | 0.00 | 0.14 | 0.14 | 46 | 1015.7 |
| 20260831142403 | 76 | 265 | 7.8 | 13.9 | 0.00 | 0.14 | 0.14 | 46 | 1015.7 |
| 20260831142306 | 76 | 336 | 7.8 | 13.0 | 0.00 | 0.14 | 0.14 | 45 | 1015.7 |
| 20260831142301 | 76 | 304 | 7.8 | 13.0 | 0.00 | 0.14 | 0.14 | 45 | 1015.7 |
| 20260831142203 | 76 | 284 | 7.8 | 13.0 | 0.00 | 0.14 | 0.14 | 46 | 1015.7 |
| 20260831142103 | 76 | 275 | 7.8 | 13.9 | 0.00 | 0.14 | 0.14 | 45 | 1015.7 |
| 20260831142003 | 76 | 275 | 7.8 | 13.9 | 0.00 | 0.14 | 0.14 | 45 | 1015.7 |
| 20260831141903 | 76 | 248 | 7.8 | 13.9 | 0.00 | 0.14 | 0.14 | 46 | 1015.7 |
| 20260831141805 | 76 | 218 | 7.8 | 13.9 | 0.00 | 0.14 | 0.14 | 46 | 1015.7 |
| 20260831141801 | 76 | 217 | 7.8 | 13.9 | 0.00 | 0.14 | 0.14 | 46 | 1015.7 |
| 20260831141704 | 76 | 281 | 7.8 | 13.9 | 0.00 | 0.14 | 0.14 | 46 | 1015.7 |
| 20260831141604 | 76 | 251 | 7.8 | 13.9 | 0.00 | 0.14 | 0.14 | 47 | 1015.7 |
| 20260831141502 | 76 | 260 | 7.8 | 13.9 | 0.00 | 0.14 | 0.14 | 47 | 1015.7 |
| 20260831141402 | 76 | 236 | 7.8 | 13.9 | 0.00 | 0.14 | 0.14 | 46 | 1015.7 |
| 20260831141303 | 76 | 296 | 7.8 | 13.9 | 0.00 | 0.14 | 0.14 | 46 | 1015.6 |
| 20260831141201 | 76 | 288 | 7.0 | 15.6 | 0.00 | 0.14 | 0.14 | 47 | 1015.7 |
| 20260831141101 | 76 | 296 | 7.8 | 15.6 | 0.00 | 0.14 | 0.14 | 48 | 1015.7 |
| 20260831141001 | 76 | 321 | 7.8 | 15.6 | 0.00 | 0.14 | 0.14 | 48 | 1015.7 |
| 20260831140901 | 76 | 291 | 7.8 | 15.6 | 0.00 | 0.14 | 0.14 | 47 | 1015.7 |
| 20260831140801 | 76 | 275 | 7.8 | 15.6 | 0.00 | 0.14 | 0.14 | 48 | 1015.7 |
| 20260831140701 | 76 | 334 | 7.8 | 15.6 | 0.00 | 0.14 | 0.14 | 46 | 1015.7 |
| 20260831140601 | 76 | 261 | 7.0 | 15.6 | 0.00 | 0.14 | 0.14 | 47 | 1015.7 |
| 20260831140501 | 76 | 290 | 7.8 | 15.6 | 0.00 | 0.14 | 0.14 | 46 | 1015.7 |
| 20260831140401 | 76 | 277 | 7.8 | 15.6 | 0.00 | 0.14 | 0.14 | 46 | 1015.7 |
| 20260831140301 | 76 | 289 | 7.8 | 15.6 | 0.00 | 0.14 | 0.14 | 47 | 1015.7 |
| 20260831140201 | 76 | 245 | 7.8 | 12.2 | 0.00 | 0.14 | 0.14 | 47 | 1015.7 |
| 20260831140101 | 76 | 266 | 7.8 | 13.0 | 0.00 | 0.14 | 0.14 | 48 | 1015.7 |
| 20260831140001 | 76 | 264 | 7.8 | 13.0 | 0.00 | 0.14 | 0.14 | 47 | 1015.7 |
| 20260831135900 | 76 | 267 | 7.8 | 13.0 | 0.00 | 0.14 | 0.14 | 47 | 1015.7 |
| 20260831135800 | 76 | 259 | 7.8 | 13.0 | 0.00 | 0.14 | 0.14 | 48 | 1015.7 |
| 20260831135700 | 76 | 250 | 8.7 | 17.4 | 0.00 | 0.14 | 0.14 | 49 | 1015.6 |
| 20260831135600 | 76 | 221 | 8.7 | 17.4 | 0.00 | 0.14 | 0.14 | 47 | 1015.6 |
| 20260831135501 | 76 | 271 | 8.7 | 17.4 | 0.00 | 0.14 | 0.14 | 46 | 1015.6 |
| 20260831135401 | 76 | 294 | 8.7 | 17.4 | 0.00 | 0.14 | 0.14 | 46 | 1015.7 |
| 20260831135301 | 76 | 295 | 8.7 | 17.4 | 0.00 | 0.14 | 0.14 | 47 | 1015.6 |
| 20260831135201 | 76 | 294 | 8.7 | 17.4 | 0.00 | 0.14 | 0.14 | 47 | 1015.6 |
| 20260831135101 | 76 | 250 | 9.6 | 17.4 | 0.00 | 0.14 | 0.14 | 46 | 1015.6 |
| 20260831135001 | 76 | 257 | 9.6 | 17.4 | 0.00 | 0.14 | 0.14 | 46 | 1015.7 |
| 20260831134901 | 76 | 253 | 9.6 | 17.4 | 0.00 | 0.14 | 0.14 | 46 | 1015.6 |
| 20260831134801 | 76 | 291 | 9.6 | 17.4 | 0.00 | 0.14 | 0.14 | 47 | 1015.7 |
| 20260831134701 | 76 | 281 | 9.6 | 15.6 | 0.00 | 0.14 | 0.14 | 47 | 1015.7 |
| 20260831134601 | 76 | 242 | 9.6 | 15.6 | 0.00 | 0.14 | 0.14 | 47 | 1015.6 |
| 20260831134501 | 76 | 264 | 9.6 | 15.6 | 0.00 | 0.14 | 0.14 | 46 | 1015.6 |
| 20260831134402 | 76 | 280 | 9.6 | 15.6 | 0.00 | 0.14 | 0.14 | 47 | 1015.7 |
| 20260831134305 | 76 | 304 | 9.6 | 15.6 | 0.00 | 0.14 | 0.14 | 47 | 1015.8 |
| 20260831134202 | 76 | 274 | 9.6 | 16.5 | 0.00 | 0.14 | 0.14 | 46 | 1015.8 |
| 20260831134102 | 76 | 276 | 9.6 | 19.1 | 0.00 | 0.14 | 0.14 | 47 | 1015.8 |
| 20260831134001 | 76 | 261 | 9.6 | 19.1 | 0.00 | 0.14 | 0.14 | 48 | 1015.7 |
| 20260831133901 | 76 | 250 | 9.6 | 19.1 | 0.00 | 0.14 | 0.14 | 47 | 1015.8 |
| 20260831133802 | 76 | 256 | 9.6 | 19.1 | 0.00 | 0.14 | 0.14 | 47 | 1015.8 |
| 20260831133701 | 76 | 290 | 8.7 | 19.1 | 0.00 | 0.14 | 0.14 | 48 | 1015.8 |
| 20260831133601 | 76 | 280 | 8.7 | 19.1 | 0.00 | 0.14 | 0.14 | 46 | 1015.8 |
| 20260831133501 | 76 | 223 | 8.7 | 19.1 | 0.00 | 0.14 | 0.14 | 46 | 1015.8 |
| 20260831133401 | 76 | 277 | 8.7 | 19.1 | 0.00 | 0.14 | 0.14 | 47 | 1015.8 |
| 20260831133301 | 76 | 233 | 8.7 | 19.1 | 0.00 | 0.14 | 0.14 | 46 | 1016.0 |
| 20260831133201 | 76 | 261 | 8.7 | 19.1 | 0.00 | 0.14 | 0.14 | 46 | 1016.2 |
| 20260831133101 | 76 | 269 | 7.8 | 14.8 | 0.00 | 0.14 | 0.14 | 47 | 1015.8 |
| 20260831133021 | 75 | 283 | 8.7 | 14.8 | 0.00 | 0.14 | 0.14 | 47 | 1015.8 |
| 20260831133017 | 75 | 243 | 8.7 | 17.4 | 0.00 | 0.14 | 0.14 | 46 | 1015.8 |
| 20260831133013 | 75 | 245 | 8.7 | 17.4 | 0.00 | 0.14 | 0.14 | 48 | 1015.8 |
| 20260831132701 | 75 | 267 | 9.6 | 17.4 | 0.00 | 0.14 | 0.14 | 48 | 1015.8 |
| 20260831132602 | 75 | 265 | 9.6 | 17.4 | 0.00 | 0.14 | 0.14 | 47 | 1015.8 |
| 20260831132501 | 75 | 262 | 9.6 | 17.4 | 0.00 | 0.14 | 0.14 | 48 | 1016.0 |
| 20260831132401 | 75 | 239 | 10.4 | 17.4 | 0.00 | 0.14 | 0.14 | 47 | 1016.0 |
| 20260831132301 | 75 | 250 | 10.4 | 17.4 | 0.00 | 0.14 | 0.14 | 47 | 1016.0 |
| 20260831132201 | 75 | 208 | 10.4 | 17.4 | 0.00 | 0.14 | 0.14 | 46 | 1015.8 |
| 20260831132101 | 75 | 281 | 10.4 | 17.4 | 0.00 | 0.14 | 0.14 | 46 | 1016.0 |
| 20260831132000 | 75 | 246 | 10.4 | 17.4 | 0.00 | 0.14 | 0.14 | 46 | 1016.0 |
| 20260831131900 | 75 | 284 | 10.4 | 16.5 | 0.00 | 0.14 | 0.14 | 45 | 1016.0 |
| 20260831131800 | 75 | 292 | 9.6 | 16.5 | 0.00 | 0.14 | 0.14 | 46 | 1016.1 |
| 20260831131700 | 75 | 243 | 9.6 | 15.6 | 0.00 | 0.14 | 0.14 | 46 | 1016.0 |
| 20260831131600 | 75 | 269 | 9.6 | 15.6 | 0.00 | 0.14 | 0.14 | 46 | 1015.8 |
| 20260831131501 | 75 | 236 | 9.6 | 15.6 | 0.00 | 0.14 | 0.14 | 45 | 1016.0 |
| 20260831131401 | 75 | 271 | 9.6 | 15.6 | 0.00 | 0.14 | 0.14 | 45 | 1016.0 |
| 20260831131301 | 75 | 268 | 8.7 | 15.6 | 0.00 | 0.14 | 0.14 | 47 | 1016.0 |
| 20260831131201 | 75 | 260 | 8.7 | 15.6 | 0.00 | 0.14 | 0.14 | 46 | 1016.0 |
| 20260831131101 | 75 | 221 | 8.7 | 13.9 | 0.00 | 0.14 | 0.14 | 47 | 1015.8 |
| 20260831131019 | 75 | 231 | 8.7 | 17.4 | 0.00 | 0.14 | 0.14 | 47 | 1016.0 |
| 20260831131015 | 75 | 236 | 9.6 | 17.4 | 0.00 | 0.14 | 0.14 | 46 | 1016.0 |
| 20260831131011 | 75 | 242 | 9.6 | 17.4 | 0.00 | 0.14 | 0.14 | 46 | 1016.0 |
| 20260831130702 | 75 | 254 | 9.6 | 17.4 | 0.00 | 0.14 | 0.14 | 45 | 1016.0 |
| 20260831130601 | 75 | 286 | 9.6 | 17.4 | 0.00 | 0.14 | 0.14 | 46 | 1016.1 |
| 20260831130501 | 75 | 283 | 9.6 | 17.4 | 0.00 | 0.14 | 0.14 | 46 | 1016.0 |
| 20260831130401 | 75 | 265 | 9.6 | 17.4 | 0.00 | 0.14 | 0.14 | 45 | 1015.8 |
| 20260831130301 | 74 | 253 | 9.6 | 17.4 | 0.00 | 0.14 | 0.14 | 45 | 1016.0 |
| 20260831130231 | 74 | 267 | 9.6 | 17.4 | 0.00 | 0.14 | 0.14 | 46 | 1016.0 |
| 20260831130101 | 74 | 254 | 8.7 | 17.4 | 0.00 | 0.14 | 0.14 | 46 | 1016.1 |
| 20260831130021 | 74 | 270 | 8.7 | 17.4 | 0.00 | 0.14 | 0.14 | 46 | 1016.0 |
| 20260831130017 | 74 | 267 | 8.7 | 17.4 | 0.00 | 0.14 | 0.14 | 45 | 1016.1 |
| 20260831130013 | 74 | 257 | 7.8 | 17.4 | 0.00 | 0.14 | 0.14 | 46 | 1015.8 |
| 20260831125701 | 74 | 255 | 7.8 | 17.4 | 0.00 | 0.14 | 0.14 | 48 | 1016.0 |
| 20260831125601 | 74 | 261 | 7.8 | 17.4 | 0.00 | 0.14 | 0.14 | 46 | 1016.0 |
| 20260831125501 | 74 | 257 | 7.0 | 17.4 | 0.00 | 0.14 | 0.14 | 48 | 1016.0 |
| 20260831125400 | 74 | 267 | 7.8 | 13.0 | 0.00 | 0.14 | 0.14 | 49 | 1016.0 |
| 20260831125301 | 74 | 269 | 7.0 | 13.0 | 0.00 | 0.14 | 0.14 | 48 | 1016.0 |
| 20260831125200 | 74 | 316 | 7.8 | 13.0 | 0.00 | 0.14 | 0.14 | 48 | 1015.8 |
| 20260831125102 | 74 | 279 | 7.8 | 17.4 | 0.00 | 0.14 | 0.14 | 49 | 1016.0 |
| 20260831125001 | 74 | 265 | 7.8 | 17.4 | 0.00 | 0.14 | 0.14 | 48 | 1016.0 |
| 20260831124901 | 74 | 276 | 7.8 | 17.4 | 0.00 | 0.14 | 0.14 | 49 | 1016.0 |
| 20260831124800 | 74 | 219 | 7.8 | 17.4 | 0.00 | 0.14 | 0.14 | 49 | 1016.1 |
| 20260831124701 | 75 | 291 | 8.7 | 17.4 | 0.00 | 0.14 | 0.14 | 49 | 1016.0 |
| 20260831124601 | 75 | 239 | 8.7 | 17.4 | 0.00 | 0.14 | 0.14 | 48 | 1016.0 |
| 20260831124501 | 75 | 213 | 8.7 | 17.4 | 0.00 | 0.14 | 0.14 | 49 | 1016.0 |
| 20260831124401 | 75 | 254 | 8.7 | 17.4 | 0.00 | 0.14 | 0.14 | 49 | 1016.0 |
| 20260831124301 | 75 | 236 | 8.7 | 17.4 | 0.00 | 0.14 | 0.14 | 49 | 1016.0 |
| 20260831124202 | 75 | 271 | 8.7 | 17.4 | 0.00 | 0.14 | 0.14 | 50 | 1016.1 |
| 20260831124103 | 74 | 300 | 8.7 | 14.8 | 0.00 | 0.14 | 0.14 | 51 | 1016.0 |
| 20260831124001 | 74 | 240 | 8.7 | 14.8 | 0.00 | 0.14 | 0.14 | 51 | 1016.1 |
| 20260831123901 | 74 | 266 | 8.7 | 14.8 | 0.00 | 0.14 | 0.14 | 50 | 1016.0 |
| 20260831123801 | 74 | 260 | 8.7 | 14.8 | 0.00 | 0.14 | 0.14 | 48 | 1016.0 |
| 20260831123701 | 74 | 271 | 7.8 | 14.8 | 0.00 | 0.14 | 0.14 | 50 | 1016.1 |
| 20260831123601 | 74 | 214 | 7.8 | 14.8 | 0.00 | 0.14 | 0.14 | 51 | 1016.0 |
| 20260831123501 | 74 | 221 | 7.8 | 14.8 | 0.00 | 0.14 | 0.14 | 52 | 1016.0 |
| 20260831123401 | 74 | 241 | 7.8 | 19.1 | 0.00 | 0.14 | 0.14 | 50 | 1016.0 |
| 20260831123301 | 74 | 279 | 7.8 | 19.1 | 0.00 | 0.14 | 0.14 | 50 | 1016.0 |
| 20260831123201 | 74 | 231 | 7.8 | 19.1 | 0.00 | 0.14 | 0.14 | 51 | 1016.0 |
| 20260831123101 | 74 | 278 | 7.0 | 19.1 | 0.00 | 0.14 | 0.14 | 51 | 1016.1 |
| 20260831123001 | 74 | 218 | 7.8 | 19.1 | 0.00 | 0.14 | 0.14 | 53 | 1016.1 |
| 20260831122900 | 74 | 244 | 7.8 | 19.1 | 0.00 | 0.14 | 0.14 | 54 | 1016.0 |
| 20260831122802 | 74 | 293 | 7.8 | 19.1 | 0.00 | 0.14 | 0.14 | 52 | 1016.0 |
| 20260831122701 | 74 | 306 | 8.7 | 19.1 | 0.00 | 0.14 | 0.14 | 52 | 1016.1 |
| 20260831122601 | 74 | 232 | 8.7 | 19.1 | 0.00 | 0.14 | 0.14 | 52 | 1016.0 |
| 20260831122501 | 74 | 295 | 8.7 | 19.1 | 0.00 | 0.14 | 0.14 | 53 | 1016.0 |
| 20260831122401 | 74 | 213 | 9.6 | 19.1 | 0.00 | 0.14 | 0.14 | 53 | 1016.0 |
| 20260831122301 | 74 | 227 | 9.6 | 19.1 | 0.00 | 0.14 | 0.14 | 53 | 1016.0 |
| 20260831122201 | 74 | 252 | 9.6 | 19.1 | 0.00 | 0.14 | 0.14 | 52 | 1016.1 |
| 20260831122100 | 74 | 233 | 9.6 | 19.1 | 0.00 | 0.14 | 0.14 | 51 | 1016.1 |
| 20260831122000 | 74 | 212 | 9.6 | 19.1 | 0.00 | 0.14 | 0.14 | 52 | 1016.2 |
| 20260831121900 | 74 | 252 | 9.6 | 19.1 | 0.00 | 0.14 | 0.14 | 51 | 1016.1 |
| 20260831121800 | 74 | 246 | 9.6 | 19.1 | 0.00 | 0.14 | 0.14 | 51 | 1016.1 |
| 20260831121700 | 74 | 233 | 9.6 | 19.1 | 0.00 | 0.14 | 0.14 | 50 | 1016.1 |
| 20260831121600 | 74 | 242 | 9.6 | 19.1 | 0.00 | 0.14 | 0.14 | 50 | 1016.3 |
| 20260831121501 | 74 | 210 | 9.6 | 19.1 | 0.00 | 0.14 | 0.14 | 50 | 1016.2 |
| 20260831121401 | 74 | 248 | 9.6 | 18.2 | 0.00 | 0.14 | 0.14 | 49 | 1016.2 |
| 20260831121302 | 74 | 271 | 9.6 | 18.2 | 0.00 | 0.14 | 0.14 | 50 | 1016.2 |
| 20260831121201 | 74 | 263 | 9.6 | 18.2 | 0.00 | 0.14 | 0.14 | 51 | 1016.0 |
| 20260831121101 | 74 | 292 | 9.6 | 18.2 | 0.00 | 0.14 | 0.14 | 50 | 1016.1 |
| 20260831121002 | 74 | 269 | 9.6 | 18.2 | 0.00 | 0.14 | 0.14 | 51 | 1016.1 |
| 20260831120901 | 74 | 252 | 9.6 | 19.1 | 0.00 | 0.14 | 0.14 | 52 | 1016.1 |
| 20260831120801 | 74 | 242 | 10.4 | 19.1 | 0.00 | 0.14 | 0.14 | 52 | 1016.0 |
| 20260831120701 | 74 | 178 | 10.4 | 19.1 | 0.00 | 0.14 | 0.14 | 52 | 1016.0 |
| 20260831120601 | 74 | 279 | 10.4 | 19.1 | 0.00 | 0.14 | 0.14 | 52 | 1016.2 |
| 20260831120501 | 74 | 263 | 10.4 | 19.1 | 0.00 | 0.14 | 0.14 | 53 | 1016.1 |
| 20260831120401 | 73 | 268 | 10.4 | 19.1 | 0.00 | 0.14 | 0.14 | 52 | 1016.1 |
| 20260831120301 | 73 | 265 | 9.6 | 19.1 | 0.00 | 0.14 | 0.14 | 53 | 1016.1 |
| 20260831120201 | 73 | 240 | 9.6 | 19.1 | 0.00 | 0.14 | 0.14 | 51 | 1016.1 |
| 20260831120100 | 73 | 242 | 9.6 | 19.1 | 0.00 | 0.14 | 0.14 | 50 | 1016.1 |
| 20260831120000 | 73 | 261 | 8.7 | 19.1 | 0.00 | 0.14 | 0.14 | 52 | 1016.2 |
| 20260831115900 | 73 | 279 | 8.7 | 15.6 | 0.00 | 0.14 | 0.14 | 51 | 1016.2 |
| 20260831115801 | 73 | 209 | 8.7 | 15.6 | 0.00 | 0.14 | 0.14 | 55 | 1016.3 |
| 20260831115700 | 73 | 279 | 8.7 | 15.6 | 0.00 | 0.14 | 0.14 | 55 | 1016.2 |
| 20260831115601 | 73 | 208 | 8.7 | 15.6 | 0.00 | 0.14 | 0.14 | 54 | 1016.2 |
| 20260831115501 | 73 | 254 | 8.7 | 15.6 | 0.00 | 0.14 | 0.14 | 54 | 1016.2 |
| 20260831115401 | 73 | 225 | 8.7 | 15.6 | 0.00 | 0.14 | 0.14 | 54 | 1016.2 |
| 20260831115301 | 73 | 229 | 8.7 | 15.6 | 0.00 | 0.14 | 0.14 | 56 | 1016.2 |
| 20260831115201 | 73 | 238 | 8.7 | 15.6 | 0.00 | 0.14 | 0.14 | 55 | 1016.2 |
| 20260831115101 | 73 | 277 | 8.7 | 15.6 | 0.00 | 0.14 | 0.14 | 54 | 1016.2 |
| 20260831115001 | 73 | 226 | 8.7 | 15.6 | 0.00 | 0.14 | 0.14 | 55 | 1016.2 |
| 20260831114901 | 73 | 228 | 8.7 | 15.6 | 0.00 | 0.14 | 0.14 | 53 | 1016.3 |
| 20260831114800 | 73 | 277 | 8.7 | 15.6 | 0.00 | 0.14 | 0.14 | 53 | 1016.3 |
| 20260831114700 | 73 | 269 | 7.8 | 15.6 | 0.00 | 0.14 | 0.14 | 55 | 1016.4 |
| 20260831114600 | 73 | 287 | 7.8 | 14.8 | 0.00 | 0.14 | 0.14 | 54 | 1016.3 |
| 20260831114522 | 73 | 277 | 7.8 | 14.8 | 0.00 | 0.14 | 0.14 | 56 | 1016.3 |
| 20260831114518 | 73 | 268 | 7.8 | 13.0 | 0.00 | 0.14 | 0.14 | 56 | 1016.3 |
| 20260831114514 | 73 | 283 | 7.8 | 13.0 | 0.00 | 0.14 | 0.14 | 58 | 1016.3 |
| 20260831114202 | 73 | 255 | 7.8 | 13.0 | 0.00 | 0.14 | 0.14 | 57 | 1016.3 |
| 20260831114101 | 73 | 292 | 7.8 | 16.5 | 0.00 | 0.14 | 0.14 | 57 | 1016.3 |
| 20260831114001 | 73 | 290 | 8.7 | 16.5 | 0.00 | 0.14 | 0.14 | 59 | 1016.3 |
| 20260831113901 | 73 | 296 | 8.7 | 16.5 | 0.00 | 0.14 | 0.14 | 58 | 1016.3 |
| 20260831113801 | 73 | 288 | 8.7 | 16.5 | 0.00 | 0.14 | 0.14 | 57 | 1016.3 |
| 20260831113701 | 73 | 257 | 9.6 | 16.5 | 0.00 | 0.14 | 0.14 | 58 | 1016.4 |
| 20260831113601 | 73 | 235 | 9.6 | 20.0 | 0.00 | 0.14 | 0.14 | 57 | 1016.4 |
| 20260831113501 | 73 | 235 | 10.4 | 20.0 | 0.00 | 0.14 | 0.14 | 57 | 1016.4 |
| 20260831113401 | 73 | 242 | 10.4 | 20.0 | 0.00 | 0.14 | 0.14 | 58 | 1016.4 |
| 20260831113301 | 73 | 252 | 10.4 | 20.0 | 0.00 | 0.14 | 0.14 | 57 | 1016.4 |
| 20260831113205 | 73 | 238 | 11.3 | 20.0 | 0.00 | 0.14 | 0.14 | 59 | 1016.5 |
| 20260831113101 | 72 | 231 | 11.3 | 20.0 | 0.00 | 0.14 | 0.14 | 58 | 1016.4 |
| 20260831113001 | 73 | 275 | 11.3 | 20.0 | 0.00 | 0.14 | 0.14 | 57 | 1016.4 |
| 20260831112901 | 73 | 250 | 11.3 | 20.0 | 0.00 | 0.14 | 0.14 | 57 | 1016.4 |
| 20260831112800 | 73 | 269 | 10.4 | 20.0 | 0.00 | 0.14 | 0.14 | 55 | 1016.4 |
| 20260831112703 | 73 | 278 | 10.4 | 20.0 | 0.00 | 0.14 | 0.14 | 55 | 1016.4 |
| 20260831112601 | 73 | 285 | 9.6 | 19.1 | 0.00 | 0.14 | 0.14 | 57 | 1016.4 |
| 20260831112500 | 73 | 265 | 9.6 | 19.1 | 0.00 | 0.14 | 0.14 | 56 | 1016.4 |
| 20260831112400 | 73 | 225 | 9.6 | 19.1 | 0.00 | 0.14 | 0.14 | 56 | 1016.4 |
| 20260831112300 | 73 | 252 | 8.7 | 19.1 | 0.00 | 0.14 | 0.14 | 57 | 1016.5 |
| 20260831112201 | 73 | 246 | 8.7 | 19.1 | 0.00 | 0.14 | 0.14 | 60 | 1016.4 |
| 20260831112100 | 73 | 207 | 7.8 | 17.4 | 0.00 | 0.14 | 0.14 | 59 | 1016.4 |
| 20260831112000 | 73 | 253 | 7.8 | 17.4 | 0.00 | 0.14 | 0.14 | 60 | 1016.3 |
| 20260831111900 | 73 | 248 | 8.7 | 17.4 | 0.00 | 0.14 | 0.14 | 60 | 1016.4 |
| 20260831111801 | 73 | 236 | 8.7 | 17.4 | 0.00 | 0.14 | 0.14 | 60 | 1016.3 |
| 20260831111701 | 73 | 244 | 7.8 | 17.4 | 0.00 | 0.14 | 0.14 | 59 | 1016.3 |
| 20260831111600 | 73 | 262 | 7.8 | 17.4 | 0.00 | 0.14 | 0.14 | 60 | 1016.4 |
| 20260831111501 | 73 | 257 | 7.8 | 17.4 | 0.00 | 0.14 | 0.14 | 59 | 1016.4 |
| 20260831111401 | 73 | 222 | 7.8 | 15.6 | 0.00 | 0.14 | 0.14 | 62 | 1016.4 |
| 20260831111302 | 72 | 292 | 7.8 | 15.6 | 0.00 | 0.14 | 0.14 | 62 | 1016.4 |
| 20260831111201 | 72 | 229 | 7.8 | 15.6 | 0.00 | 0.14 | 0.14 | 62 | 1016.3 |
| 20260831111101 | 72 | 200 | 7.8 | 15.6 | 0.00 | 0.14 | 0.14 | 62 | 1016.4 |
| 20260831111001 | 72 | 219 | 7.8 | 15.6 | 0.00 | 0.14 | 0.14 | 63 | 1016.4 |
| 20260831110901 | 72 | 279 | 7.0 | 15.6 | 0.00 | 0.14 | 0.14 | 65 | 1016.4 |
| 20260831110801 | 72 | 238 | 7.0 | 13.0 | 0.00 | 0.14 | 0.14 | 64 | 1016.4 |
| 20260831110701 | 72 | 278 | 7.0 | 13.0 | 0.00 | 0.14 | 0.14 | 63 | 1016.3 |
| 20260831110601 | 72 | 248 | 7.0 | 13.0 | 0.00 | 0.14 | 0.14 | 65 | 1016.4 |
| 20260831110501 | 72 | 255 | 7.0 | 13.0 | 0.00 | 0.14 | 0.14 | 65 | 1016.4 |
| 20260831110401 | 72 | 260 | 7.0 | 14.8 | 0.00 | 0.14 | 0.14 | 64 | 1016.3 |
| 20260831110301 | 72 | 252 | 7.0 | 14.8 | 0.00 | 0.14 | 0.14 | 63 | 1016.3 |
| 20260831110253 | 72 | 205 | 7.0 | 14.8 | 0.00 | 0.14 | 0.14 | 65 | 1016.3 |
| 20260831110245 | 72 | 213 | 7.0 | 14.8 | 0.00 | 0.14 | 0.14 | 64 | 1016.4 |
| 20260831110238 | 72 | 247 | 7.0 | 14.8 | 0.00 | 0.14 | 0.14 | 64 | 1016.3 |
| 20260831110020 | 72 | 232 | 7.0 | 14.8 | 0.00 | 0.14 | 0.14 | 65 | 1016.4 |
| 20260831110016 | 72 | 215 | 7.0 | 14.8 | 0.00 | 0.14 | 0.14 | 64 | 1016.3 |
| 20260831110012 | 72 | 205 | 7.0 | 14.8 | 0.00 | 0.14 | 0.14 | 65 | 1016.3 |
| 20260831105701 | 72 | 309 | 7.8 | 14.8 | 0.00 | 0.14 | 0.14 | 65 | 1016.3 |
| 20260831105600 | 72 | 242 | 7.8 | 14.8 | 0.00 | 0.14 | 0.14 | 65 | 1016.4 |
| 20260831105519 | 72 | 263 | 7.8 | 14.8 | 0.00 | 0.14 | 0.14 | 65 | 1016.3 |
| 20260831105515 | 72 | 234 | 7.8 | 13.0 | 0.00 | 0.14 | 0.14 | 65 | 1016.3 |
| 20260831105511 | 72 | 200 | 7.8 | 13.0 | 0.00 | 0.14 | 0.14 | 65 | 1016.3 |
| 20260831105251 | 71 | 187 | 7.8 | 14.8 | 0.00 | 0.14 | 0.14 | 65 | 1016.3 |
| 20260831105246 | 71 | 236 | 7.8 | 13.0 | 0.00 | 0.14 | 0.14 | 65 | 1016.4 |
| 20260831105238 | 71 | 269 | 7.8 | 13.0 | 0.00 | 0.14 | 0.14 | 65 | 1016.4 |
| 20260831105020 | 71 | 229 | 7.8 | 14.8 | 0.00 | 0.14 | 0.14 | 65 | 1016.3 |
| 20260831105016 | 71 | 238 | 7.8 | 14.8 | 0.00 | 0.14 | 0.14 | 65 | 1016.4 |
| 20260831105012 | 71 | 187 | 7.8 | 14.8 | 0.00 | 0.14 | 0.14 | 65 | 1016.3 |
| 20260831104749 | 71 | 227 | 7.8 | 14.8 | 0.00 | 0.14 | 0.14 | 65 | 1016.3 |
| 20260831104744 | 71 | 232 | 7.8 | 14.8 | 0.00 | 0.14 | 0.14 | 64 | 1016.3 |
| 20260831104736 | 71 | 226 | 7.0 | 14.8 | 0.00 | 0.14 | 0.14 | 64 | 1016.3 |
| 20260831104519 | 71 | 194 | 7.0 | 14.8 | 0.00 | 0.14 | 0.14 | 64 | 1016.3 |
| 20260831104515 | 71 | 236 | 7.8 | 14.8 | 0.00 | 0.14 | 0.14 | 65 | 1016.3 |
| 20260831104511 | 71 | 227 | 7.8 | 14.8 | 0.00 | 0.14 | 0.14 | 65 | 1016.3 |
| 20260831104201 | 71 | 273 | 7.8 | 14.8 | 0.00 | 0.14 | 0.14 | 65 | 1016.4 |
| 20260831104101 | 71 | 273 | 7.8 | 14.8 | 0.00 | 0.14 | 0.14 | 65 | 1016.3 |
| 20260831104001 | 71 | 251 | 7.8 | 13.9 | 0.00 | 0.14 | 0.14 | 66 | 1016.4 |
| 20260831103901 | 71 | 283 | 7.8 | 14.8 | 0.00 | 0.14 | 0.14 | 65 | 1016.4 |
| 20260831103801 | 71 | 257 | 8.7 | 14.8 | 0.00 | 0.14 | 0.14 | 66 | 1016.3 |
| 20260831103701 | 71 | 247 | 8.7 | 14.8 | 0.00 | 0.14 | 0.14 | 65 | 1016.4 |
| 20260831103601 | 71 | 256 | 8.7 | 14.8 | 0.00 | 0.14 | 0.14 | 64 | 1016.4 |
| 20260831103521 | 71 | 229 | 9.6 | 14.8 | 0.00 | 0.14 | 0.14 | 65 | 1016.5 |
| 20260831103517 | 71 | 230 | 8.7 | 15.6 | 0.00 | 0.14 | 0.14 | 66 | 1016.5 |
| 20260831103513 | 71 | 246 | 8.7 | 15.6 | 0.00 | 0.14 | 0.14 | 65 | 1016.4 |
| 20260831103201 | 71 | 266 | 9.6 | 16.5 | 0.00 | 0.14 | 0.14 | 65 | 1016.5 |
| 20260831103101 | 71 | 256 | 9.6 | 16.5 | 0.00 | 0.14 | 0.14 | 64 | 1016.5 |
| 20260831103020 | 71 | 261 | 8.7 | 16.5 | 0.00 | 0.14 | 0.14 | 65 | 1016.6 |
| 20260831103016 | 71 | 207 | 8.7 | 16.5 | 0.00 | 0.14 | 0.14 | 64 | 1016.6 |
| 20260831103012 | 71 | 250 | 8.7 | 16.5 | 0.00 | 0.14 | 0.14 | 64 | 1016.5 |
| 20260831102700 | 71 | 212 | 8.7 | 16.5 | 0.00 | 0.14 | 0.14 | 65 | 1016.5 |
| 20260831102601 | 71 | 235 | 8.7 | 16.5 | 0.00 | 0.14 | 0.14 | 65 | 1016.5 |
| 20260831102500 | 71 | 225 | 8.7 | 16.5 | 0.00 | 0.14 | 0.14 | 65 | 1016.5 |
| 20260831102400 | 70 | 202 | 8.7 | 17.4 | 0.00 | 0.14 | 0.14 | 65 | 1016.5 |
| 20260831102301 | 70 | 212 | 8.7 | 17.4 | 0.00 | 0.14 | 0.14 | 66 | 1016.4 |
| 20260831102201 | 70 | 230 | 7.8 | 17.4 | 0.00 | 0.14 | 0.14 | 66 | 1016.5 |
| 20260831102101 | 70 | 270 | 7.8 | 17.4 | 0.00 | 0.14 | 0.14 | 66 | 1016.5 |
| 20260831102000 | 70 | 269 | 7.8 | 17.4 | 0.00 | 0.14 | 0.14 | 65 | 1016.4 |
| 20260831101900 | 70 | 276 | 8.7 | 17.4 | 0.00 | 0.14 | 0.14 | 67 | 1016.5 |
| 20260831101801 | 70 | 264 | 8.7 | 17.4 | 0.00 | 0.14 | 0.14 | 67 | 1016.4 |
| 20260831101701 | 70 | 288 | 8.7 | 17.4 | 0.00 | 0.14 | 0.14 | 66 | 1016.5 |
| 20260831101601 | 70 | 275 | 8.7 | 17.4 | 0.00 | 0.14 | 0.14 | 67 | 1016.5 |
| 20260831101500 | 70 | 219 | 9.6 | 17.4 | 0.00 | 0.14 | 0.14 | 66 | 1016.5 |
| 20260831101400 | 70 | 242 | 9.6 | 17.4 | 0.00 | 0.14 | 0.14 | 66 | 1016.6 |
| 20260831101301 | 70 | 276 | 9.6 | 18.2 | 0.00 | 0.14 | 0.14 | 66 | 1016.5 |
| 20260831101201 | 70 | 250 | 9.6 | 18.2 | 0.00 | 0.14 | 0.14 | 67 | 1016.6 |
| 20260831101101 | 70 | 252 | 10.4 | 18.2 | 0.00 | 0.14 | 0.14 | 67 | 1016.6 |
| 20260831101001 | 70 | 261 | 10.4 | 18.2 | 0.00 | 0.14 | 0.14 | 67 | 1016.6 |
| 20260831100901 | 70 | 271 | 10.4 | 18.2 | 0.00 | 0.14 | 0.14 | 66 | 1016.6 |
| 20260831100801 | 69 | 208 | 11.3 | 18.2 | 0.00 | 0.14 | 0.14 | 66 | 1016.6 |
| 20260831100701 | 69 | 228 | 11.3 | 18.2 | 0.00 | 0.14 | 0.14 | 66 | 1016.6 |
| 20260831100605 | 70 | 246 | 11.3 | 18.2 | 0.00 | 0.14 | 0.14 | 65 | 1016.7 |
| 20260831100501 | 70 | 265 | 10.4 | 18.2 | 0.00 | 0.14 | 0.14 | 66 | 1016.8 |
| 20260831100401 | 70 | 267 | 10.4 | 18.2 | 0.00 | 0.14 | 0.14 | 67 | 1016.5 |
| 20260831100302 | 70 | 278 | 11.3 | 17.4 | 0.00 | 0.14 | 0.14 | 66 | 1016.6 |
| 20260831100201 | 70 | 292 | 11.3 | 17.4 | 0.00 | 0.14 | 0.14 | 66 | 1016.6 |
| 20260831100103 | 70 | 274 | 11.3 | 17.4 | 0.00 | 0.14 | 0.14 | 65 | 1016.8 |
| 20260831100000 | 70 | 279 | 10.4 | 17.4 | 0.00 | 0.14 | 0.14 | 66 | 1016.6 |
| 20260831095901 | 70 | 275 | 10.4 | 17.4 | 0.00 | 0.14 | 0.14 | 66 | 1016.6 |
| 20260831095801 | 70 | 259 | 10.4 | 17.4 | 0.00 | 0.14 | 0.14 | 66 | 1017.0 |
| 20260831095701 | 70 | 256 | 10.4 | 17.4 | 0.00 | 0.14 | 0.14 | 66 | 1016.6 |
| 20260831095601 | 70 | 268 | 9.6 | 17.4 | 0.00 | 0.14 | 0.14 | 66 | 1016.6 |
| 20260831095501 | 70 | 284 | 9.6 | 17.4 | 0.00 | 0.14 | 0.14 | 66 | 1016.8 |
| 20260831095401 | 70 | 286 | 8.7 | 17.4 | 0.00 | 0.14 | 0.14 | 66 | 1016.8 |
| 20260831095300 | 70 | 265 | 8.7 | 17.4 | 0.00 | 0.14 | 0.14 | 66 | 1016.8 |
| 20260831095200 | 70 | 259 | 7.8 | 17.4 | 0.00 | 0.14 | 0.14 | 67 | 1016.7 |
| 20260831095100 | 70 | 248 | 7.0 | 14.8 | 0.00 | 0.14 | 0.14 | 67 | 1016.6 |
| 20260831095000 | 70 | 238 | 7.0 | 13.9 | 0.00 | 0.14 | 0.14 | 67 | 1016.6 |
| 20260831094900 | 70 | 271 | 7.0 | 13.9 | 0.00 | 0.14 | 0.14 | 67 | 1016.6 |
| 20260831094801 | 70 | 271 | 7.0 | 13.9 | 0.00 | 0.14 | 0.14 | 67 | 1016.7 |
| 20260831094701 | 70 | 297 | 7.0 | 13.9 | 0.00 | 0.14 | 0.14 | 68 | 1016.6 |
| 20260831094601 | 70 | 282 | 6.1 | 13.0 | 0.00 | 0.14 | 0.14 | 69 | 1016.6 |
| 20260831094501 | 70 | 298 | 7.0 | 12.2 | 0.00 | 0.14 | 0.14 | 69 | 1016.5 |
| 20260831094401 | 70 | 265 | 7.0 | 12.2 | 0.00 | 0.14 | 0.14 | 69 | 1016.5 |
| 20260831094301 | 70 | 246 | 7.0 | 12.2 | 0.00 | 0.14 | 0.14 | 70 | 1016.5 |
| 20260831094201 | 70 | 221 | 7.8 | 13.0 | 0.00 | 0.14 | 0.14 | 69 | 1016.5 |
| 20260831094102 | 70 | 286 | 7.8 | 13.0 | 0.00 | 0.14 | 0.14 | 69 | 1016.6 |
| 20260831094001 | 70 | 277 | 7.8 | 13.0 | 0.00 | 0.14 | 0.14 | 70 | 1016.5 |
| 20260831093901 | 70 | 281 | 7.8 | 13.0 | 0.00 | 0.14 | 0.14 | 70 | 1016.5 |
| 20260831093800 | 70 | 319 | 8.7 | 13.9 | 0.00 | 0.14 | 0.14 | 69 | 1016.5 |
| 20260831093700 | 70 | 272 | 8.7 | 13.9 | 0.00 | 0.14 | 0.14 | 70 | 1016.5 |
| 20260831093601 | 69 | 254 | 8.7 | 13.9 | 0.00 | 0.14 | 0.14 | 69 | 1016.5 |
| 20260831093521 | 69 | 264 | 8.7 | 13.9 | 0.00 | 0.14 | 0.14 | 69 | 1016.6 |
| 20260831093517 | 69 | 271 | 8.7 | 13.9 | 0.00 | 0.14 | 0.14 | 69 | 1016.6 |
| 20260831093513 | 69 | 262 | 8.7 | 13.9 | 0.00 | 0.14 | 0.14 | 70 | 1016.6 |
| 20260831093201 | 69 | 271 | 9.6 | 13.9 | 0.00 | 0.14 | 0.14 | 70 | 1016.7 |
| 20260831093101 | 69 | 238 | 9.6 | 13.9 | 0.00 | 0.14 | 0.14 | 71 | 1016.5 |
| 20260831093001 | 69 | 286 | 9.6 | 14.8 | 0.00 | 0.14 | 0.14 | 70 | 1016.7 |
| 20260831092901 | 69 | 264 | 9.6 | 14.8 | 0.00 | 0.14 | 0.14 | 71 | 1016.7 |
| 20260831092801 | 69 | 298 | 9.6 | 14.8 | 0.00 | 0.14 | 0.14 | 70 | 1016.6 |
| 20260831092701 | 69 | 263 | 9.6 | 14.8 | 0.00 | 0.14 | 0.14 | 71 | 1016.7 |
| 20260831092601 | 69 | 273 | 9.6 | 14.8 | 0.00 | 0.14 | 0.14 | 72 | 1016.6 |
| 20260831092501 | 69 | 259 | 8.7 | 14.8 | 0.00 | 0.14 | 0.14 | 72 | 1016.5 |
| 20260831092400 | 69 | 244 | 8.7 | 14.8 | 0.00 | 0.14 | 0.14 | 72 | 1016.6 |
| 20260831092300 | 69 | 246 | 8.7 | 14.8 | 0.00 | 0.14 | 0.14 | 72 | 1016.6 |
| 20260831092200 | 69 | 304 | 7.8 | 14.8 | 0.00 | 0.14 | 0.14 | 71 | 1016.7 |
| 20260831092100 | 69 | 236 | 7.8 | 14.8 | 0.00 | 0.14 | 0.14 | 72 | 1016.5 |
| 20260831092020 | 68 | 256 | 7.8 | 14.8 | 0.00 | 0.14 | 0.14 | 72 | 1016.6 |
| 20260831092016 | 68 | 277 | 7.0 | 14.8 | 0.00 | 0.14 | 0.14 | 72 | 1016.6 |
| 20260831092012 | 68 | 266 | 7.0 | 14.8 | 0.00 | 0.14 | 0.14 | 72 | 1016.6 |
| 20260831091701 | 68 | 248 | 7.0 | 14.8 | 0.00 | 0.14 | 0.14 | 73 | 1016.7 |
| 20260831091602 | 68 | 273 | 6.1 | 14.8 | 0.00 | 0.14 | 0.14 | 73 | 1016.5 |
| 20260831091502 | 68 | 238 | 6.1 | 14.8 | 0.00 | 0.14 | 0.14 | 73 | 1016.5 |
| 20260831091401 | 68 | 268 | 6.1 | 14.8 | 0.00 | 0.14 | 0.14 | 72 | 1016.5 |
| 20260831091302 | 68 | 277 | 6.1 | 14.8 | 0.00 | 0.14 | 0.14 | 74 | 1016.6 |
| 20260831091201 | 68 | 217 | 6.1 | 14.8 | 0.00 | 0.14 | 0.14 | 75 | 1016.6 |
| 20260831091100 | 68 | 239 | 6.1 | 13.9 | 0.00 | 0.14 | 0.14 | 76 | 1016.5 |
| 20260831091001 | 67 | 267 | 6.1 | 11.3 | 0.00 | 0.14 | 0.14 | 76 | 1016.6 |
| 20260831090901 | 67 | 302 | 6.1 | 11.3 | 0.00 | 0.14 | 0.14 | 75 | 1016.6 |
| 20260831090800 | 67 | 265 | 6.1 | 11.3 | 0.00 | 0.14 | 0.14 | 76 | 1016.5 |
| 20260831090700 | 67 | 293 | 6.1 | 11.3 | 0.00 | 0.14 | 0.14 | 75 | 1016.5 |
| 20260831090601 | 67 | 254 | 6.1 | 11.3 | 0.00 | 0.14 | 0.14 | 75 | 1016.6 |
| 20260831090501 | 67 | 275 | 6.1 | 11.3 | 0.00 | 0.14 | 0.14 | 75 | 1016.5 |
| 20260831090401 | 67 | 228 | 6.1 | 11.3 | 0.00 | 0.14 | 0.14 | 75 | 1016.6 |
| 20260831090301 | 67 | 250 | 6.1 | 11.3 | 0.00 | 0.14 | 0.14 | 75 | 1016.7 |
| 20260831090201 | 67 | 254 | 6.1 | 11.3 | 0.00 | 0.14 | 0.14 | 75 | 1016.6 |
| 20260831090101 | 67 | 265 | 6.1 | 9.6 | 0.00 | 0.14 | 0.14 | 75 | 1016.6 |
| 20260831090001 | 67 | 273 | 6.1 | 10.4 | 0.00 | 0.14 | 0.14 | 76 | 1016.6 |
| 20260831085901 | 67 | 245 | 6.1 | 10.4 | 0.00 | 0.14 | 0.14 | 76 | 1016.6 |
| 20260831085800 | 67 | 280 | 6.1 | 10.4 | 0.00 | 0.14 | 0.14 | 76 | 1016.6 |
| 20260831085700 | 67 | 256 | 7.0 | 11.3 | 0.00 | 0.14 | 0.14 | 76 | 1016.5 |
| 20260831085600 | 67 | 265 | 7.0 | 11.3 | 0.00 | 0.14 | 0.14 | 75 | 1016.6 |
| 20260831085500 | 67 | 256 | 7.0 | 12.2 | 0.00 | 0.14 | 0.14 | 76 | 1016.6 |
| 20260831085401 | 67 | 274 | 7.0 | 12.2 | 0.00 | 0.14 | 0.14 | 76 | 1016.5 |
| 20260831085301 | 67 | 277 | 7.0 | 12.2 | 0.00 | 0.14 | 0.14 | 75 | 1016.5 |
| 20260831085248 | 67 | 288 | 7.0 | 12.2 | 0.00 | 0.14 | 0.14 | 76 | 1016.5 |
| 20260831085245 | 67 | 257 | 7.8 | 12.2 | 0.00 | 0.14 | 0.14 | 75 | 1016.4 |
| 20260831085240 | 67 | 232 | 7.8 | 12.2 | 0.00 | 0.14 | 0.14 | 75 | 1016.5 |
| 20260831085020 | 67 | 240 | 7.0 | 12.2 | 0.00 | 0.14 | 0.14 | 76 | 1016.4 |
| 20260831085015 | 67 | 266 | 7.0 | 12.2 | 0.00 | 0.14 | 0.14 | 76 | 1016.6 |
| 20260831085011 | 67 | 288 | 7.0 | 12.2 | 0.00 | 0.14 | 0.14 | 76 | 1016.5 |
| 20260831084701 | 67 | 251 | 7.0 | 12.2 | 0.00 | 0.14 | 0.14 | 76 | 1016.5 |
| 20260831084601 | 67 | 269 | 6.1 | 12.2 | 0.00 | 0.14 | 0.14 | 77 | 1016.4 |
| 20260831084501 | 67 | 258 | 6.1 | 10.4 | 0.00 | 0.14 | 0.14 | 77 | 1016.5 |
| 20260831084401 | 67 | 267 | 6.1 | 10.4 | 0.00 | 0.14 | 0.14 | 77 | 1016.5 |
| 20260831084300 | 67 | 290 | 6.1 | 10.4 | 0.00 | 0.14 | 0.14 | 76 | 1016.5 |
| 20260831084202 | 67 | 233 | 5.2 | 10.4 | 0.00 | 0.14 | 0.14 | 77 | 1016.5 |
| 20260831084100 | 67 | 263 | 5.2 | 9.6 | 0.00 | 0.14 | 0.14 | 78 | 1016.4 |
| 20260831084001 | 67 | 256 | 5.2 | 9.6 | 0.00 | 0.14 | 0.14 | 78 | 1016.4 |
| 20260831083901 | 67 | 281 | 5.2 | 9.6 | 0.00 | 0.14 | 0.14 | 78 | 1016.4 |
| 20260831083801 | 67 | 263 | 6.1 | 9.6 | 0.00 | 0.14 | 0.14 | 78 | 1016.5 |
| 20260831083700 | 67 | 242 | 6.1 | 10.4 | 0.00 | 0.14 | 0.14 | 78 | 1016.4 |
| 20260831083600 | 67 | 258 | 6.1 | 10.4 | 0.00 | 0.14 | 0.14 | 78 | 1016.4 |
| 20260831083501 | 67 | 282 | 6.1 | 10.4 | 0.00 | 0.14 | 0.14 | 77 | 1016.4 |
| 20260831083400 | 67 | 236 | 6.1 | 10.4 | 0.00 | 0.14 | 0.14 | 78 | 1016.4 |
| 20260831083300 | 67 | 254 | 6.1 | 10.4 | 0.00 | 0.14 | 0.14 | 78 | 1016.4 |
| 20260831083201 | 67 | 251 | 6.1 | 10.4 | 0.00 | 0.14 | 0.14 | 78 | 1016.4 |
| 20260831083101 | 66 | 265 | 6.1 | 10.4 | 0.00 | 0.14 | 0.14 | 78 | 1016.3 |
| 20260831083000 | 67 | 281 | 6.1 | 10.4 | 0.00 | 0.14 | 0.14 | 78 | 1016.4 |
| 20260831082900 | 67 | 253 | 6.1 | 10.4 | 0.00 | 0.14 | 0.14 | 78 | 1016.4 |
| 20260831082801 | 67 | 248 | 6.1 | 10.4 | 0.00 | 0.14 | 0.14 | 78 | 1016.3 |
| 20260831082701 | 67 | 260 | 6.1 | 10.4 | 0.00 | 0.14 | 0.14 | 78 | 1016.4 |
| 20260831082601 | 66 | 263 | 6.1 | 10.4 | 0.00 | 0.14 | 0.14 | 80 | 1016.3 |
| 20260831082500 | 66 | 257 | 6.1 | 10.4 | 0.00 | 0.14 | 0.14 | 80 | 1016.2 |
| 20260831082401 | 66 | 253 | 6.1 | 10.4 | 0.00 | 0.14 | 0.14 | 79 | 1016.2 |
| 20260831082301 | 66 | 298 | 6.1 | 10.4 | 0.00 | 0.14 | 0.14 | 79 | 1016.2 |
| 20260831082200 | 66 | 246 | 6.1 | 10.4 | 0.00 | 0.14 | 0.14 | 79 | 1016.2 |
| 20260831082100 | 66 | 254 | 6.1 | 10.4 | 0.00 | 0.14 | 0.14 | 78 | 1016.2 |
| 20260831082001 | 66 | 271 | 6.1 | 10.4 | 0.00 | 0.14 | 0.14 | 80 | 1016.4 |
| 20260831081900 | 66 | 277 | 6.1 | 10.4 | 0.00 | 0.14 | 0.14 | 81 | 1016.3 |
| 20260831081801 | 66 | 292 | 6.1 | 10.4 | 0.00 | 0.14 | 0.14 | 81 | 1016.2 |
| 20260831081701 | 66 | 293 | 6.1 | 10.4 | 0.00 | 0.14 | 0.14 | 81 | 1016.2 |
| 20260831081601 | 66 | 259 | 7.0 | 10.4 | 0.00 | 0.14 | 0.14 | 81 | 1016.2 |
| 20260831081501 | 66 | 221 | 7.0 | 12.2 | 0.00 | 0.14 | 0.14 | 81 | 1016.2 |
| 20260831081401 | 66 | 271 | 7.0 | 12.2 | 0.00 | 0.14 | 0.14 | 82 | 1016.2 |
| 20260831081301 | 66 | 255 | 6.1 | 12.2 | 0.00 | 0.14 | 0.14 | 82 | 1016.4 |
| 20260831081200 | 66 | 254 | 6.1 | 12.2 | 0.00 | 0.14 | 0.14 | 82 | 1016.2 |
| 20260831081100 | 66 | 260 | 5.2 | 12.2 | 0.00 | 0.14 | 0.14 | 81 | 1016.3 |
| 20260831081000 | 66 | 221 | 5.2 | 12.2 | 0.00 | 0.14 | 0.14 | 82 | 1016.3 |
| 20260831080900 | 66 | 232 | 5.2 | 12.2 | 0.00 | 0.14 | 0.14 | 82 | 1016.3 |
| 20260831080800 | 65 | 242 | 5.2 | 12.2 | 0.00 | 0.14 | 0.14 | 83 | 1016.2 |
| 20260831080700 | 65 | 249 | 5.2 | 12.2 | 0.00 | 0.14 | 0.14 | 83 | 1016.2 |
| 20260831080601 | 65 | 212 | 4.3 | 12.2 | 0.00 | 0.14 | 0.14 | 84 | 1016.1 |
| 20260831080501 | 65 | 264 | 4.3 | 9.6 | 0.00 | 0.14 | 0.14 | 84 | 1016.1 |
| 20260831080401 | 65 | 237 | 4.3 | 9.6 | 0.00 | 0.14 | 0.14 | 84 | 1016.2 |
| 20260831080302 | 65 | 248 | 5.2 | 9.6 | 0.00 | 0.14 | 0.14 | 84 | 1016.1 |
| 20260831080200 | 65 | 262 | 5.2 | 9.6 | 0.00 | 0.14 | 0.14 | 83 | 1016.1 |
| 20260831080021 | 65 | 219 | 5.2 | 9.6 | 0.00 | 0.14 | 0.14 | 83 | 1016.2 |
| 20260831080017 | 65 | 252 | 5.2 | 9.6 | 0.00 | 0.14 | 0.14 | 83 | 1016.2 |
| 20260831080013 | 65 | 232 | 5.2 | 9.6 | 0.00 | 0.14 | 0.14 | 83 | 1016.2 |
| 20260831075701 | 65 | 264 | 5.2 | 9.6 | 0.00 | 0.14 | 0.14 | 83 | 1016.2 |
| 20260831075601 | 65 | 231 | 5.2 | 9.6 | 0.00 | 0.14 | 0.14 | 83 | 1016.1 |
| 20260831075501 | 65 | 270 | 5.2 | 9.6 | 0.00 | 0.14 | 0.14 | 83 | 1016.1 |
| 20260831075400 | 65 | 233 | 5.2 | 8.7 | 0.00 | 0.14 | 0.14 | 83 | 1016.1 |
| 20260831075300 | 65 | 268 | 4.3 | 8.7 | 0.00 | 0.14 | 0.14 | 84 | 1016.1 |
| 20260831075200 | 65 | 236 | 4.3 | 8.7 | 0.00 | 0.14 | 0.14 | 84 | 1016.1 |
| 20260831075100 | 65 | 231 | 5.2 | 8.7 | 0.00 | 0.14 | 0.14 | 84 | 1016.1 |
| 20260831075000 | 65 | 238 | 5.2 | 9.6 | 0.00 | 0.14 | 0.14 | 84 | 1016.1 |
| 20260831074900 | 65 | 261 | 4.3 | 9.6 | 0.00 | 0.14 | 0.14 | 84 | 1016.1 |
| 20260831074801 | 65 | 238 | 4.3 | 9.6 | 0.00 | 0.14 | 0.14 | 84 | 1016.1 |
| 20260831074701 | 65 | 300 | 5.2 | 9.6 | 0.00 | 0.14 | 0.14 | 83 | 1016.1 |
| 20260831074601 | 65 | 275 | 5.2 | 9.6 | 0.00 | 0.14 | 0.14 | 83 | 1016.1 |
| 20260831074501 | 65 | 285 | 5.2 | 9.6 | 0.00 | 0.14 | 0.14 | 83 | 1016.1 |
| 20260831074401 | 65 | 317 | 5.2 | 9.6 | 0.00 | 0.14 | 0.14 | 83 | 1016.1 |
| 20260831074301 | 65 | 269 | 6.1 | 11.3 | 0.00 | 0.14 | 0.14 | 83 | 1016.0 |
| 20260831074202 | 65 | 252 | 6.1 | 11.3 | 0.00 | 0.14 | 0.14 | 84 | 1016.0 |
| 20260831074101 | 65 | 265 | 6.1 | 11.3 | 0.00 | 0.14 | 0.14 | 83 | 1016.1 |
| 20260831074023 | 65 | 252 | 6.1 | 12.2 | 0.00 | 0.14 | 0.14 | 84 | 1016.0 |
| 20260831074015 | 65 | 283 | 6.1 | 12.2 | 0.00 | 0.14 | 0.14 | 84 | 1016.0 |
| 20260831074011 | 65 | 263 | 6.1 | 12.2 | 0.00 | 0.14 | 0.14 | 85 | 1016.0 |
| 20260831073700 | 65 | 231 | 6.1 | 12.2 | 0.00 | 0.14 | 0.14 | 85 | 1016.1 |
| 20260831073600 | 65 | 244 | 6.1 | 12.2 | 0.00 | 0.14 | 0.14 | 84 | 1016.1 |
| 20260831073502 | 65 | 264 | 7.0 | 12.2 | 0.00 | 0.14 | 0.14 | 84 | 1016.0 |
| 20260831073400 | 65 | 241 | 7.0 | 12.2 | 0.00 | 0.14 | 0.14 | 84 | 1016.1 |
| 20260831073301 | 65 | 265 | 7.0 | 12.2 | 0.00 | 0.14 | 0.14 | 84 | 1016.1 |
| 20260831073201 | 65 | 281 | 7.0 | 17.4 | 0.00 | 0.14 | 0.14 | 84 | 1016.0 |
| 20260831073101 | 65 | 283 | 7.0 | 17.4 | 0.00 | 0.14 | 0.14 | 85 | 1016.1 |
| 20260831073001 | 65 | 267 | 7.0 | 17.4 | 0.00 | 0.14 | 0.14 | 85 | 1015.8 |
| 20260831072901 | 65 | 229 | 7.0 | 17.4 | 0.00 | 0.14 | 0.14 | 85 | 1015.8 |
| 20260831072801 | 65 | 249 | 7.0 | 17.4 | 0.00 | 0.14 | 0.14 | 85 | 1015.8 |
| 20260831072700 | 65 | 290 | 7.0 | 17.4 | 0.00 | 0.14 | 0.14 | 84 | 1016.0 |
| 20260831072600 | 65 | 255 | 7.0 | 17.4 | 0.00 | 0.14 | 0.14 | 85 | 1016.0 |
| 20260831072500 | 65 | 260 | 7.0 | 17.4 | 0.00 | 0.14 | 0.14 | 85 | 1016.0 |
| 20260831072401 | 65 | 263 | 7.0 | 17.4 | 0.00 | 0.14 | 0.14 | 85 | 1016.0 |
| 20260831072301 | 65 | 279 | 6.1 | 17.4 | 0.00 | 0.14 | 0.14 | 85 | 1016.0 |
| 20260831072201 | 65 | 236 | 6.1 | 11.3 | 0.00 | 0.14 | 0.14 | 87 | 1015.8 |
| 20260831072100 | 65 | 241 | 6.1 | 11.3 | 0.00 | 0.14 | 0.14 | 87 | 1015.8 |
| 20260831072000 | 64 | 254 | 6.1 | 11.3 | 0.00 | 0.14 | 0.14 | 87 | 1015.8 |
| 20260831071901 | 64 | 252 | 6.1 | 11.3 | 0.00 | 0.14 | 0.14 | 87 | 1015.8 |
| 20260831071800 | 64 | 281 | 6.1 | 12.2 | 0.00 | 0.14 | 0.14 | 87 | 1015.8 |
| 20260831071701 | 64 | 269 | 7.0 | 12.2 | 0.00 | 0.14 | 0.14 | 86 | 1016.0 |
| 20260831071601 | 64 | 238 | 7.0 | 12.2 | 0.00 | 0.14 | 0.14 | 87 | 1016.0 |
| 20260831071500 | 64 | 257 | 6.1 | 12.2 | 0.00 | 0.14 | 0.14 | 87 | 1015.8 |
| 20260831071401 | 64 | 255 | 6.1 | 12.2 | 0.00 | 0.14 | 0.14 | 87 | 1016.0 |
| 20260831071301 | 64 | 250 | 7.0 | 12.2 | 0.00 | 0.14 | 0.14 | 87 | 1015.8 |
| 20260831071201 | 64 | 253 | 7.0 | 12.2 | 0.00 | 0.14 | 0.14 | 87 | 1015.8 |
| 20260831071101 | 64 | 234 | 7.0 | 12.2 | 0.00 | 0.14 | 0.14 | 87 | 1016.0 |
| 20260831071001 | 64 | 221 | 7.0 | 12.2 | 0.00 | 0.14 | 0.14 | 86 | 1015.7 |
| 20260831070901 | 64 | 259 | 7.0 | 12.2 | 0.00 | 0.14 | 0.14 | 86 | 1016.0 |
| 20260831070801 | 64 | 271 | 7.0 | 13.9 | 0.00 | 0.14 | 0.14 | 86 | 1015.7 |
| 20260831070700 | 64 | 260 | 7.0 | 13.9 | 0.00 | 0.14 | 0.14 | 87 | 1015.8 |
| 20260831070600 | 64 | 198 | 7.0 | 13.9 | 0.00 | 0.14 | 0.14 | 87 | 1015.7 |
| 20260831070500 | 64 | 281 | 7.0 | 13.9 | 0.00 | 0.14 | 0.14 | 87 | 1015.7 |
| 20260831070401 | 64 | 244 | 7.0 | 13.9 | 0.00 | 0.14 | 0.14 | 87 | 1015.7 |
| 20260831070300 | 64 | 277 | 6.1 | 13.9 | 0.00 | 0.14 | 0.14 | 87 | 1015.7 |
| 20260831070200 | 64 | 265 | 6.1 | 13.9 | 0.00 | 0.14 | 0.14 | 87 | 1015.7 |
| 20260831070100 | 64 | 205 | 7.0 | 13.9 | 0.00 | 0.14 | 0.14 | 87 | 1015.6 |
| 20260831070000 | 64 | 241 | 6.1 | 13.9 | 0.00 | 0.14 | 0.14 | 87 | 1015.7 |
| 20260831065900 | 64 | 217 | 6.1 | 13.9 | 0.00 | 0.14 | 0.14 | 87 | 1015.7 |
| 20260831065801 | 64 | 247 | 6.1 | 11.3 | 0.00 | 0.14 | 0.14 | 88 | 1015.6 |
| 20260831065701 | 64 | 228 | 6.1 | 11.3 | 0.00 | 0.14 | 0.14 | 88 | 1015.6 |
| 20260831065559 | 64 | 235 | 6.1 | 11.3 | 0.00 | 0.14 | 0.14 | 88 | 1015.6 |
| 20260831065459 | 63 | 246 | 6.1 | 11.3 | 0.00 | 0.14 | 0.14 | 88 | 1015.5 |
| 20260831065359 | 64 | 250 | 6.1 | 11.3 | 0.00 | 0.14 | 0.14 | 88 | 1015.6 |
| 20260831065306 | 63 | 252 | 6.1 | 11.3 | 0.00 | 0.14 | 0.14 | 88 | 1015.6 |
| 20260831065258 | 63 | 252 | 6.1 | 11.3 | 0.00 | 0.14 | 0.14 | 88 | 1015.6 |
| 20260831065158 | 63 | 222 | 6.1 | 11.3 | 0.00 | 0.14 | 0.14 | 89 | 1015.6 |
| 20260831065058 | 63 | 217 | 5.2 | 11.3 | 0.00 | 0.14 | 0.14 | 89 | 1015.7 |
| 20260831064958 | 63 | 271 | 5.2 | 11.3 | 0.00 | 0.14 | 0.14 | 89 | 1015.6 |
| 20260831064858 | 63 | 264 | 5.2 | 11.3 | 0.00 | 0.14 | 0.14 | 89 | 1015.6 |
| 20260831064802 | 63 | 279 | 5.2 | 11.3 | 0.00 | 0.14 | 0.14 | 89 | 1015.6 |
| 20260831064758 | 63 | 262 | 5.2 | 11.3 | 0.00 | 0.14 | 0.14 | 89 | 1015.6 |
| 20260831064658 | 63 | 248 | 6.1 | 11.3 | 0.00 | 0.14 | 0.14 | 89 | 1015.6 |
| 20260831064559 | 63 | 243 | 6.1 | 11.3 | 0.00 | 0.14 | 0.14 | 89 | 1015.5 |
| 20260831064458 | 63 | 284 | 6.1 | 11.3 | 0.00 | 0.14 | 0.14 | 89 | 1015.5 |
| 20260831064358 | 63 | 264 | 6.1 | 11.3 | 0.00 | 0.14 | 0.14 | 89 | 1015.5 |
| 20260831064303 | 63 | 273 | 6.1 | 9.6 | 0.00 | 0.14 | 0.14 | 89 | 1015.5 |
| 20260831064259 | 63 | 275 | 6.1 | 9.6 | 0.00 | 0.14 | 0.14 | 89 | 1015.5 |
| 20260831064159 | 63 | 284 | 6.1 | 11.3 | 0.00 | 0.14 | 0.14 | 89 | 1015.4 |
| 20260831064059 | 63 | 215 | 6.1 | 11.3 | 0.00 | 0.14 | 0.14 | 89 | 1015.4 |
| 20260831063959 | 63 | 219 | 6.1 | 11.3 | 0.00 | 0.14 | 0.14 | 89 | 1015.5 |
| 20260831063859 | 63 | 268 | 6.1 | 11.3 | 0.00 | 0.14 | 0.14 | 89 | 1015.4 |
| 20260831063803 | 63 | 231 | 7.0 | 11.3 | 0.00 | 0.14 | 0.14 | 89 | 1015.5 |
| 20260831063758 | 63 | 231 | 7.0 | 11.3 | 0.00 | 0.14 | 0.14 | 89 | 1015.5 |
| 20260831063654 | 63 | 242 | 6.1 | 11.3 | 0.00 | 0.14 | 0.14 | 89 | 1015.4 |
| 20260831063554 | 62 | 236 | 6.1 | 11.3 | 0.00 | 0.14 | 0.14 | 89 | 1015.5 |
| 20260831063454 | 62 | 228 | 6.1 | 11.3 | 0.00 | 0.14 | 0.14 | 89 | 1015.5 |
| 20260831063354 | 62 | 209 | 7.0 | 11.3 | 0.00 | 0.14 | 0.14 | 89 | 1015.4 |
| 20260831063300 | 62 | 255 | 7.0 | 11.3 | 0.00 | 0.14 | 0.14 | 89 | 1015.4 |
| 20260831063254 | 62 | 277 | 7.0 | 11.3 | 0.00 | 0.14 | 0.14 | 89 | 1015.4 |
| 20260831063154 | 62 | 220 | 7.0 | 9.6 | 0.00 | 0.14 | 0.14 | 90 | 1015.4 |
| 20260831063054 | 62 | 271 | 7.0 | 10.4 | 0.00 | 0.14 | 0.14 | 90 | 1015.5 |
| 20260831062955 | 62 | 247 | 7.0 | 10.4 | 0.00 | 0.14 | 0.14 | 90 | 1015.5 |
| 20260831062854 | 62 | 284 | 7.0 | 10.4 | 0.00 | 0.14 | 0.14 | 90 | 1015.4 |
| 20260831062800 | 62 | 233 | 7.0 | 11.3 | 0.00 | 0.14 | 0.14 | 90 | 1015.4 |
| 20260831062755 | 62 | 259 | 7.0 | 11.3 | 0.00 | 0.14 | 0.14 | 90 | 1015.4 |
| 20260831062655 | 62 | 261 | 7.0 | 11.3 | 0.00 | 0.14 | 0.14 | 90 | 1015.4 |
| 20260831062555 | 62 | 289 | 7.0 | 11.3 | 0.00 | 0.14 | 0.14 | 90 | 1015.4 |
| 20260831062454 | 62 | 228 | 7.0 | 11.3 | 0.00 | 0.14 | 0.14 | 90 | 1015.4 |
| 20260831062355 | 62 | 267 | 7.0 | 11.3 | 0.00 | 0.14 | 0.14 | 90 | 1015.4 |
| 20260831062301 | 62 | 244 | 7.0 | 11.3 | 0.00 | 0.14 | 0.14 | 90 | 1015.4 |
| 20260831062254 | 62 | 286 | 7.0 | 11.3 | 0.00 | 0.14 | 0.14 | 90 | 1015.4 |
| 20260831062154 | 62 | 277 | 6.1 | 11.3 | 0.00 | 0.14 | 0.14 | 90 | 1015.3 |
| 20260831062054 | 62 | 295 | 6.1 | 11.3 | 0.00 | 0.14 | 0.14 | 90 | 1015.4 |
| 20260831062025 | 62 | 261 | 6.1 | 11.3 | 0.00 | 0.14 | 0.14 | 91 | 1015.4 |
| 20260831062020 | 62 | 265 | 6.1 | 11.3 | 0.00 | 0.14 | 0.14 | 90 | 1015.4 |
| 20260831062012 | 62 | 274 | 6.1 | 11.3 | 0.00 | 0.14 | 0.14 | 91 | 1015.4 |
| 20260831061748 | 62 | 252 | 6.1 | 11.3 | 0.00 | 0.14 | 0.14 | 91 | 1015.4 |
| 20260831061648 | 62 | 299 | 6.1 | 11.3 | 0.00 | 0.14 | 0.14 | 91 | 1015.3 |
| 20260831061548 | 62 | 279 | 5.2 | 11.3 | 0.00 | 0.14 | 0.14 | 91 | 1015.4 |
| 20260831061525 | 62 | 250 | 5.2 | 9.6 | 0.00 | 0.14 | 0.14 | 91 | 1015.4 |
| 20260831061520 | 62 | 271 | 5.2 | 11.3 | 0.00 | 0.14 | 0.14 | 91 | 1015.4 |
| 20260831061511 | 62 | 244 | 5.2 | 11.3 | 0.00 | 0.14 | 0.14 | 91 | 1015.5 |
| 20260831061242 | 62 | 285 | 5.2 | 9.6 | 0.00 | 0.14 | 0.14 | 91 | 1015.4 |
| 20260831061140 | 62 | 248 | 5.2 | 9.6 | 0.00 | 0.14 | 0.14 | 91 | 1015.4 |
| 20260831061040 | 62 | 273 | 5.2 | 7.8 | 0.00 | 0.14 | 0.14 | 91 | 1015.3 |
| 20260831060940 | 62 | 254 | 5.2 | 7.8 | 0.00 | 0.14 | 0.14 | 91 | 1015.4 |
| 20260831060839 | 61 | 278 | 5.2 | 7.8 | 0.00 | 0.14 | 0.14 | 91 | 1015.3 |
| 20260831060800 | 61 | 271 | 5.2 | 7.8 | 0.00 | 0.14 | 0.14 | 91 | 1015.3 |
| 20260831060734 | 61 | 248 | 5.2 | 7.8 | 0.00 | 0.14 | 0.14 | 91 | 1015.3 |
| 20260831060635 | 61 | 273 | 4.3 | 7.8 | 0.00 | 0.14 | 0.14 | 91 | 1015.3 |
| 20260831060535 | 61 | 260 | 4.3 | 7.8 | 0.00 | 0.14 | 0.14 | 91 | 1015.3 |
| 20260831060435 | 61 | 248 | 4.3 | 7.8 | 0.00 | 0.14 | 0.14 | 91 | 1015.3 |
| 20260831060334 | 61 | 271 | 4.3 | 7.8 | 0.00 | 0.14 | 0.14 | 91 | 1015.3 |
| 20260831060301 | 61 | 244 | 4.3 | 7.8 | 0.00 | 0.14 | 0.14 | 91 | 1015.3 |
| 20260831060234 | 61 | 240 | 4.3 | 7.8 | 0.00 | 0.14 | 0.14 | 91 | 1015.3 |
| 20260831060132 | 61 | 243 | 4.3 | 7.8 | 0.00 | 0.14 | 0.14 | 91 | 1015.3 |
| 20260831060032 | 61 | 227 | 4.3 | 7.8 | 0.00 | 0.14 | 0.14 | 91 | 1015.3 |
| 20260831055930 | 61 | 248 | 4.3 | 7.8 | 0.00 | 0.14 | 0.14 | 91 | 1015.3 |
| 20260831055831 | 61 | 232 | 3.5 | 7.0 | 0.00 | 0.14 | 0.14 | 91 | 1015.3 |
| 20260831055800 | 61 | 215 | 3.5 | 7.0 | 0.00 | 0.14 | 0.14 | 92 | 1015.3 |
| 20260831055731 | 61 | 267 | 3.5 | 7.0 | 0.00 | 0.14 | 0.14 | 92 | 1015.3 |
| 20260831055631 | 61 | 261 | 3.5 | 7.0 | 0.00 | 0.14 | 0.14 | 91 | 1015.3 |
| 20260831055530 | 61 | 277 | 3.5 | 7.0 | 0.00 | 0.14 | 0.14 | 91 | 1015.3 |
| 20260831055523 | 61 | 262 | 3.5 | 7.0 | 0.00 | 0.14 | 0.14 | 91 | 1015.3 |
| 20260831055519 | 61 | 262 | 3.5 | 7.0 | 0.00 | 0.14 | 0.14 | 91 | 1015.3 |
| 20260831055511 | 61 | 269 | 3.5 | 7.0 | 0.00 | 0.14 | 0.14 | 91 | 1015.3 |
| 20260831055229 | 61 | 247 | 3.5 | 7.0 | 0.00 | 0.14 | 0.14 | 91 | 1015.3 |
| 20260831055129 | 61 | 247 | 3.5 | 6.1 | 0.00 | 0.14 | 0.14 | 91 | 1015.3 |
| 20260831055029 | 61 | 242 | 2.6 | 6.1 | 0.00 | 0.14 | 0.14 | 92 | 1015.3 |
| 20260831054929 | 61 | 223 | 2.6 | 6.1 | 0.00 | 0.14 | 0.14 | 91 | 1015.3 |
| 20260831054829 | 61 | 220 | 2.6 | 6.1 | 0.00 | 0.14 | 0.14 | 91 | 1015.3 |
| 20260831054801 | 61 | 215 | 2.6 | 6.1 | 0.00 | 0.14 | 0.14 | 91 | 1015.3 |
| 20260831054729 | 61 | 237 | 2.6 | 6.1 | 0.00 | 0.14 | 0.14 | 91 | 1015.3 |
| 20260831054629 | 61 | 277 | 2.6 | 6.1 | 0.00 | 0.14 | 0.14 | 91 | 1015.2 |
| 20260831054529 | 61 | 273 | 2.6 | 6.1 | 0.00 | 0.14 | 0.14 | 91 | 1015.3 |
| 20260831054429 | 61 | 290 | 2.6 | 7.8 | 0.00 | 0.14 | 0.14 | 91 | 1015.3 |
| 20260831054329 | 61 | 258 | 2.6 | 7.8 | 0.00 | 0.14 | 0.14 | 91 | 1015.2 |
| 20260831054301 | 61 | 261 | 2.6 | 7.8 | 0.00 | 0.14 | 0.14 | 91 | 1015.2 |
| 20260831054229 | 61 | 261 | 2.6 | 7.8 | 0.00 | 0.14 | 0.14 | 91 | 1015.2 |
| 20260831054128 | 61 | 238 | 2.6 | 7.8 | 0.00 | 0.14 | 0.14 | 91 | 1015.2 |
| 20260831054029 | 61 | 267 | 3.5 | 7.8 | 0.00 | 0.14 | 0.14 | 91 | 1015.2 |
| 20260831053929 | 61 | 250 | 3.5 | 7.8 | 0.00 | 0.14 | 0.14 | 91 | 1015.2 |
| 20260831053829 | 61 | 243 | 3.5 | 7.8 | 0.00 | 0.14 | 0.14 | 91 | 1015.1 |
| 20260831053801 | 61 | 274 | 3.5 | 7.8 | 0.00 | 0.14 | 0.14 | 91 | 1015.2 |
| 20260831053729 | 61 | 263 | 3.5 | 7.8 | 0.00 | 0.14 | 0.14 | 91 | 1015.2 |
| 20260831053629 | 61 | 265 | 3.5 | 7.8 | 0.00 | 0.14 | 0.14 | 91 | 1015.1 |
| 20260831053529 | 61 | 235 | 3.5 | 7.8 | 0.00 | 0.14 | 0.14 | 91 | 1015.1 |
| 20260831053429 | 61 | 253 | 3.5 | 7.8 | 0.00 | 0.14 | 0.14 | 91 | 1015.2 |
| 20260831053329 | 61 | 275 | 3.5 | 7.8 | 0.00 | 0.14 | 0.14 | 91 | 1015.1 |
| 20260831053300 | 61 | 284 | 3.5 | 7.8 | 0.00 | 0.14 | 0.14 | 91 | 1015.2 |
| 20260831053229 | 61 | 215 | 3.5 | 7.8 | 0.00 | 0.14 | 0.14 | 91 | 1015.2 |
| 20260831053129 | 61 | 225 | 3.5 | 7.8 | 0.00 | 0.14 | 0.14 | 91 | 1015.1 |
| 20260831053028 | 61 | 231 | 4.3 | 8.7 | 0.00 | 0.14 | 0.14 | 91 | 1015.2 |
| 20260831052928 | 61 | 252 | 4.3 | 8.7 | 0.00 | 0.14 | 0.14 | 91 | 1015.2 |
| 20260831052829 | 61 | 252 | 4.3 | 8.7 | 0.00 | 0.14 | 0.14 | 91 | 1015.2 |
| 20260831052801 | 61 | 225 | 3.5 | 8.7 | 0.00 | 0.14 | 0.14 | 91 | 1015.1 |
| 20260831052728 | 61 | 223 | 3.5 | 8.7 | 0.00 | 0.14 | 0.14 | 91 | 1015.1 |
| 20260831052628 | 61 | 247 | 3.5 | 8.7 | 0.00 | 0.14 | 0.14 | 91 | 1015.2 |
| 20260831052528 | 61 | 238 | 3.5 | 8.7 | 0.00 | 0.14 | 0.14 | 91 | 1015.1 |
| 20260831052425 | 61 | 229 | 3.5 | 8.7 | 0.00 | 0.14 | 0.14 | 91 | 1015.2 |
| 20260831052320 | 61 | 217 | 3.5 | 8.7 | 0.00 | 0.14 | 0.14 | 91 | 1015.1 |
| 20260831052301 | 61 | 269 | 3.5 | 8.7 | 0.00 | 0.14 | 0.14 | 91 | 1015.1 |
| 20260831052220 | 61 | 227 | 3.5 | 8.7 | 0.00 | 0.14 | 0.14 | 91 | 1015.1 |
| 20260831052121 | 61 | 242 | 3.5 | 8.7 | 0.00 | 0.14 | 0.14 | 91 | 1015.1 |
| 20260831052021 | 61 | 220 | 3.5 | 7.0 | 0.00 | 0.14 | 0.14 | 91 | 1015.1 |
| 20260831051917 | 61 | 221 | 3.5 | 7.0 | 0.00 | 0.14 | 0.14 | 91 | 1015.1 |
| 20260831051817 | 61 | 244 | 3.5 | 7.8 | 0.00 | 0.14 | 0.14 | 91 | 1015.1 |
| 20260831051801 | 61 | 232 | 3.5 | 7.8 | 0.00 | 0.14 | 0.14 | 91 | 1015.1 |
| 20260831051716 | 61 | 232 | 3.5 | 7.8 | 0.00 | 0.14 | 0.14 | 91 | 1015.1 |
| 20260831051614 | 61 | 240 | 3.5 | 7.8 | 0.00 | 0.14 | 0.14 | 91 | 1015.1 |
| 20260831051514 | 61 | 242 | 3.5 | 7.8 | 0.00 | 0.14 | 0.14 | 91 | 1015.2 |
| 20260831051412 | 61 | 251 | 3.5 | 7.8 | 0.00 | 0.14 | 0.14 | 91 | 1015.1 |
| 20260831051306 | 61 | 244 | 3.5 | 7.8 | 0.00 | 0.14 | 0.14 | 90 | 1015.1 |
| 20260831051301 | 61 | 230 | 3.5 | 7.8 | 0.00 | 0.14 | 0.14 | 90 | 1015.1 |
| 20260831051206 | 61 | 249 | 3.5 | 7.8 | 0.00 | 0.14 | 0.14 | 90 | 1015.1 |
| 20260831051107 | 61 | 273 | 3.5 | 7.8 | 0.00 | 0.14 | 0.14 | 91 | 1015.1 |
| 20260831051007 | 61 | 260 | 3.5 | 7.8 | 0.00 | 0.14 | 0.14 | 91 | 1015.1 |
| 20260831050905 | 61 | 267 | 3.5 | 7.8 | 0.00 | 0.14 | 0.14 | 91 | 1015.1 |
| 20260831050801 | 61 | 255 | 3.5 | 8.7 | 0.00 | 0.14 | 0.14 | 90 | 1015.1 |
| 20260831050707 | 61 | 276 | 4.3 | 8.7 | 0.00 | 0.14 | 0.14 | 90 | 1015.1 |
| 20260831050606 | 61 | 231 | 4.3 | 11.3 | 0.00 | 0.14 | 0.14 | 90 | 1015.1 |
| 20260831050506 | 61 | 256 | 4.3 | 11.3 | 0.00 | 0.14 | 0.14 | 90 | 1015.1 |
| 20260831050406 | 61 | 208 | 4.3 | 11.3 | 0.00 | 0.14 | 0.14 | 90 | 1015.1 |
| 20260831050306 | 61 | 230 | 4.3 | 11.3 | 0.00 | 0.14 | 0.14 | 90 | 1015.1 |
| 20260831050301 | 61 | 229 | 4.3 | 11.3 | 0.00 | 0.14 | 0.14 | 90 | 1015.1 |
| 20260831050206 | 61 | 224 | 5.2 | 11.3 | 0.00 | 0.14 | 0.14 | 90 | 1015.0 |
| 20260831050107 | 61 | 225 | 5.2 | 11.3 | 0.00 | 0.14 | 0.14 | 90 | 1015.1 |
| 20260831050005 | 61 | 269 | 5.2 | 11.3 | 0.00 | 0.14 | 0.14 | 90 | 1015.1 |
| 20260831045904 | 61 | 260 | 5.2 | 11.3 | 0.00 | 0.14 | 0.14 | 90 | 1015.1 |
| 20260831045801 | 61 | 219 | 5.2 | 11.3 | 0.00 | 0.14 | 0.14 | 90 | 1015.0 |
| 20260831045702 | 61 | 212 | 5.2 | 11.3 | 0.00 | 0.14 | 0.14 | 90 | 1015.0 |
| 20260831045602 | 61 | 183 | 5.2 | 9.6 | 0.00 | 0.14 | 0.14 | 91 | 1015.0 |
| 20260831045502 | 61 | 234 | 4.3 | 9.6 | 0.00 | 0.14 | 0.14 | 91 | 1015.0 |
| 20260831045401 | 61 | 260 | 5.2 | 9.6 | 0.00 | 0.14 | 0.14 | 91 | 1015.1 |
| 20260831045301 | 61 | 226 | 5.2 | 9.6 | 0.00 | 0.14 | 0.14 | 91 | 1015.1 |
| 20260831045201 | 61 | 240 | 5.2 | 12.2 | 0.00 | 0.14 | 0.14 | 91 | 1015.0 |
| 20260831045101 | 61 | 236 | 5.2 | 12.2 | 0.00 | 0.14 | 0.14 | 91 | 1015.0 |
| 20260831045001 | 61 | 230 | 5.2 | 12.2 | 0.00 | 0.14 | 0.14 | 91 | 1015.0 |
| 20260831044901 | 61 | 221 | 5.2 | 12.2 | 0.00 | 0.14 | 0.14 | 91 | 1014.9 |
| 20260831044801 | 61 | 219 | 5.2 | 12.2 | 0.00 | 0.15 | 0.14 | 91 | 1015.0 |
| 20260831044702 | 61 | 223 | 5.2 | 12.2 | 0.00 | 0.15 | 0.14 | 91 | 1014.9 |
| 20260831044601 | 61 | 219 | 5.2 | 12.2 | 0.00 | 0.15 | 0.14 | 91 | 1015.0 |
| 20260831044501 | 61 | 258 | 5.2 | 12.2 | 0.00 | 0.15 | 0.14 | 91 | 1014.9 |
| 20260831044401 | 60 | 209 | 5.2 | 12.2 | 0.00 | 0.15 | 0.14 | 91 | 1014.8 |
| 20260831044301 | 60 | 216 | 5.2 | 12.2 | 0.00 | 0.15 | 0.14 | 91 | 1014.9 |
| 20260831044201 | 60 | 211 | 5.2 | 11.3 | 0.00 | 0.15 | 0.14 | 91 | 1014.9 |
| 20260831044101 | 60 | 193 | 5.2 | 10.4 | 0.00 | 0.15 | 0.14 | 91 | 1014.9 |
| 20260831044001 | 60 | 200 | 5.2 | 10.4 | 0.00 | 0.15 | 0.14 | 91 | 1014.8 |
| 20260831043901 | 60 | 216 | 5.2 | 12.2 | 0.00 | 0.15 | 0.14 | 91 | 1014.8 |
| 20260831043801 | 60 | 222 | 5.2 | 12.2 | 0.00 | 0.15 | 0.14 | 91 | 1014.9 |
| 20260831043701 | 60 | 236 | 5.2 | 12.2 | 0.00 | 0.15 | 0.14 | 91 | 1014.9 |
| 20260831043601 | 60 | 221 | 5.2 | 12.2 | 0.00 | 0.15 | 0.14 | 91 | 1014.9 |
| 20260831043501 | 60 | 221 | 5.2 | 12.2 | 0.00 | 0.15 | 0.14 | 91 | 1014.9 |
| 20260831043400 | 60 | 211 | 5.2 | 12.2 | 0.00 | 0.15 | 0.14 | 91 | 1014.9 |
| 20260831043300 | 60 | 205 | 5.2 | 12.2 | 0.00 | 0.15 | 0.14 | 91 | 1014.9 |
| 20260831043200 | 60 | 204 | 5.2 | 12.2 | 0.00 | 0.15 | 0.14 | 91 | 1014.9 |
| 20260831043100 | 60 | 228 | 5.2 | 12.2 | 0.00 | 0.15 | 0.14 | 91 | 1014.9 |
| 20260831043001 | 60 | 213 | 4.3 | 12.2 | 0.00 | 0.15 | 0.14 | 91 | 1015.0 |
| 20260831042901 | 60 | 212 | 5.2 | 10.4 | 0.00 | 0.15 | 0.14 | 91 | 1014.8 |
| 20260831042801 | 60 | 209 | 5.2 | 9.6 | 0.00 | 0.15 | 0.14 | 91 | 1015.0 |
| 20260831042701 | 60 | 255 | 5.2 | 9.6 | 0.00 | 0.15 | 0.14 | 91 | 1014.9 |
| 20260831042601 | 60 | 242 | 5.2 | 9.6 | 0.00 | 0.15 | 0.14 | 91 | 1014.9 |
| 20260831042500 | 60 | 248 | 5.2 | 10.4 | 0.00 | 0.15 | 0.14 | 91 | 1014.9 |
| 20260831042401 | 60 | 207 | 5.2 | 10.4 | 0.00 | 0.15 | 0.14 | 91 | 1014.9 |
| 20260831042301 | 60 | 221 | 5.2 | 10.4 | 0.00 | 0.15 | 0.14 | 90 | 1014.9 |
| 20260831042201 | 60 | 238 | 5.2 | 10.4 | 0.00 | 0.15 | 0.14 | 91 | 1014.9 |
| 20260831042101 | 60 | 231 | 4.3 | 10.4 | 0.00 | 0.15 | 0.14 | 91 | 1014.9 |
| 20260831042001 | 60 | 220 | 4.3 | 10.4 | 0.00 | 0.15 | 0.14 | 91 | 1014.9 |
| 20260831041901 | 60 | 234 | 4.3 | 11.3 | 0.00 | 0.15 | 0.14 | 91 | 1014.9 |
| 20260831041801 | 60 | 221 | 4.3 | 11.3 | 0.00 | 0.15 | 0.14 | 91 | 1014.9 |
| 20260831041701 | 60 | 248 | 4.3 | 11.3 | 0.00 | 0.15 | 0.14 | 90 | 1014.8 |
| 20260831041601 | 60 | 216 | 4.3 | 11.3 | 0.00 | 0.15 | 0.14 | 90 | 1014.8 |
| 20260831041501 | 60 | 205 | 4.3 | 11.3 | 0.00 | 0.15 | 0.14 | 90 | 1014.9 |
| 20260831041401 | 60 | 234 | 4.3 | 11.3 | 0.00 | 0.15 | 0.14 | 90 | 1014.9 |
| 20260831041301 | 60 | 246 | 4.3 | 11.3 | 0.00 | 0.15 | 0.14 | 91 | 1014.9 |
| 20260831041201 | 60 | 218 | 4.3 | 11.3 | 0.00 | 0.15 | 0.14 | 91 | 1014.8 |
| 20260831041101 | 60 | 234 | 5.2 | 11.3 | 0.00 | 0.15 | 0.14 | 91 | 1014.8 |
| 20260831041000 | 60 | 231 | 5.2 | 12.2 | 0.00 | 0.15 | 0.14 | 91 | 1014.8 |
| 20260831040900 | 60 | 254 | 5.2 | 12.2 | 0.00 | 0.15 | 0.14 | 91 | 1014.8 |
| 20260831040801 | 60 | 259 | 5.2 | 12.2 | 0.00 | 0.15 | 0.14 | 91 | 1014.8 |
| 20260831040700 | 60 | 232 | 5.2 | 12.2 | 0.00 | 0.15 | 0.14 | 91 | 1014.7 |
| 20260831040600 | 60 | 228 | 4.3 | 12.2 | 0.00 | 0.15 | 0.14 | 91 | 1014.8 |
| 20260831040524 | 60 | 220 | 4.3 | 12.2 | 0.00 | 0.15 | 0.14 | 90 | 1014.7 |
| 20260831040520 | 60 | 219 | 4.3 | 12.2 | 0.00 | 0.15 | 0.14 | 90 | 1014.8 |
| 20260831040513 | 60 | 220 | 4.3 | 12.2 | 0.00 | 0.15 | 0.14 | 91 | 1014.8 |
| 20260831040200 | 60 | 194 | 4.3 | 12.2 | 0.00 | 0.15 | 0.14 | 91 | 1014.8 |
| 20260831040100 | 60 | 222 | 3.5 | 12.2 | 0.00 | 0.15 | 0.14 | 91 | 1014.8 |
| 20260831040023 | 60 | 196 | 4.3 | 7.8 | 0.00 | 0.15 | 0.14 | 91 | 1014.7 |
| 20260831040020 | 60 | 225 | 3.5 | 7.8 | 0.00 | 0.15 | 0.14 | 91 | 1014.8 |
| 20260831040012 | 60 | 194 | 3.5 | 7.8 | 0.00 | 0.15 | 0.14 | 91 | 1014.7 |
| 20260831035701 | 60 | 227 | 3.5 | 7.8 | 0.00 | 0.15 | 0.14 | 91 | 1014.8 |
| 20260831035601 | 60 | 202 | 3.5 | 8.7 | 0.00 | 0.15 | 0.14 | 91 | 1014.8 |
| 20260831035502 | 60 | 217 | 3.5 | 8.7 | 0.00 | 0.15 | 0.14 | 91 | 1014.7 |
| 20260831035401 | 60 | 221 | 3.5 | 8.7 | 0.00 | 0.15 | 0.14 | 91 | 1014.7 |
| 20260831035306 | 60 | 178 | 3.5 | 8.7 | 0.00 | 0.15 | 0.14 | 91 | 1014.6 |
| 20260831035201 | 60 | 198 | 3.5 | 8.7 | 0.00 | 0.15 | 0.14 | 91 | 1014.7 |
| 20260831035101 | 60 | 229 | 3.5 | 8.7 | 0.00 | 0.15 | 0.14 | 91 | 1014.6 |
| 20260831035025 | 60 | 206 | 3.5 | 8.7 | 0.00 | 0.15 | 0.14 | 91 | 1014.6 |
| 20260831035021 | 60 | 225 | 3.5 | 8.7 | 0.00 | 0.15 | 0.14 | 91 | 1014.6 |
| 20260831035014 | 60 | 225 | 3.5 | 8.7 | 0.00 | 0.15 | 0.14 | 90 | 1014.6 |
| 20260831034701 | 60 | 227 | 4.3 | 8.7 | 0.01 | 0.15 | 0.14 | 91 | 1014.6 |
| 20260831034601 | 60 | 204 | 4.3 | 8.7 | 0.01 | 0.15 | 0.14 | 91 | 1014.6 |
| 20260831034501 | 60 | 259 | 4.3 | 9.6 | 0.01 | 0.15 | 0.14 | 91 | 1014.6 |
| 20260831034401 | 60 | 234 | 3.5 | 9.6 | 0.01 | 0.15 | 0.14 | 91 | 1014.6 |
| 20260831034301 | 60 | 212 | 3.5 | 9.6 | 0.01 | 0.15 | 0.14 | 91 | 1014.6 |
| 20260831034201 | 60 | 205 | 3.5 | 9.6 | 0.01 | 0.15 | 0.14 | 91 | 1014.7 |
| 20260831034101 | 60 | 198 | 3.5 | 9.6 | 0.01 | 0.15 | 0.14 | 91 | 1014.6 |
| 20260831034023 | 60 | 209 | 3.5 | 9.6 | 0.02 | 0.15 | 0.14 | 91 | 1014.7 |
| 20260831034019 | 60 | 216 | 3.5 | 9.6 | 0.02 | 0.15 | 0.14 | 91 | 1014.7 |
| 20260831034011 | 60 | 203 | 3.5 | 9.6 | 0.02 | 0.15 | 0.14 | 91 | 1014.7 |
| 20260831033701 | 60 | 190 | 3.5 | 9.6 | 0.02 | 0.15 | 0.14 | 91 | 1014.7 |
| 20260831033601 | 60 | 226 | 3.5 | 9.6 | 0.02 | 0.15 | 0.14 | 91 | 1014.7 |
| 20260831033501 | 60 | 199 | 3.5 | 7.8 | 0.02 | 0.15 | 0.14 | 91 | 1014.8 |
| 20260831033400 | 60 | 219 | 3.5 | 7.8 | 0.02 | 0.15 | 0.14 | 91 | 1014.8 |
| 20260831033301 | 60 | 207 | 3.5 | 7.8 | 0.03 | 0.15 | 0.14 | 91 | 1014.7 |
| 20260831033200 | 60 | 217 | 3.5 | 7.8 | 0.03 | 0.15 | 0.14 | 91 | 1014.8 |
| 20260831033100 | 60 | 217 | 3.5 | 7.0 | 0.03 | 0.15 | 0.14 | 91 | 1014.7 |
| 20260831033023 | 60 | 214 | 3.5 | 7.0 | 0.03 | 0.15 | 0.14 | 91 | 1014.6 |
| 20260831033019 | 60 | 248 | 3.5 | 7.0 | 0.03 | 0.15 | 0.14 | 91 | 1014.8 |
| 20260831033012 | 60 | 207 | 3.5 | 7.0 | 0.03 | 0.15 | 0.14 | 91 | 1014.7 |
| 20260831032701 | 60 | 221 | 3.5 | 7.0 | 0.04 | 0.15 | 0.14 | 91 | 1014.7 |
| 20260831032601 | 60 | 209 | 3.5 | 7.0 | 0.04 | 0.15 | 0.14 | 91 | 1014.7 |
| 20260831032501 | 60 | 207 | 3.5 | 7.8 | 0.04 | 0.15 | 0.14 | 91 | 1014.8 |
| 20260831032401 | 60 | 206 | 3.5 | 7.8 | 0.05 | 0.15 | 0.14 | 91 | 1014.8 |
| 20260831032301 | 60 | 233 | 3.5 | 7.8 | 0.06 | 0.15 | 0.14 | 91 | 1014.8 |
| 20260831032201 | 60 | 235 | 3.5 | 7.8 | 0.06 | 0.15 | 0.14 | 91 | 1014.8 |
| 20260831032101 | 60 | 227 | 3.5 | 7.8 | 0.08 | 0.15 | 0.14 | 91 | 1014.8 |
| 20260831032025 | 60 | 210 | 3.5 | 7.8 | 0.08 | 0.15 | 0.14 | 91 | 1014.8 |
| 20260831032021 | 60 | 215 | 3.5 | 7.8 | 0.09 | 0.15 | 0.14 | 92 | 1014.8 |
| 20260831032013 | 60 | 211 | 3.5 | 7.8 | 0.10 | 0.15 | 0.14 | 92 | 1014.8 |
| 20260831031701 | 60 | 236 | 3.5 | 7.8 | 0.11 | 0.15 | 0.14 | 92 | 1014.8 |
| 20260831031601 | 60 | 243 | 3.5 | 7.8 | 0.12 | 0.15 | 0.14 | 92 | 1014.8 |
| 20260831031501 | 60 | 215 | 3.5 | 7.0 | 0.12 | 0.15 | 0.14 | 92 | 1014.8 |
| 20260831031401 | 60 | 259 | 2.6 | 7.0 | 0.12 | 0.15 | 0.14 | 92 | 1014.8 |
| 20260831031301 | 60 | 232 | 2.6 | 7.0 | 0.12 | 0.15 | 0.14 | 92 | 1014.7 |
| 20260831031201 | 60 | 218 | 2.6 | 7.0 | 0.12 | 0.15 | 0.14 | 92 | 1014.8 |
| 20260831031101 | 60 | 285 | 2.6 | 7.0 | 0.12 | 0.15 | 0.14 | 92 | 1014.8 |
| 20260831031000 | 60 | 230 | 2.6 | 7.0 | 0.12 | 0.15 | 0.14 | 92 | 1014.8 |
| 20260831030900 | 60 | 257 | 2.6 | 7.0 | 0.12 | 0.15 | 0.14 | 92 | 1014.8 |
| 20260831030802 | 60 | 225 | 2.6 | 7.0 | 0.12 | 0.15 | 0.14 | 92 | 1014.8 |
| 20260831030758 | 61 | 225 | 2.6 | 7.0 | 0.12 | 0.15 | 0.14 | 92 | 1014.8 |
| 20260831030658 | 60 | 225 | 2.6 | 7.0 | 0.12 | 0.15 | 0.14 | 92 | 1014.8 |
| 20260831030558 | 61 | 246 | 2.6 | 7.0 | 0.12 | 0.15 | 0.14 | 92 | 1014.9 |
| 20260831030458 | 60 | 227 | 2.6 | 5.2 | 0.12 | 0.15 | 0.14 | 92 | 1014.9 |
| 20260831030356 | 60 | 219 | 2.6 | 5.2 | 0.12 | 0.15 | 0.14 | 91 | 1014.9 |
| 20260831030301 | 61 | 219 | 2.6 | 5.2 | 0.13 | 0.15 | 0.14 | 91 | 1014.9 |
| 20260831030255 | 61 | 219 | 2.6 | 5.2 | 0.13 | 0.15 | 0.14 | 91 | 1014.9 |
| 20260831030153 | 61 | 219 | 2.6 | 5.2 | 0.13 | 0.15 | 0.14 | 91 | 1014.9 |
| 20260831030054 | 61 | 228 | 2.6 | 5.2 | 0.13 | 0.15 | 0.14 | 91 | 1014.9 |
| 20260831025951 | 61 | 223 | 2.6 | 5.2 | 0.13 | 0.15 | 0.14 | 91 | 1014.9 |
| 20260831025848 | 61 | 223 | 2.6 | 5.2 | 0.13 | 0.15 | 0.14 | 91 | 1014.9 |
| 20260831025800 | 61 | 221 | 1.7 | 5.2 | 0.13 | 0.15 | 0.14 | 91 | 1014.9 |
| 20260831025746 | 61 | 221 | 1.7 | 5.2 | 0.13 | 0.15 | 0.14 | 91 | 1014.9 |
| 20260831025646 | 61 | 220 | 1.7 | 5.2 | 0.13 | 0.15 | 0.14 | 91 | 1014.9 |
| 20260831025546 | 61 | 225 | 1.7 | 5.2 | 0.13 | 0.15 | 0.14 | 91 | 1014.9 |
| 20260831025528 | 61 | 315 | 1.7 | 3.5 | 0.14 | 0.15 | 0.14 | 91 | 1014.3 |
| 20260831025520 | 61 | 219 | 1.7 | 4.3 | 0.13 | 0.15 | 0.14 | 91 | 1014.8 |
| 20260831025516 | 61 | 228 | 1.7 | 3.5 | 0.14 | 0.15 | 0.14 | 91 | 1014.5 |
| 20260831025240 | 61 | 320 | 1.7 | 3.5 | 0.14 | 0.15 | 0.14 | 91 | 1014.3 |
| 20260831025140 | 61 | 320 | 1.7 | 5.2 | 0.14 | 0.15 | 0.14 | 91 | 1014.1 |
| 20260831025039 | 61 | 320 | 1.7 | 5.2 | 0.14 | 0.15 | 0.14 | 90 | 1013.9 |
| 20260831024939 | 61 | 320 | 2.6 | 5.2 | 0.14 | 0.15 | 0.14 | 90 | 1013.9 |
| 20260831024838 | 61 | 320 | 2.6 | 6.1 | 0.14 | 0.15 | 0.13 | 90 | 1014.2 |
| 20260831024801 | 61 | 265 | 2.6 | 6.1 | 0.14 | 0.15 | 0.13 | 90 | 1014.3 |
| 20260831024738 | 61 | 264 | 2.6 | 6.1 | 0.13 | 0.14 | 0.13 | 90 | 1014.3 |
| 20260831024635 | 61 | 263 | 2.6 | 6.1 | 0.13 | 0.14 | 0.13 | 90 | 1014.4 |
| 20260831024535 | 61 | 264 | 2.6 | 6.1 | 0.13 | 0.14 | 0.13 | 90 | 1014.5 |
| 20260831024433 | 61 | 260 | 3.5 | 6.1 | 0.13 | 0.14 | 0.13 | 90 | 1014.7 |
| 20260831024332 | 61 | 254 | 3.5 | 6.1 | 0.13 | 0.14 | 0.13 | 90 | 1014.9 |
| 20260831024301 | 61 | 258 | 3.5 | 7.0 | 0.13 | 0.14 | 0.13 | 90 | 1015.0 |
| 20260831024232 | 61 | 259 | 3.5 | 7.0 | 0.13 | 0.14 | 0.13 | 90 | 1015.0 |
| 20260831024132 | 61 | 263 | 3.5 | 7.0 | 0.13 | 0.14 | 0.13 | 90 | 1015.0 |
| 20260831024032 | 61 | 257 | 3.5 | 7.0 | 0.13 | 0.14 | 0.13 | 90 | 1015.0 |
| 20260831024028 | 61 | 245 | 3.5 | 7.0 | 0.13 | 0.13 | 0.13 | 90 | 1015.2 |
| 20260831024015 | 61 | 241 | 3.5 | 7.0 | 0.13 | 0.13 | 0.13 | 90 | 1015.2 |
| 20260831024011 | 61 | 243 | 3.5 | 7.0 | 0.13 | 0.13 | 0.13 | 90 | 1015.2 |
| 20260831023732 | 61 | 250 | 3.5 | 7.0 | 0.13 | 0.13 | 0.12 | 90 | 1015.2 |
| 20260831023632 | 61 | 259 | 3.5 | 7.0 | 0.12 | 0.13 | 0.12 | 89 | 1015.2 |
| 20260831023532 | 61 | 263 | 4.3 | 10.4 | 0.12 | 0.13 | 0.12 | 89 | 1015.2 |
| 20260831023432 | 61 | 245 | 4.3 | 10.4 | 0.12 | 0.13 | 0.11 | 89 | 1015.2 |
| 20260831023332 | 61 | 267 | 5.2 | 10.4 | 0.11 | 0.12 | 0.11 | 89 | 1015.2 |
| 20260831023301 | 61 | 265 | 5.2 | 11.3 | 0.11 | 0.12 | 0.11 | 89 | 1015.1 |
| 20260831023232 | 61 | 261 | 5.2 | 13.0 | 0.11 | 0.12 | 0.11 | 89 | 1015.1 |
| 20260831023131 | 61 | 264 | 6.1 | 13.0 | 0.11 | 0.12 | 0.11 | 89 | 1015.1 |
| 20260831023029 | 61 | 284 | 7.0 | 13.0 | 0.11 | 0.12 | 0.11 | 89 | 1015.2 |
| 20260831022930 | 62 | 236 | 7.0 | 13.0 | 0.11 | 0.12 | 0.11 | 88 | 1015.3 |
| 20260831022829 | 62 | 273 | 7.8 | 13.0 | 0.11 | 0.12 | 0.11 | 89 | 1015.4 |
| 20260831022801 | 62 | 275 | 7.8 | 13.0 | 0.11 | 0.12 | 0.10 | 88 | 1015.4 |
| 20260831022729 | 62 | 277 | 7.8 | 13.0 | 0.11 | 0.12 | 0.10 | 88 | 1015.4 |
| 20260831022628 | 62 | 273 | 8.7 | 13.9 | 0.10 | 0.11 | 0.10 | 88 | 1015.4 |
| 20260831022528 | 62 | 262 | 8.7 | 13.9 | 0.10 | 0.11 | 0.09 | 88 | 1015.6 |
| 20260831022428 | 62 | 269 | 8.7 | 13.9 | 0.09 | 0.10 | 0.09 | 88 | 1015.6 |
| 20260831022328 | 62 | 257 | 8.7 | 13.9 | 0.09 | 0.09 | 0.09 | 88 | 1015.6 |
| 20260831022301 | 62 | 234 | 8.7 | 13.9 | 0.09 | 0.09 | 0.08 | 88 | 1015.7 |
| 20260831022227 | 62 | 254 | 8.7 | 15.6 | 0.08 | 0.09 | 0.06 | 88 | 1015.7 |
| 20260831022122 | 62 | 265 | 8.7 | 15.6 | 0.07 | 0.08 | 0.06 | 88 | 1016.0 |
| 20260831022022 | 62 | 274 | 8.7 | 15.6 | 0.06 | 0.07 | 0.06 | 88 | 1016.0 |
| 20260831021922 | 62 | 282 | 8.7 | 15.6 | 0.06 | 0.06 | 0.06 | 88 | 1015.8 |
| 20260831021821 | 62 | 278 | 8.7 | 15.6 | 0.05 | 0.06 | 0.04 | 87 | 1016.1 |
| 20260831021801 | 62 | 259 | 8.7 | 15.6 | 0.04 | 0.05 | 0.03 | 87 | 1016.1 |
| 20260831021721 | 62 | 269 | 8.7 | 15.6 | 0.03 | 0.04 | 0.03 | 87 | 1016.1 |
| 20260831021616 | 62 | 253 | 8.7 | 15.6 | 0.02 | 0.03 | 0.02 | 87 | 1015.7 |
| 20260831021516 | 62 | 248 | 8.7 | 15.6 | 0.02 | 0.03 | 0.02 | 87 | 1016.1 |
| 20260831021416 | 62 | 262 | 9.6 | 15.6 | 0.02 | 0.03 | 0.02 | 87 | 1015.6 |
| 20260831021316 | 62 | 246 | 8.7 | 15.6 | 0.02 | 0.03 | 0.02 | 87 | 1015.7 |
| 20260831021301 | 62 | 259 | 8.7 | 15.6 | 0.02 | 0.03 | 0.02 | 87 | 1015.7 |
| 20260831021215 | 62 | 278 | 8.7 | 14.8 | 0.02 | 0.03 | 0.02 | 87 | 1015.6 |
| 20260831021110 | 62 | 263 | 8.7 | 15.6 | 0.02 | 0.03 | 0.02 | 87 | 1015.7 |
| 20260831021010 | 62 | 271 | 8.7 | 15.6 | 0.02 | 0.03 | 0.02 | 87 | 1015.6 |
| 20260831020910 | 62 | 271 | 8.7 | 15.6 | 0.02 | 0.03 | 0.02 | 86 | 1015.4 |
| 20260831020809 | 62 | 285 | 8.7 | 15.6 | 0.02 | 0.03 | 0.02 | 86 | 1015.6 |
| 20260831020800 | 62 | 249 | 8.7 | 15.6 | 0.02 | 0.03 | 0.02 | 86 | 1015.6 |
| 20260831020710 | 63 | 256 | 8.7 | 15.6 | 0.02 | 0.03 | 0.02 | 86 | 1015.4 |
| 20260831020603 | 63 | 295 | 8.7 | 23.5 | 0.02 | 0.03 | 0.02 | 86 | 1015.4 |
| 20260831020503 | 63 | 286 | 9.6 | 23.5 | 0.02 | 0.03 | 0.02 | 87 | 1015.1 |
| 20260831020404 | 63 | 252 | 9.6 | 25.2 | 0.02 | 0.03 | 0.02 | 87 | 1014.9 |
| 20260831020304 | 63 | 259 | 10.4 | 25.2 | 0.02 | 0.02 | 0.02 | 87 | 1014.8 |
| 20260831020300 | 63 | 269 | 10.4 | 25.2 | 0.02 | 0.02 | 0.02 | 87 | 1014.8 |
| 20260831020203 | 63 | 264 | 10.4 | 25.2 | 0.02 | 0.02 | 0.02 | 87 | 1014.8 |
| 20260831020002 | 63 | 254 | 10.4 | 25.2 | 0.02 | 0.02 | 0.02 | 87 | 1014.8 |
| 20260831015901 | 63 | 313 | 10.4 | 25.2 | 0.02 | 0.02 | 0.02 | 87 | 1014.7 |
| 20260831015802 | 63 | 287 | 9.6 | 25.2 | 0.02 | 0.02 | 0.02 | 87 | 1015.0 |
| 20260831015701 | 63 | 257 | 8.7 | 25.2 | 0.02 | 0.02 | 0.01 | 87 | 1014.9 |
| 20260831015602 | 63 | 267 | 7.8 | 25.2 | 0.01 | 0.02 | 0.01 | 86 | 1014.9 |
| 20260831015520 | 63 | 302 | 7.0 | 25.2 | 0.01 | 0.02 | 0.00 | 86 | 1015.0 |
| 20260831015516 | 63 | 290 | 5.2 | 16.5 | 0.00 | 0.01 | 0.00 | 86 | 1014.7 |
| 20260831015512 | 63 | 313 | 4.3 | 16.5 | 0.00 | 0.01 | 0.00 | 86 | 1014.7 |
| 20260831015202 | 63 | 273 | 3.5 | 14.8 | 0.00 | 0.01 | 0.00 | 86 | 1014.6 |
| 20260831015101 | 63 | 294 | 2.6 | 13.9 | 0.00 | 0.01 | 0.00 | 86 | 1014.4 |
| 20260831015001 | 63 | 271 | 1.7 | 11.3 | 0.00 | 0.01 | 0.00 | 86 | 1014.3 |
| 20260831014901 | 63 | 288 | 0.9 | 9.6 | 0.00 | 0.01 | 0.00 | 86 | 1013.7 |
| 20260831014801 | 63 | 273 | 0.0 | 6.1 | 0.00 | 0.01 | 0.00 | 85 | 1013.2 |
| 20260831014701 | 63 | 249 | 0.0 | 3.5 | 0.00 | 0.01 | 0.00 | 85 | 1012.8 |
| 20260831014601 | 63 | 105 | 0.0 | 1.7 | 0.00 | 0.01 | 0.00 | 85 | 1012.6 |
| 20260831014500 | 63 | 105 | 0.0 | 0.9 | 0.00 | 0.01 | 0.00 | 85 | 1012.5 |
| 20260831014400 | 63 | 105 | 0.0 | 0.9 | 0.00 | 0.01 | 0.00 | 85 | 1012.4 |
| 20260831014301 | 63 | 105 | 0.0 | 0.9 | 0.00 | 0.01 | 0.00 | 85 | 1012.4 |
| 20260831014201 | 63 | 105 | 0.0 | 0.9 | 0.00 | 0.01 | 0.00 | 85 | 1012.3 |
| 20260831014059 | 63 | 105 | 0.0 | 0.9 | 0.00 | 0.01 | 0.00 | 85 | 1012.1 |
| 20260831013957 | 63 | 105 | 0.0 | 0.9 | 0.00 | 0.01 | 0.00 | 85 | 1012.3 |
| 20260831013852 | 63 | 105 | 0.0 | 1.7 | 0.00 | 0.01 | 0.00 | 85 | 1012.3 |
| 20260831013801 | 63 | 105 | 0.0 | 1.7 | 0.00 | 0.01 | 0.00 | 85 | 1012.3 |
| 20260831013752 | 63 | 105 | 0.0 | 1.7 | 0.00 | 0.01 | 0.00 | 85 | 1012.3 |
| 20260831013652 | 63 | 105 | 0.0 | 1.7 | 0.00 | 0.01 | 0.00 | 85 | 1012.3 |
| 20260831013552 | 63 | 105 | 0.0 | 1.7 | 0.00 | 0.01 | 0.00 | 85 | 1012.3 |
| 20260831013451 | 63 | 105 | 0.0 | 1.7 | 0.00 | 0.01 | 0.00 | 85 | 1012.3 |
| 20260831013351 | 63 | 105 | 0.0 | 1.7 | 0.00 | 0.01 | 0.00 | 85 | 1012.3 |
| 20260831013300 | 63 | 105 | 0.0 | 1.7 | 0.00 | 0.01 | 0.00 | 85 | 1012.3 |
| 20260831013250 | 63 | 105 | 0.0 | 1.7 | 0.00 | 0.01 | 0.00 | 85 | 1012.3 |
| 20260831013149 | 63 | 105 | 0.9 | 1.7 | 0.00 | 0.01 | 0.00 | 85 | 1012.3 |
| 20260831013048 | 63 | 105 | 0.0 | 1.7 | 0.00 | 0.01 | 0.00 | 85 | 1012.3 |
| 20260831012946 | 63 | 105 | 0.0 | 1.7 | 0.00 | 0.01 | 0.00 | 85 | 1012.3 |
| 20260831012844 | 63 | 105 | 0.9 | 1.7 | 0.00 | 0.01 | 0.00 | 85 | 1012.3 |
| 20260831012801 | 63 | 105 | 0.9 | 1.7 | 0.00 | 0.01 | 0.00 | 84 | 1012.3 |
| 20260831012744 | 63 | 105 | 0.9 | 1.7 | 0.00 | 0.01 | 0.00 | 84 | 1012.3 |
| 20260831012644 | 63 | 105 | 0.9 | 1.7 | 0.00 | 0.01 | 0.00 | 84 | 1012.3 |
| 20260831012542 | 63 | 105 | 0.9 | 1.7 | 0.00 | 0.01 | 0.00 | 85 | 1012.3 |
| 20260831012441 | 63 | 105 | 0.9 | 1.7 | 0.00 | 0.01 | 0.00 | 85 | 1012.3 |
| 20260831012342 | 63 | 105 | 0.9 | 1.7 | 0.00 | 0.01 | 0.00 | 85 | 1012.3 |
| 20260831012300 | 63 | 105 | 0.9 | 1.7 | 0.00 | 0.01 | 0.00 | 85 | 1012.4 |
| 20260831012241 | 63 | 105 | 0.9 | 1.7 | 0.00 | 0.01 | 0.00 | 85 | 1012.4 |
| 20260831012139 | 63 | 105 | 0.9 | 1.7 | 0.00 | 0.01 | 0.00 | 85 | 1012.4 |
| 20260831012040 | 63 | 104 | 0.9 | 1.7 | 0.00 | 0.01 | 0.00 | 85 | 1012.4 |
| 20260831012028 | 63 | 105 | 0.9 | 2.6 | 0.00 | 0.01 | 0.00 | 85 | 1012.4 |
| 20260831012017 | 63 | 105 | 0.9 | 1.7 | 0.00 | 0.01 | 0.00 | 85 | 1012.4 |
| 20260831012013 | 63 | 105 | 0.9 | 1.7 | 0.00 | 0.01 | 0.00 | 85 | 1012.3 |
| 20260831011740 | 63 | 105 | 0.9 | 2.6 | 0.00 | 0.01 | 0.00 | 85 | 1012.4 |
| 20260831011640 | 63 | 105 | 0.9 | 2.6 | 0.00 | 0.01 | 0.00 | 85 | 1012.4 |
| 20260831011540 | 63 | 105 | 0.9 | 2.6 | 0.00 | 0.01 | 0.00 | 85 | 1012.4 |
| 20260831011440 | 63 | 105 | 0.9 | 2.6 | 0.00 | 0.01 | 0.00 | 85 | 1012.4 |
| 20260831011339 | 63 | 105 | 0.9 | 2.6 | 0.00 | 0.01 | 0.00 | 85 | 1012.4 |
| 20260831011301 | 63 | 105 | 0.9 | 2.6 | 0.00 | 0.01 | 0.00 | 85 | 1012.4 |
| 20260831011237 | 63 | 105 | 0.9 | 2.6 | 0.00 | 0.01 | 0.00 | 85 | 1012.4 |
| 20260831011136 | 63 | 105 | 0.9 | 2.6 | 0.00 | 0.01 | 0.00 | 85 | 1012.5 |
| 20260831011036 | 63 | 105 | 0.9 | 2.6 | 0.00 | 0.01 | 0.00 | 85 | 1012.4 |
| 20260831010934 | 63 | 105 | 0.9 | 2.6 | 0.00 | 0.01 | 0.00 | 85 | 1012.4 |
| 20260831010834 | 63 | 105 | 0.9 | 2.6 | 0.00 | 0.01 | 0.00 | 85 | 1012.4 |
| 20260831010801 | 63 | 105 | 0.9 | 2.6 | 0.00 | 0.01 | 0.00 | 85 | 1012.4 |
| 20260831010733 | 63 | 105 | 0.9 | 2.6 | 0.00 | 0.01 | 0.00 | 85 | 1012.4 |
| 20260831010632 | 63 | 106 | 0.9 | 1.7 | 0.00 | 0.01 | 0.00 | 85 | 1012.4 |
| 20260831010531 | 63 | 107 | 0.9 | 1.7 | 0.00 | 0.01 | 0.00 | 85 | 1012.4 |
| 20260831010431 | 63 | 106 | 0.0 | 1.7 | 0.00 | 0.01 | 0.00 | 85 | 1012.4 |
| 20260831010301 | 63 | 107 | 0.0 | 1.7 | 0.00 | 0.01 | 0.00 | 85 | 1012.5 |
| 20260831010230 | 63 | 107 | 0.0 | 1.7 | 0.00 | 0.01 | 0.00 | 85 | 1012.5 |
| 20260831010129 | 63 | 107 | 0.0 | 2.6 | 0.00 | 0.01 | 0.00 | 85 | 1012.5 |
| 20260831010029 | 63 | 107 | 0.0 | 2.6 | 0.00 | 0.01 | 0.00 | 85 | 1012.5 |
| 20260831005930 | 63 | 107 | 0.9 | 2.6 | 0.00 | 0.01 | 0.00 | 85 | 1012.5 |
| 20260831005801 | 63 | 107 | 0.9 | 2.6 | 0.00 | 0.01 | 0.00 | 85 | 1012.5 |
| 20260831005729 | 63 | 107 | 0.9 | 2.6 | 0.00 | 0.01 | 0.00 | 85 | 1012.5 |
| 20260831005629 | 63 | 107 | 0.9 | 2.6 | 0.00 | 0.01 | 0.00 | 85 | 1012.6 |
| 20260831005529 | 63 | 107 | 0.9 | 2.6 | 0.00 | 0.01 | 0.00 | 85 | 1012.6 |
| 20260831005429 | 63 | 107 | 0.9 | 2.6 | 0.00 | 0.01 | 0.00 | 85 | 1012.6 |
| 20260831005329 | 63 | 107 | 0.9 | 2.6 | 0.00 | 0.01 | 0.00 | 85 | 1012.6 |
| 20260831005301 | 63 | 107 | 0.9 | 2.6 | 0.00 | 0.01 | 0.00 | 85 | 1012.7 |
| 20260831005229 | 63 | 107 | 0.9 | 2.6 | 0.00 | 0.01 | 0.00 | 85 | 1012.7 |
| 20260831005129 | 63 | 107 | 0.9 | 2.6 | 0.00 | 0.01 | 0.00 | 85 | 1012.7 |
| 20260831005029 | 63 | 107 | 0.9 | 2.6 | 0.00 | 0.01 | 0.00 | 85 | 1012.7 |
| 20260831004929 | 63 | 107 | 0.9 | 2.6 | 0.00 | 0.01 | 0.00 | 85 | 1012.7 |
| 20260831004829 | 63 | 107 | 0.9 | 2.6 | 0.00 | 0.01 | 0.00 | 85 | 1012.7 |
| 20260831004801 | 63 | 107 | 0.0 | 2.6 | 0.00 | 0.01 | 0.00 | 85 | 1012.7 |
| 20260831004729 | 63 | 107 | 0.0 | 2.6 | 0.00 | 0.01 | 0.00 | 85 | 1012.7 |
| 20260831004629 | 63 | 107 | 0.0 | 2.6 | 0.00 | 0.01 | 0.00 | 85 | 1012.7 |
| 20260831004529 | 63 | 105 | 0.0 | 1.7 | 0.00 | 0.01 | 0.00 | 85 | 1012.7 |
| 20260831004515 | 63 | 105 | 0.0 | 1.7 | 0.00 | 0.01 | 0.00 | 85 | 1012.7 |
| 20260831004511 | 63 | 106 | 0.0 | 1.7 | 0.00 | 0.01 | 0.00 | 85 | 1012.7 |
| 20260831004228 | 63 | 106 | 0.0 | 1.7 | 0.00 | 0.01 | 0.00 | 85 | 1012.7 |
| 20260831004128 | 63 | 106 | 0.0 | 1.7 | 0.00 | 0.01 | 0.00 | 85 | 1012.7 |
| 20260831004029 | 63 | 106 | 0.0 | 1.7 | 0.00 | 0.01 | 0.00 | 85 | 1012.7 |
| 20260831003929 | 63 | 106 | 0.0 | 1.7 | 0.00 | 0.01 | 0.00 | 85 | 1012.7 |
| 20260831003800 | 63 | 106 | 0.0 | 1.7 | 0.00 | 0.01 | 0.00 | 85 | 1012.7 |
| 20260831003729 | 63 | 106 | 0.0 | 1.7 | 0.00 | 0.01 | 0.00 | 85 | 1012.7 |
| 20260831003629 | 63 | 106 | 0.9 | 1.7 | 0.00 | 0.01 | 0.00 | 85 | 1012.7 |
| 20260831003529 | 63 | 106 | 0.9 | 1.7 | 0.00 | 0.01 | 0.00 | 85 | 1012.7 |
| 20260831003515 | 63 | 106 | 0.9 | 1.7 | 0.00 | 0.01 | 0.00 | 85 | 1012.7 |
| 20260831003511 | 63 | 106 | 0.9 | 1.7 | 0.00 | 0.01 | 0.00 | 85 | 1012.7 |
| 20260831003224 | 63 | 106 | 0.9 | 1.7 | 0.00 | 0.01 | 0.00 | 85 | 1012.7 |
| 20260831003122 | 63 | 106 | 0.0 | 1.7 | 0.00 | 0.01 | 0.00 | 85 | 1012.7 |
| 20260831003022 | 63 | 106 | 0.9 | 1.7 | 0.00 | 0.01 | 0.00 | 85 | 1012.8 |
| 20260831002922 | 63 | 106 | 0.9 | 1.7 | 0.00 | 0.01 | 0.00 | 85 | 1012.8 |
| 20260831002801 | 63 | 106 | 0.9 | 1.7 | 0.00 | 0.01 | 0.00 | 85 | 1012.7 |
| 20260831002721 | 63 | 106 | 0.9 | 1.7 | 0.00 | 0.01 | 0.00 | 85 | 1012.7 |
| 20260831002619 | 63 | 106 | 0.9 | 1.7 | 0.00 | 0.01 | 0.00 | 84 | 1012.7 |
| 20260831002519 | 63 | 106 | 0.9 | 1.7 | 0.00 | 0.01 | 0.00 | 84 | 1012.8 |
| 20260831002515 | 63 | 106 | 0.9 | 1.7 | 0.00 | 0.01 | 0.00 | 84 | 1012.8 |
| 20260831002511 | 63 | 106 | 0.9 | 1.7 | 0.00 | 0.01 | 0.00 | 84 | 1012.8 |
| 20260831002217 | 63 | 106 | 0.9 | 1.7 | 0.00 | 0.01 | 0.00 | 84 | 1012.9 |
| 20260831002117 | 63 | 106 | 0.9 | 1.7 | 0.00 | 0.01 | 0.00 | 84 | 1012.8 |
| 20260831002017 | 63 | 106 | 0.9 | 1.7 | 0.00 | 0.01 | 0.00 | 84 | 1012.8 |
| 20260831001917 | 63 | 106 | 0.9 | 1.7 | 0.00 | 0.01 | 0.00 | 84 | 1012.8 |
| 20260831001801 | 63 | 106 | 0.9 | 1.7 | 0.00 | 0.01 | 0.00 | 84 | 1012.9 |
| 20260831001718 | 63 | 106 | 0.9 | 1.7 | 0.00 | 0.01 | 0.00 | 84 | 1012.9 |
| 20260831001617 | 63 | 106 | 0.9 | 1.7 | 0.00 | 0.01 | 0.00 | 84 | 1012.9 |
| 20260831001514 | 63 | 106 | 0.9 | 1.7 | 0.00 | 0.01 | 0.00 | 84 | 1012.9 |
| 20260831001414 | 63 | 106 | 0.9 | 1.7 | 0.00 | 0.01 | 0.00 | 84 | 1012.9 |
| 20260831001314 | 63 | 105 | 0.9 | 1.7 | 0.00 | 0.01 | 0.00 | 84 | 1012.9 |
| 20260831001300 | 63 | 106 | 0.9 | 1.7 | 0.00 | 0.01 | 0.00 | 84 | 1012.9 |
| 20260831001213 | 63 | 106 | 0.9 | 1.7 | 0.00 | 0.01 | 0.00 | 84 | 1012.9 |
| 20260831001114 | 63 | 106 | 0.9 | 1.7 | 0.00 | 0.01 | 0.00 | 84 | 1012.9 |
| 20260831001013 | 63 | 105 | 0.9 | 1.7 | 0.00 | 0.01 | 0.00 | 84 | 1012.9 |
| 20260831000913 | 63 | 106 | 0.9 | 1.7 | 0.00 | 0.01 | 0.00 | 84 | 1012.9 |
| 20260831000801 | 63 | 105 | 0.0 | 1.7 | 0.00 | 0.01 | 0.00 | 84 | 1013.0 |
| 20260831000713 | 63 | 105 | 0.0 | 1.7 | 0.00 | 0.01 | 0.00 | 84 | 1013.0 |
| 20260831000613 | 63 | 105 | 0.0 | 1.7 | 0.00 | 0.01 | 0.00 | 84 | 1013.0 |
| 20260831000521 | 63 | 105 | 0.0 | 1.7 | 0.00 | 0.01 | 0.00 | 84 | 1013.0 |
| 20260831000517 | 63 | 105 | 0.0 | 1.7 | 0.00 | 0.01 | 0.00 | 84 | 1013.0 |
| 20260831000513 | 63 | 105 | 0.0 | 1.7 | 0.00 | 0.01 | 0.00 | 84 | 1013.0 |
| 20260831000211 | 63 | 105 | 0.9 | 1.7 | 0.00 | 0.01 | 0.00 | 84 | 1013.0 |
| 20260831000112 | 63 | 105 | 0.9 | 1.7 | 0.00 | 0.01 | 0.00 | 84 | 1013.0 |
| 20260831000011 | 63 | 105 | 0.9 | 1.7 | 0.00 | 0.01 | 0.00 | 84 | 1013.0 |
| 20260830235911 | 63 | 105 | 0.9 | 1.7 | 0.00 | 0.01 | 0.00 | 84 | 1013.0 |
| 20260830235801 | 63 | 105 | 0.9 | 1.7 | 0.00 | 0.01 | 0.00 | 83 | 1013.0 |
| 20260830235711 | 63 | 105 | 0.9 | 1.7 | 0.00 | 0.01 | 0.00 | 83 | 1013.0 |
| 20260830235611 | 63 | 105 | 0.9 | 1.7 | 0.00 | 0.01 | 0.00 | 83 | 1013.1 |
| 20260830235511 | 63 | 105 | 0.9 | 1.7 | 0.00 | 0.01 | 0.00 | 83 | 1013.0 |
| 20260830235411 | 63 | 105 | 0.9 | 1.7 | 0.00 | 0.01 | 0.00 | 83 | 1013.0 |
| 20260830235301 | 63 | 105 | 0.9 | 1.7 | 0.00 | 0.01 | 0.00 | 83 | 1013.0 |
| 20260830235211 | 63 | 105 | 0.9 | 1.7 | 0.00 | 0.01 | 0.00 | 83 | 1013.0 |
| 20260830235111 | 63 | 105 | 0.9 | 1.7 | 0.00 | 0.01 | 0.00 | 83 | 1013.0 |
| 20260830235011 | 63 | 105 | 0.9 | 1.7 | 0.00 | 0.01 | 0.00 | 83 | 1013.0 |
| 20260830234911 | 63 | 105 | 0.9 | 1.7 | 0.00 | 0.01 | 0.00 | 83 | 1013.0 |
| 20260830234801 | 63 | 105 | 0.9 | 1.7 | 0.00 | 0.01 | 0.00 | 83 | 1013.0 |
| 20260830234712 | 63 | 105 | 0.9 | 1.7 | 0.00 | 0.01 | 0.00 | 83 | 1013.0 |
| 20260830234612 | 63 | 105 | 0.9 | 1.7 | 0.00 | 0.01 | 0.00 | 83 | 1013.0 |
| 20260830234511 | 63 | 105 | 0.9 | 1.7 | 0.00 | 0.01 | 0.00 | 83 | 1013.0 |
| 20260830234407 | 64 | 105 | 0.9 | 1.7 | 0.00 | 0.01 | 0.00 | 83 | 1013.0 |
| 20260830234301 | 64 | 105 | 0.9 | 1.7 | 0.00 | 0.01 | 0.00 | 83 | 1013.0 |
| 20260830234208 | 63 | 105 | 0.9 | 1.7 | 0.00 | 0.01 | 0.00 | 83 | 1013.0 |
| 20260830234107 | 64 | 105 | 0.9 | 1.7 | 0.00 | 0.01 | 0.00 | 83 | 1013.0 |
| 20260830234020 | 64 | 105 | 0.9 | 1.7 | 0.00 | 0.01 | 0.00 | 83 | 1013.0 |
| 20260830234016 | 64 | 105 | 0.9 | 1.7 | 0.00 | 0.01 | 0.00 | 83 | 1013.0 |
| 20260830234012 | 64 | 105 | 0.9 | 1.7 | 0.00 | 0.01 | 0.00 | 83 | 1013.0 |
| 20260830233708 | 64 | 105 | 0.9 | 1.7 | 0.00 | 0.01 | 0.00 | 83 | 1013.0 |
| 20260830233608 | 64 | 105 | 0.9 | 1.7 | 0.00 | 0.01 | 0.00 | 83 | 1013.0 |
| 20260830233521 | 64 | 105 | 0.9 | 1.7 | 0.00 | 0.01 | 0.00 | 83 | 1013.0 |
| 20260830233517 | 64 | 105 | 0.9 | 1.7 | 0.00 | 0.01 | 0.00 | 83 | 1013.1 |
| 20260830233513 | 64 | 105 | 0.9 | 1.7 | 0.00 | 0.01 | 0.00 | 83 | 1013.1 |
| 20260830233207 | 64 | 105 | 0.9 | 1.7 | 0.00 | 0.01 | 0.00 | 83 | 1013.1 |
| 20260830233108 | 64 | 105 | 0.9 | 1.7 | 0.00 | 0.01 | 0.00 | 83 | 1013.1 |
| 20260830233008 | 64 | 105 | 0.9 | 1.7 | 0.00 | 0.01 | 0.00 | 83 | 1013.1 |
| 20260830232908 | 64 | 106 | 0.9 | 1.7 | 0.00 | 0.01 | 0.00 | 83 | 1013.1 |
| 20260830232807 | 64 | 106 | 0.9 | 1.7 | 0.00 | 0.01 | 0.00 | 83 | 1013.1 |
| 20260830232759 | 64 | 106 | 0.9 | 1.7 | 0.00 | 0.01 | 0.00 | 83 | 1013.1 |
| 20260830232707 | 64 | 106 | 0.9 | 3.5 | 0.00 | 0.01 | 0.00 | 83 | 1013.1 |
| 20260830232607 | 64 | 106 | 0.0 | 3.5 | 0.00 | 0.01 | 0.00 | 83 | 1013.1 |
| 20260830232503 | 64 | 106 | 0.0 | 3.5 | 0.00 | 0.01 | 0.00 | 83 | 1013.1 |
| 20260830232403 | 64 | 106 | 0.0 | 3.5 | 0.00 | 0.01 | 0.00 | 83 | 1013.1 |
| 20260830232306 | 64 | 106 | 0.9 | 3.5 | 0.00 | 0.01 | 0.00 | 83 | 1013.1 |
| 20260830232301 | 64 | 106 | 0.9 | 3.5 | 0.00 | 0.01 | 0.00 | 83 | 1013.1 |
| 20260830232204 | 64 | 106 | 0.9 | 3.5 | 0.00 | 0.01 | 0.00 | 83 | 1013.1 |
| 20260830232103 | 64 | 106 | 0.9 | 3.5 | 0.00 | 0.01 | 0.00 | 83 | 1013.1 |
| 20260830232004 | 64 | 106 | 0.9 | 3.5 | 0.00 | 0.01 | 0.00 | 83 | 1013.2 |
| 20260830231904 | 64 | 107 | 0.9 | 3.5 | 0.00 | 0.01 | 0.00 | 83 | 1013.2 |
| 20260830231804 | 64 | 107 | 0.9 | 3.5 | 0.00 | 0.01 | 0.00 | 83 | 1013.2 |
| 20260830231759 | 64 | 107 | 0.9 | 3.5 | 0.00 | 0.01 | 0.00 | 83 | 1013.2 |
| 20260830231704 | 64 | 123 | 0.9 | 2.6 | 0.00 | 0.01 | 0.00 | 83 | 1013.2 |
| 20260830231604 | 64 | 124 | 0.9 | 2.6 | 0.00 | 0.01 | 0.00 | 83 | 1013.2 |
| 20260830231504 | 64 | 123 | 0.9 | 2.6 | 0.00 | 0.01 | 0.00 | 83 | 1013.2 |
| 20260830231404 | 64 | 124 | 0.9 | 2.6 | 0.00 | 0.01 | 0.00 | 83 | 1013.2 |
| 20260830231303 | 64 | 124 | 0.9 | 2.6 | 0.00 | 0.01 | 0.00 | 83 | 1013.2 |
| 20260830231259 | 64 | 124 | 0.9 | 2.6 | 0.00 | 0.01 | 0.00 | 83 | 1013.2 |
| 20260830231203 | 64 | 125 | 0.9 | 2.6 | 0.00 | 0.01 | 0.00 | 84 | 1013.2 |
| 20260830231103 | 64 | 125 | 0.9 | 2.6 | 0.00 | 0.01 | 0.00 | 84 | 1013.2 |
| 20260830231003 | 64 | 125 | 0.9 | 2.6 | 0.00 | 0.01 | 0.00 | 83 | 1013.2 |
| 20260830230903 | 64 | 125 | 0.9 | 2.6 | 0.00 | 0.01 | 0.00 | 84 | 1013.2 |
| 20260830230804 | 64 | 125 | 0.9 | 2.6 | 0.00 | 0.01 | 0.00 | 84 | 1013.2 |
| 20260830230800 | 64 | 125 | 0.9 | 2.6 | 0.00 | 0.01 | 0.00 | 84 | 1013.2 |
| 20260830230704 | 64 | 126 | 0.9 | 2.6 | 0.00 | 0.01 | 0.00 | 84 | 1013.2 |
| 20260830230603 | 64 | 127 | 0.9 | 2.6 | 0.00 | 0.01 | 0.00 | 83 | 1013.2 |
| 20260830230501 | 64 | 127 | 0.9 | 2.6 | 0.00 | 0.01 | 0.00 | 84 | 1013.2 |
| 20260830230401 | 64 | 127 | 0.9 | 2.6 | 0.00 | 0.01 | 0.00 | 84 | 1013.3 |
| 20260830230304 | 64 | 127 | 0.9 | 1.7 | 0.00 | 0.01 | 0.00 | 84 | 1013.3 |
| 20260830230300 | 64 | 127 | 0.9 | 1.7 | 0.00 | 0.01 | 0.00 | 84 | 1013.3 |
| 20260830230202 | 64 | 128 | 0.9 | 1.7 | 0.00 | 0.01 | 0.00 | 84 | 1013.3 |
| 20260830230002 | 64 | 128 | 0.9 | 1.7 | 0.00 | 0.01 | 0.00 | 84 | 1013.3 |
| 20260830225902 | 64 | 128 | 0.9 | 1.7 | 0.00 | 0.01 | 0.00 | 84 | 1013.3 |
| 20260830225803 | 64 | 128 | 0.9 | 1.7 | 0.00 | 0.01 | 0.00 | 84 | 1013.4 |
| 20260830225759 | 64 | 128 | 0.9 | 1.7 | 0.00 | 0.01 | 0.00 | 84 | 1013.4 |
| 20260830225702 | 64 | 128 | 0.0 | 1.7 | 0.00 | 0.01 | 0.00 | 84 | 1013.4 |
| 20260830225601 | 64 | 128 | 0.0 | 1.7 | 0.00 | 0.01 | 0.00 | 84 | 1013.4 |
| 20260830225501 | 64 | 128 | 0.0 | 1.7 | 0.00 | 0.01 | 0.00 | 84 | 1013.4 |
| 20260830225401 | 64 | 128 | 0.0 | 1.7 | 0.00 | 0.01 | 0.00 | 84 | 1013.4 |
| 20260830225305 | 64 | 128 | 0.0 | 1.7 | 0.00 | 0.01 | 0.00 | 84 | 1013.4 |
| 20260830225300 | 64 | 128 | 0.0 | 1.7 | 0.00 | 0.01 | 0.00 | 84 | 1013.4 |
| 20260830225201 | 64 | 128 | 0.0 | 2.6 | 0.00 | 0.01 | 0.00 | 84 | 1013.3 |
| 20260830225101 | 64 | 128 | 0.0 | 2.6 | 0.00 | 0.01 | 0.00 | 84 | 1013.4 |
| 20260830225001 | 64 | 128 | 0.9 | 2.6 | 0.00 | 0.01 | 0.00 | 84 | 1013.4 |
| 20260830224901 | 64 | 128 | 0.9 | 2.6 | 0.00 | 0.01 | 0.00 | 84 | 1013.4 |
| 20260830224804 | 64 | 128 | 0.9 | 2.6 | 0.00 | 0.01 | 0.00 | 84 | 1013.4 |
| 20260830224759 | 64 | 128 | 0.9 | 2.6 | 0.00 | 0.01 | 0.00 | 84 | 1013.4 |
| 20260830224700 | 64 | 128 | 0.9 | 2.6 | 0.00 | 0.01 | 0.00 | 83 | 1013.4 |
| 20260830224601 | 64 | 128 | 0.9 | 2.6 | 0.00 | 0.01 | 0.00 | 83 | 1013.4 |
| 20260830224501 | 64 | 128 | 0.9 | 2.6 | 0.00 | 0.01 | 0.00 | 83 | 1013.4 |
| 20260830224401 | 64 | 128 | 0.9 | 2.6 | 0.00 | 0.01 | 0.00 | 83 | 1013.4 |
| 20260830224301 | 64 | 129 | 0.9 | 2.6 | 0.00 | 0.01 | 0.00 | 83 | 1013.4 |
| 20260830224252 | 64 | 129 | 0.9 | 2.6 | 0.00 | 0.01 | 0.00 | 83 | 1013.4 |
| 20260830224200 | 64 | 129 | 0.9 | 2.6 | 0.00 | 0.01 | 0.00 | 83 | 1013.4 |
| 20260830224100 | 64 | 131 | 0.9 | 2.6 | 0.00 | 0.01 | 0.00 | 83 | 1013.4 |
| 20260830224014 | 64 | 132 | 0.9 | 2.6 | 0.00 | 0.01 | 0.00 | 83 | 1013.3 |
| 20260830224005 | 64 | 131 | 0.9 | 2.6 | 0.00 | 0.01 | 0.00 | 83 | 1013.4 |
| 20260830224001 | 64 | 131 | 0.9 | 2.6 | 0.00 | 0.01 | 0.00 | 83 | 1013.3 |
| 20260830223957 | 64 | 132 | 0.9 | 2.6 | 0.00 | 0.01 | 0.00 | 83 | 1013.3 |
| 20260830223700 | 64 | 132 | 0.9 | 2.6 | 0.00 | 0.01 | 0.00 | 83 | 1013.3 |
| 20260830223604 | 64 | 132 | 0.9 | 2.6 | 0.00 | 0.01 | 0.00 | 83 | 1013.3 |
| 20260830223501 | 65 | 132 | 0.9 | 2.6 | 0.00 | 0.01 | 0.00 | 83 | 1013.4 |
| 20260830223401 | 65 | 134 | 0.9 | 2.6 | 0.00 | 0.01 | 0.00 | 83 | 1013.4 |
| 20260830223301 | 65 | 136 | 0.9 | 2.6 | 0.00 | 0.01 | 0.00 | 82 | 1013.4 |
| 20260830223240 | 65 | 136 | 0.9 | 2.6 | 0.00 | 0.01 | 0.00 | 82 | 1013.4 |
| 20260830223202 | 65 | 136 | 0.9 | 2.6 | 0.00 | 0.01 | 0.00 | 82 | 1013.4 |
| 20260830223102 | 65 | 136 | 0.0 | 2.6 | 0.00 | 0.01 | 0.00 | 82 | 1013.4 |
| 20260830223005 | 65 | 136 | 0.0 | 1.7 | 0.00 | 0.01 | 0.00 | 83 | 1013.5 |
| 20260830223001 | 65 | 137 | 0.0 | 1.7 | 0.00 | 0.01 | 0.00 | 82 | 1013.4 |
| 20260830222957 | 65 | 136 | 0.0 | 1.7 | 0.00 | 0.01 | 0.00 | 82 | 1013.4 |
| 20260830222953 | 65 | 136 | 0.0 | 1.7 | 0.00 | 0.01 | 0.00 | 83 | 1013.5 |
| 20260830222701 | 65 | 136 | 0.0 | 1.7 | 0.00 | 0.01 | 0.00 | 83 | 1013.5 |
| 20260830222601 | 65 | 136 | 0.0 | 1.7 | 0.00 | 0.01 | 0.00 | 82 | 1013.5 |
| 20260830222501 | 65 | 136 | 0.0 | 1.7 | 0.00 | 0.01 | 0.00 | 82 | 1013.5 |
| 20260830222401 | 65 | 136 | 0.0 | 1.7 | 0.00 | 0.01 | 0.00 | 82 | 1013.5 |
| 20260830222301 | 65 | 136 | 0.0 | 1.7 | 0.00 | 0.01 | 0.00 | 82 | 1013.5 |
| 20260830222228 | 65 | 136 | 0.9 | 2.6 | 0.00 | 0.01 | 0.00 | 82 | 1013.6 |
| 20260830222224 | 65 | 136 | 0.0 | 1.7 | 0.00 | 0.01 | 0.00 | 82 | 1013.5 |
| 20260830222220 | 65 | 136 | 0.0 | 1.7 | 0.00 | 0.01 | 0.00 | 82 | 1013.5 |
| 20260830222212 | 65 | 136 | 0.0 | 1.7 | 0.00 | 0.01 | 0.00 | 82 | 1013.5 |
| 20260830221953 | 65 | 136 | 0.0 | 1.7 | 0.00 | 0.01 | 0.00 | 82 | 1013.5 |
| 20260830221949 | 65 | 136 | 0.9 | 2.6 | 0.00 | 0.01 | 0.00 | 82 | 1013.6 |
| 20260830221702 | 65 | 136 | 0.9 | 2.6 | 0.00 | 0.01 | 0.00 | 82 | 1013.6 |
| 20260830221600 | 65 | 136 | 0.9 | 2.6 | 0.00 | 0.01 | 0.00 | 82 | 1013.6 |
| 20260830221500 | 65 | 136 | 0.9 | 2.6 | 0.00 | 0.01 | 0.00 | 82 | 1013.6 |
| 20260830221359 | 65 | 136 | 0.9 | 2.6 | 0.00 | 0.01 | 0.00 | 82 | 1013.6 |
| 20260830221239 | 65 | 136 | 0.9 | 2.6 | 0.00 | 0.01 | 0.00 | 82 | 1013.6 |
| 20260830221227 | 65 | 137 | 0.9 | 1.7 | 0.00 | 0.01 | 0.00 | 82 | 1013.7 |
| 20260830221223 | 65 | 136 | 0.9 | 2.6 | 0.00 | 0.01 | 0.00 | 82 | 1013.6 |
| 20260830221218 | 65 | 136 | 0.9 | 2.6 | 0.00 | 0.01 | 0.00 | 82 | 1013.6 |
| 20260830220957 | 65 | 136 | 0.9 | 2.6 | 0.00 | 0.01 | 0.00 | 82 | 1013.6 |
| 20260830220953 | 65 | 136 | 0.9 | 2.6 | 0.00 | 0.01 | 0.00 | 82 | 1013.7 |
| 20260830220949 | 65 | 137 | 0.9 | 1.7 | 0.00 | 0.01 | 0.00 | 82 | 1013.7 |
| 20260830220656 | 65 | 138 | 0.9 | 1.7 | 0.00 | 0.01 | 0.00 | 82 | 1013.7 |
| 20260830220556 | 65 | 138 | 0.9 | 1.7 | 0.00 | 0.01 | 0.00 | 82 | 1013.7 |
| 20260830220458 | 65 | 138 | 0.9 | 1.7 | 0.00 | 0.01 | 0.00 | 82 | 1013.7 |
| 20260830220454 | 65 | 138 | 0.9 | 1.7 | 0.00 | 0.01 | 0.00 | 82 | 1013.7 |
| 20260830220450 | 65 | 138 | 0.9 | 1.7 | 0.00 | 0.01 | 0.00 | 82 | 1013.7 |
| 20260830220155 | 65 | 138 | 0.0 | 1.7 | 0.00 | 0.01 | 0.00 | 82 | 1013.7 |
| 20260830220052 | 65 | 138 | 0.0 | 1.7 | 0.00 | 0.01 | 0.00 | 83 | 1013.7 |
| 20260830215952 | 65 | 138 | 0.0 | 1.7 | 0.00 | 0.01 | 0.01 | 82 | 1013.8 |
| 20260830215852 | 65 | 138 | 0.0 | 1.7 | 0.00 | 0.01 | 0.01 | 82 | 1013.7 |
| 20260830215737 | 65 | 138 | 0.0 | 1.7 | 0.00 | 0.01 | 0.01 | 82 | 1013.7 |
| 20260830215648 | 65 | 138 | 0.0 | 1.7 | 0.00 | 0.01 | 0.01 | 82 | 1013.8 |
| 20260830215548 | 65 | 138 | 0.0 | 1.7 | 0.00 | 0.01 | 0.01 | 82 | 1013.8 |
| 20260830215448 | 65 | 138 | 0.0 | 1.7 | 0.00 | 0.01 | 0.01 | 82 | 1013.9 |
| 20260830215348 | 65 | 138 | 0.0 | 1.7 | 0.00 | 0.01 | 0.01 | 82 | 1013.9 |
| 20260830215237 | 65 | 138 | 0.0 | 1.7 | 0.00 | 0.01 | 0.01 | 82 | 1013.9 |
| 20260830215147 | 65 | 138 | 0.9 | 2.6 | 0.00 | 0.01 | 0.01 | 82 | 1013.8 |
| 20260830215047 | 65 | 138 | 0.9 | 2.6 | 0.00 | 0.01 | 0.01 | 82 | 1013.9 |
| 20260830214955 | 65 | 138 | 0.9 | 2.6 | 0.00 | 0.01 | 0.01 | 82 | 1013.9 |
| 20260830214951 | 65 | 138 | 0.9 | 2.6 | 0.00 | 0.01 | 0.01 | 82 | 1013.9 |
| 20260830214947 | 65 | 138 | 0.9 | 2.6 | 0.00 | 0.01 | 0.01 | 82 | 1013.8 |
| 20260830214640 | 65 | 138 | 0.9 | 2.6 | 0.00 | 0.01 | 0.01 | 82 | 1013.8 |
| 20260830214541 | 65 | 138 | 0.9 | 2.6 | 0.00 | 0.01 | 0.01 | 82 | 1013.8 |
| 20260830214459 | 65 | 138 | 0.9 | 2.6 | 0.00 | 0.01 | 0.01 | 82 | 1013.8 |
| 20260830214454 | 65 | 138 | 0.9 | 2.6 | 0.00 | 0.01 | 0.01 | 82 | 1013.9 |
| 20260830214450 | 65 | 138 | 0.9 | 2.6 | 0.00 | 0.01 | 0.01 | 82 | 1013.9 |
| 20260830214134 | 65 | 138 | 0.9 | 2.6 | 0.00 | 0.01 | 0.01 | 82 | 1013.9 |
| 20260830214038 | 65 | 140 | 0.9 | 1.7 | 0.00 | 0.01 | 0.01 | 83 | 1013.9 |
| 20260830213932 | 65 | 140 | 0.9 | 1.7 | 0.00 | 0.01 | 0.01 | 82 | 1013.9 |
| 20260830213830 | 65 | 140 | 0.9 | 1.7 | 0.00 | 0.01 | 0.01 | 82 | 1013.9 |
| 20260830213730 | 65 | 140 | 0.9 | 1.7 | 0.00 | 0.01 | 0.01 | 82 | 1013.9 |
| 20260830213630 | 65 | 140 | 0.9 | 1.7 | 0.00 | 0.01 | 0.01 | 82 | 1013.9 |
| 20260830213529 | 65 | 140 | 0.9 | 1.7 | 0.00 | 0.01 | 0.01 | 82 | 1013.9 |
| 20260830213430 | 65 | 140 | 0.9 | 1.7 | 0.00 | 0.01 | 0.01 | 82 | 1013.9 |
| 20260830213330 | 65 | 140 | 0.9 | 1.7 | 0.00 | 0.01 | 0.01 | 82 | 1013.9 |
| 20260830213229 | 65 | 140 | 0.9 | 1.7 | 0.00 | 0.01 | 0.01 | 82 | 1013.9 |
| 20260830213129 | 65 | 140 | 0.9 | 1.7 | 0.00 | 0.01 | 0.01 | 82 | 1013.8 |
| 20260830213033 | 65 | 140 | 0.9 | 1.7 | 0.00 | 0.01 | 0.01 | 82 | 1013.8 |
| 20260830213003 | 65 | 140 | 0.0 | 1.7 | 0.00 | 0.01 | 0.01 | 82 | 1013.9 |
| 20260830212949 | 65 | 140 | 0.9 | 1.7 | 0.00 | 0.01 | 0.01 | 82 | 1013.9 |
| 20260830212944 | 65 | 140 | 0.9 | 1.7 | 0.00 | 0.01 | 0.01 | 82 | 1013.9 |
| 20260830212729 | 65 | 140 | 0.0 | 1.7 | 0.00 | 0.01 | 0.01 | 81 | 1013.9 |
| 20260830212628 | 65 | 140 | 0.0 | 1.7 | 0.00 | 0.01 | 0.01 | 81 | 1013.9 |
| 20260830212532 | 65 | 140 | 0.0 | 1.7 | 0.00 | 0.01 | 0.01 | 81 | 1013.8 |
| 20260830212429 | 65 | 140 | 0.0 | 1.7 | 0.00 | 0.01 | 0.01 | 81 | 1013.9 |
| 20260830212328 | 65 | 140 | 0.0 | 1.7 | 0.00 | 0.01 | 0.01 | 82 | 1013.9 |
| 20260830212229 | 65 | 140 | 0.0 | 0.9 | 0.00 | 0.01 | 0.01 | 82 | 1013.9 |
| 20260830212129 | 65 | 140 | 0.0 | 1.7 | 0.00 | 0.01 | 0.01 | 81 | 1013.9 |
| 20260830212037 | 65 | 140 | 0.0 | 1.7 | 0.00 | 0.01 | 0.01 | 81 | 1013.9 |
| 20260830211952 | 65 | 140 | 0.0 | 1.7 | 0.00 | 0.01 | 0.01 | 81 | 1013.9 |
| 20260830211948 | 65 | 140 | 0.0 | 1.7 | 0.00 | 0.01 | 0.01 | 81 | 1013.9 |
| 20260830211944 | 65 | 140 | 0.0 | 1.7 | 0.00 | 0.01 | 0.01 | 81 | 1013.9 |
| 20260830211728 | 65 | 140 | 0.0 | 1.7 | 0.00 | 0.01 | 0.01 | 81 | 1013.9 |
| 20260830211628 | 65 | 140 | 0.0 | 1.7 | 0.00 | 0.01 | 0.01 | 81 | 1013.9 |
| 20260830211528 | 65 | 140 | 0.9 | 1.7 | 0.00 | 0.01 | 0.01 | 81 | 1013.9 |
| 20260830211429 | 65 | 140 | 0.9 | 1.7 | 0.00 | 0.01 | 0.01 | 81 | 1013.9 |
| 20260830211324 | 65 | 140 | 0.9 | 1.7 | 0.00 | 0.01 | 0.01 | 81 | 1013.9 |
| 20260830211225 | 65 | 140 | 0.9 | 1.7 | 0.00 | 0.01 | 0.01 | 81 | 1013.9 |
| 20260830211124 | 65 | 140 | 0.9 | 1.7 | 0.00 | 0.01 | 0.01 | 81 | 1013.9 |
| 20260830211025 | 65 | 140 | 0.9 | 1.7 | 0.00 | 0.01 | 0.01 | 82 | 1013.9 |
| 20260830210924 | 65 | 140 | 0.9 | 1.7 | 0.00 | 0.01 | 0.01 | 81 | 1013.9 |
| 20260830210820 | 65 | 140 | 0.9 | 1.7 | 0.00 | 0.01 | 0.01 | 81 | 1013.9 |
| 20260830210720 | 65 | 140 | 0.9 | 1.7 | 0.00 | 0.01 | 0.01 | 81 | 1013.9 |
| 20260830210620 | 65 | 141 | 0.9 | 1.7 | 0.00 | 0.01 | 0.01 | 81 | 1013.9 |
| 20260830210524 | 65 | 141 | 0.9 | 1.7 | 0.00 | 0.01 | 0.01 | 81 | 1014.1 |
| 20260830210420 | 65 | 141 | 0.9 | 1.7 | 0.00 | 0.01 | 0.01 | 81 | 1013.9 |
| 20260830210320 | 65 | 141 | 0.9 | 2.6 | 0.00 | 0.01 | 0.01 | 81 | 1014.1 |
| 20260830210223 | 65 | 141 | 0.9 | 3.5 | 0.00 | 0.01 | 0.01 | 81 | 1014.1 |
| 20260830210219 | 65 | 141 | 0.9 | 3.5 | 0.00 | 0.01 | 0.01 | 81 | 1013.9 |
| 20260830210207 | 65 | 141 | 0.9 | 3.5 | 0.00 | 0.01 | 0.01 | 81 | 1014.1 |
| 20260830210203 | 65 | 141 | 0.9 | 3.5 | 0.00 | 0.01 | 0.01 | 81 | 1013.9 |
| 20260830205944 | 65 | 141 | 0.9 | 3.5 | 0.00 | 0.01 | 0.01 | 81 | 1013.9 |
| 20260830205940 | 65 | 141 | 0.9 | 3.5 | 0.00 | 0.01 | 0.01 | 81 | 1013.9 |
| 20260830205714 | 65 | 141 | 0.9 | 3.5 | 0.00 | 0.01 | 0.01 | 81 | 1013.9 |
| 20260830205614 | 65 | 141 | 0.9 | 3.5 | 0.00 | 0.01 | 0.01 | 81 | 1013.9 |
| 20260830205512 | 65 | 141 | 0.9 | 3.5 | 0.00 | 0.01 | 0.01 | 81 | 1013.9 |
| 20260830205411 | 65 | 141 | 0.9 | 3.5 | 0.00 | 0.01 | 0.01 | 81 | 1013.9 |
| 20260830205310 | 65 | 142 | 0.9 | 3.5 | 0.00 | 0.01 | 0.01 | 81 | 1013.9 |
| 20260830205209 | 65 | 142 | 0.9 | 2.6 | 0.00 | 0.01 | 0.01 | 81 | 1013.9 |
| 20260830205108 | 65 | 142 | 0.9 | 2.6 | 0.00 | 0.01 | 0.01 | 80 | 1013.9 |
| 20260830205006 | 65 | 142 | 0.9 | 2.6 | 0.00 | 0.01 | 0.01 | 80 | 1014.1 |
| 20260830204906 | 65 | 142 | 0.0 | 2.6 | 0.00 | 0.01 | 0.01 | 81 | 1014.1 |
| 20260830204807 | 65 | 142 | 0.0 | 1.7 | 0.00 | 0.01 | 0.01 | 81 | 1014.1 |
| 20260830204706 | 65 | 142 | 0.0 | 1.7 | 0.00 | 0.01 | 0.01 | 81 | 1014.1 |
| 20260830204606 | 65 | 142 | 0.0 | 1.7 | 0.00 | 0.01 | 0.01 | 81 | 1014.1 |
| 20260830204505 | 65 | 142 | 0.0 | 1.7 | 0.00 | 0.01 | 0.01 | 81 | 1014.1 |
| 20260830204404 | 65 | 142 | 0.0 | 1.7 | 0.00 | 0.01 | 0.01 | 81 | 1014.1 |
| 20260830204304 | 65 | 142 | 0.0 | 1.7 | 0.00 | 0.01 | 0.01 | 81 | 1014.1 |
| 20260830204204 | 65 | 142 | 0.0 | 1.7 | 0.00 | 0.01 | 0.01 | 80 | 1014.1 |
| 20260830204104 | 65 | 142 | 0.0 | 1.7 | 0.00 | 0.01 | 0.01 | 80 | 1013.9 |
| 20260830204003 | 65 | 142 | 0.0 | 1.7 | 0.00 | 0.01 | 0.01 | 80 | 1014.1 |
| 20260830203902 | 65 | 142 | 0.0 | 1.7 | 0.00 | 0.01 | 0.01 | 80 | 1014.1 |
| 20260830203801 | 65 | 142 | 0.0 | 1.7 | 0.00 | 0.01 | 0.01 | 80 | 1014.1 |
| 20260830203702 | 65 | 142 | 0.0 | 1.7 | 0.00 | 0.01 | 0.01 | 80 | 1014.1 |
| 20260830203602 | 65 | 142 | 0.0 | 1.7 | 0.00 | 0.01 | 0.01 | 80 | 1014.1 |
| 20260830203501 | 65 | 142 | 0.0 | 1.7 | 0.00 | 0.01 | 0.01 | 80 | 1014.1 |
| 20260830203401 | 65 | 142 | 0.0 | 1.7 | 0.00 | 0.01 | 0.01 | 80 | 1014.1 |
| 20260830203302 | 65 | 142 | 0.0 | 1.7 | 0.00 | 0.01 | 0.01 | 79 | 1014.1 |
| 20260830203201 | 65 | 142 | 0.0 | 1.7 | 0.00 | 0.01 | 0.01 | 79 | 1014.1 |
| 20260830203101 | 65 | 142 | 0.0 | 1.7 | 0.00 | 0.01 | 0.01 | 79 | 1014.1 |
| 20260830203002 | 65 | 142 | 0.0 | 1.7 | 0.00 | 0.01 | 0.01 | 79 | 1014.1 |
| 20260830202901 | 66 | 142 | 0.0 | 0.9 | 0.00 | 0.01 | 0.01 | 79 | 1014.1 |
| 20260830202801 | 66 | 142 | 0.0 | 2.6 | 0.00 | 0.01 | 0.01 | 79 | 1014.2 |
| 20260830202729 | 66 | 142 | 0.0 | 2.6 | 0.00 | 0.01 | 0.01 | 79 | 1014.2 |
| 20260830202701 | 66 | 142 | 0.9 | 2.6 | 0.00 | 0.01 | 0.01 | 79 | 1014.2 |
| 20260830202601 | 66 | 142 | 0.9 | 4.3 | 0.00 | 0.01 | 0.01 | 79 | 1014.1 |
| 20260830202501 | 66 | 142 | 0.9 | 4.3 | 0.00 | 0.01 | 0.01 | 79 | 1014.1 |
| 20260830202404 | 66 | 142 | 0.9 | 4.3 | 0.00 | 0.01 | 0.01 | 79 | 1014.1 |
| 20260830202301 | 66 | 142 | 0.9 | 4.3 | 0.00 | 0.01 | 0.01 | 79 | 1014.1 |
| 20260830202201 | 66 | 142 | 0.9 | 4.3 | 0.00 | 0.01 | 0.01 | 78 | 1014.1 |
| 20260830202101 | 66 | 142 | 0.9 | 4.3 | 0.00 | 0.01 | 0.01 | 78 | 1014.1 |
| 20260830202006 | 66 | 142 | 0.9 | 4.3 | 0.00 | 0.01 | 0.01 | 79 | 1013.9 |
| 20260830201901 | 66 | 142 | 0.9 | 4.3 | 0.00 | 0.01 | 0.01 | 79 | 1013.9 |
| 20260830201801 | 66 | 142 | 0.9 | 4.3 | 0.00 | 0.01 | 0.01 | 79 | 1013.9 |
| 20260830201728 | 66 | 142 | 0.9 | 4.3 | 0.00 | 0.01 | 0.01 | 79 | 1013.9 |
| 20260830201701 | 66 | 144 | 0.9 | 4.3 | 0.00 | 0.01 | 0.01 | 79 | 1013.9 |
| 20260830201600 | 66 | 198 | 0.9 | 1.7 | 0.00 | 0.01 | 0.01 | 79 | 1014.1 |
| 20260830201504 | 66 | 201 | 0.9 | 1.7 | 0.00 | 0.01 | 0.01 | 79 | 1014.1 |
| 20260830201400 | 66 | 201 | 0.9 | 1.7 | 0.00 | 0.01 | 0.01 | 79 | 1014.1 |
| 20260830201229 | 66 | 263 | 0.9 | 1.7 | 0.00 | 0.01 | 0.01 | 79 | 1013.9 |
| 20260830201158 | 66 | 263 | 0.9 | 1.7 | 0.00 | 0.01 | 0.01 | 79 | 1013.9 |
| 20260830201056 | 66 | 263 | 0.9 | 1.7 | 0.00 | 0.01 | 0.01 | 78 | 1014.1 |
| 20260830200958 | 66 | 263 | 0.9 | 1.7 | 0.00 | 0.01 | 0.01 | 78 | 1013.9 |
| 20260830200852 | 66 | 263 | 0.0 | 1.7 | 0.00 | 0.01 | 0.01 | 78 | 1013.9 |
| 20260830200752 | 66 | 266 | 0.0 | 1.7 | 0.00 | 0.01 | 0.01 | 78 | 1013.9 |